<?xml version="1.0" encoding="UTF-8" standalone="no" ?>
<gpx xmlns="http://www.topografix.com/GPX/1/1" creator="www.cicloide.com" version="1.1" xmlns:xsi="http://www.w3.org/2001/XMLSchema-instance" xsi:schemaLocation="http://www.topografix.com/GPX/1/1 http://www.topografix.com/GPX/1/1/gpx.xsd">
  <trk>
    <name>www.cicloide.com 25736</name>
    <desc>www.cicloide.com 25736</desc>
    <trkseg>
      <trkpt lat="41.605688470" lon="2.540323980">
        <ele>124.63</ele>
        <time>2015-05-17T05:35:44Z</time>
      </trkpt>
      <trkpt lat="41.605689810" lon="2.540321550">
        <ele>124.63</ele>
        <time>2015-05-17T05:35:45Z</time>
      </trkpt>
      <trkpt lat="41.605681510" lon="2.540334710">
        <ele>124.63</ele>
        <time>2015-05-17T05:36:06Z</time>
      </trkpt>
      <trkpt lat="41.605681430" lon="2.540334130">
        <ele>124.63</ele>
        <time>2015-05-17T05:36:08Z</time>
      </trkpt>
      <trkpt lat="41.605681590" lon="2.540333880">
        <ele>124.63</ele>
        <time>2015-05-17T05:36:09Z</time>
      </trkpt>
      <trkpt lat="41.605689810" lon="2.540330520">
        <ele>124.63</ele>
        <time>2015-05-17T05:36:20Z</time>
      </trkpt>
      <trkpt lat="41.605689390" lon="2.540336470">
        <ele>124.63</ele>
        <time>2015-05-17T05:36:26Z</time>
      </trkpt>
      <trkpt lat="41.605702880" lon="2.540344690">
        <ele>124.63</ele>
        <time>2015-05-17T05:36:36Z</time>
      </trkpt>
      <trkpt lat="41.605724090" lon="2.540356340">
        <ele>124.63</ele>
        <time>2015-05-17T05:36:39Z</time>
      </trkpt>
      <trkpt lat="41.605861470" lon="2.540393720">
        <ele>124.63</ele>
        <time>2015-05-17T05:36:48Z</time>
      </trkpt>
      <trkpt lat="41.606040420" lon="2.540395230">
        <ele>124.63</ele>
        <time>2015-05-17T05:36:54Z</time>
      </trkpt>
      <trkpt lat="41.606240160" lon="2.540436300">
        <ele>124.63</ele>
        <time>2015-05-17T05:37:01Z</time>
      </trkpt>
      <trkpt lat="41.606409480" lon="2.540532020">
        <ele>124.63</ele>
        <time>2015-05-17T05:37:08Z</time>
      </trkpt>
      <trkpt lat="41.606498410" lon="2.540593970">
        <ele>125.11</ele>
        <time>2015-05-17T05:37:13Z</time>
      </trkpt>
      <trkpt lat="41.606678030" lon="2.540664370">
        <ele>125.11</ele>
        <time>2015-05-17T05:37:21Z</time>
      </trkpt>
      <trkpt lat="41.606863780" lon="2.540745180">
        <ele>125.59</ele>
        <time>2015-05-17T05:37:29Z</time>
      </trkpt>
      <trkpt lat="41.607057400" lon="2.540816510">
        <ele>126.07</ele>
        <time>2015-05-17T05:37:38Z</time>
      </trkpt>
      <trkpt lat="41.607245740" lon="2.540894210">
        <ele>127.03</ele>
        <time>2015-05-17T05:37:46Z</time>
      </trkpt>
      <trkpt lat="41.607407850" lon="2.540903840">
        <ele>127.51</ele>
        <time>2015-05-17T05:37:53Z</time>
      </trkpt>
      <trkpt lat="41.607563250" lon="2.540881210">
        <ele>127.99</ele>
        <time>2015-05-17T05:38:00Z</time>
      </trkpt>
      <trkpt lat="41.607707750" lon="2.540867890">
        <ele>128.47</ele>
        <time>2015-05-17T05:38:07Z</time>
      </trkpt>
      <trkpt lat="41.607857120" lon="2.540843240">
        <ele>128.95</ele>
        <time>2015-05-17T05:38:14Z</time>
      </trkpt>
      <trkpt lat="41.607892660" lon="2.540841320">
        <ele>128.95</ele>
        <time>2015-05-17T05:38:16Z</time>
      </trkpt>
      <trkpt lat="41.608017130" lon="2.540839640">
        <ele>128.95</ele>
        <time>2015-05-17T05:38:24Z</time>
      </trkpt>
      <trkpt lat="41.608073540" lon="2.540822790">
        <ele>129.43</ele>
        <time>2015-05-17T05:38:32Z</time>
      </trkpt>
      <trkpt lat="41.608047890" lon="2.540837630">
        <ele>129.43</ele>
        <time>2015-05-17T05:38:39Z</time>
      </trkpt>
      <trkpt lat="41.607954930" lon="2.540852210">
        <ele>129.43</ele>
        <time>2015-05-17T05:38:45Z</time>
      </trkpt>
      <trkpt lat="41.607686040" lon="2.540882470">
        <ele>129.43</ele>
        <time>2015-05-17T05:38:54Z</time>
      </trkpt>
      <trkpt lat="41.607541710" lon="2.540885240">
        <ele>128.47</ele>
        <time>2015-05-17T05:38:58Z</time>
      </trkpt>
      <trkpt lat="41.607366440" lon="2.540882890">
        <ele>127.51</ele>
        <time>2015-05-17T05:39:04Z</time>
      </trkpt>
      <trkpt lat="41.607297710" lon="2.540849950">
        <ele>127.51</ele>
        <time>2015-05-17T05:39:10Z</time>
      </trkpt>
      <trkpt lat="41.607334760" lon="2.540909540">
        <ele>127.51</ele>
        <time>2015-05-17T05:39:16Z</time>
      </trkpt>
      <trkpt lat="41.607506500" lon="2.540883900">
        <ele>127.51</ele>
        <time>2015-05-17T05:39:24Z</time>
      </trkpt>
      <trkpt lat="41.607635750" lon="2.540875430">
        <ele>127.51</ele>
        <time>2015-05-17T05:39:30Z</time>
      </trkpt>
      <trkpt lat="41.607711440" lon="2.540864530">
        <ele>128.47</ele>
        <time>2015-05-17T05:39:33Z</time>
      </trkpt>
      <trkpt lat="41.607864160" lon="2.540840980">
        <ele>128.95</ele>
        <time>2015-05-17T05:39:39Z</time>
      </trkpt>
      <trkpt lat="41.608111590" lon="2.540853550">
        <ele>129.92</ele>
        <time>2015-05-17T05:39:48Z</time>
      </trkpt>
      <trkpt lat="41.608302780" lon="2.540784150">
        <ele>130.40</ele>
        <time>2015-05-17T05:39:55Z</time>
      </trkpt>
      <trkpt lat="41.608489200" lon="2.540737130">
        <ele>130.88</ele>
        <time>2015-05-17T05:40:02Z</time>
      </trkpt>
      <trkpt lat="41.608661030" lon="2.540708040">
        <ele>131.36</ele>
        <time>2015-05-17T05:40:08Z</time>
      </trkpt>
      <trkpt lat="41.608937880" lon="2.540644170">
        <ele>132.80</ele>
        <time>2015-05-17T05:40:17Z</time>
      </trkpt>
      <trkpt lat="41.609135780" lon="2.540622880">
        <ele>133.28</ele>
        <time>2015-05-17T05:40:24Z</time>
      </trkpt>
      <trkpt lat="41.609348010" lon="2.540607710">
        <ele>133.76</ele>
        <time>2015-05-17T05:40:32Z</time>
      </trkpt>
      <trkpt lat="41.609516990" lon="2.540598070">
        <ele>134.72</ele>
        <time>2015-05-17T05:40:39Z</time>
      </trkpt>
      <trkpt lat="41.609645650" lon="2.540579630">
        <ele>134.72</ele>
        <time>2015-05-17T05:40:47Z</time>
      </trkpt>
      <trkpt lat="41.609723430" lon="2.540532190">
        <ele>135.20</ele>
        <time>2015-05-17T05:40:54Z</time>
      </trkpt>
      <trkpt lat="41.609764250" lon="2.540489360">
        <ele>135.20</ele>
        <time>2015-05-17T05:41:02Z</time>
      </trkpt>
      <trkpt lat="41.609826110" lon="2.540493220">
        <ele>135.68</ele>
        <time>2015-05-17T05:41:10Z</time>
      </trkpt>
      <trkpt lat="41.609875810" lon="2.540505960">
        <ele>135.68</ele>
        <time>2015-05-17T05:41:16Z</time>
      </trkpt>
      <trkpt lat="41.609933060" lon="2.540490620">
        <ele>135.68</ele>
        <time>2015-05-17T05:41:23Z</time>
      </trkpt>
      <trkpt lat="41.609975810" lon="2.540470420">
        <ele>135.68</ele>
        <time>2015-05-17T05:41:29Z</time>
      </trkpt>
      <trkpt lat="41.610110930" lon="2.540370670">
        <ele>136.16</ele>
        <time>2015-05-17T05:41:36Z</time>
      </trkpt>
      <trkpt lat="41.610212680" lon="2.540293140">
        <ele>136.64</ele>
        <time>2015-05-17T05:41:42Z</time>
      </trkpt>
      <trkpt lat="41.610394990" lon="2.540190630">
        <ele>137.61</ele>
        <time>2015-05-17T05:41:50Z</time>
      </trkpt>
      <trkpt lat="41.610568410" lon="2.540107980">
        <ele>138.09</ele>
        <time>2015-05-17T05:41:58Z</time>
      </trkpt>
      <trkpt lat="41.610745520" lon="2.540028270">
        <ele>139.05</ele>
        <time>2015-05-17T05:42:06Z</time>
      </trkpt>
      <trkpt lat="41.610881480" lon="2.539949560">
        <ele>139.53</ele>
        <time>2015-05-17T05:42:12Z</time>
      </trkpt>
      <trkpt lat="41.611075180" lon="2.539850570">
        <ele>140.49</ele>
        <time>2015-05-17T05:42:20Z</time>
      </trkpt>
      <trkpt lat="41.611214820" lon="2.539766170">
        <ele>140.97</ele>
        <time>2015-05-17T05:42:26Z</time>
      </trkpt>
      <trkpt lat="41.611344660" lon="2.539688550">
        <ele>141.45</ele>
        <time>2015-05-17T05:42:32Z</time>
      </trkpt>
      <trkpt lat="41.611526710" lon="2.539516140">
        <ele>142.41</ele>
        <time>2015-05-17T05:42:39Z</time>
      </trkpt>
      <trkpt lat="41.611614140" lon="2.539428710">
        <ele>142.41</ele>
        <time>2015-05-17T05:42:43Z</time>
      </trkpt>
      <trkpt lat="41.611654540" lon="2.539345310">
        <ele>142.89</ele>
        <time>2015-05-17T05:42:47Z</time>
      </trkpt>
      <trkpt lat="41.611753700" lon="2.539209280">
        <ele>143.37</ele>
        <time>2015-05-17T05:42:53Z</time>
      </trkpt>
      <trkpt lat="41.611877330" lon="2.539131070">
        <ele>143.85</ele>
        <time>2015-05-17T05:42:59Z</time>
      </trkpt>
      <trkpt lat="41.611899630" lon="2.539109610">
        <ele>143.85</ele>
        <time>2015-05-17T05:43:00Z</time>
      </trkpt>
      <trkpt lat="41.612100540" lon="2.538858160">
        <ele>144.34</ele>
        <time>2015-05-17T05:43:11Z</time>
      </trkpt>
      <trkpt lat="41.612170360" lon="2.538687250">
        <ele>145.30</ele>
        <time>2015-05-17T05:43:18Z</time>
      </trkpt>
      <trkpt lat="41.612288710" lon="2.538530510">
        <ele>145.78</ele>
        <time>2015-05-17T05:43:25Z</time>
      </trkpt>
      <trkpt lat="41.612451740" lon="2.538311820">
        <ele>146.26</ele>
        <time>2015-05-17T05:43:34Z</time>
      </trkpt>
      <trkpt lat="41.612594400" lon="2.538134210">
        <ele>147.22</ele>
        <time>2015-05-17T05:43:42Z</time>
      </trkpt>
      <trkpt lat="41.612740080" lon="2.537951820">
        <ele>148.18</ele>
        <time>2015-05-17T05:43:50Z</time>
      </trkpt>
      <trkpt lat="41.612874360" lon="2.537800860">
        <ele>148.66</ele>
        <time>2015-05-17T05:43:57Z</time>
      </trkpt>
      <trkpt lat="41.613050290" lon="2.537600960">
        <ele>149.62</ele>
        <time>2015-05-17T05:44:06Z</time>
      </trkpt>
      <trkpt lat="41.613203090" lon="2.537432480">
        <ele>150.10</ele>
        <time>2015-05-17T05:44:14Z</time>
      </trkpt>
      <trkpt lat="41.613364360" lon="2.537234920">
        <ele>151.06</ele>
        <time>2015-05-17T05:44:23Z</time>
      </trkpt>
      <trkpt lat="41.613523200" lon="2.537018660">
        <ele>151.54</ele>
        <time>2015-05-17T05:44:31Z</time>
      </trkpt>
      <trkpt lat="41.613636440" lon="2.536814060">
        <ele>152.03</ele>
        <time>2015-05-17T05:44:38Z</time>
      </trkpt>
      <trkpt lat="41.613657560" lon="2.536723040">
        <ele>152.51</ele>
        <time>2015-05-17T05:44:40Z</time>
      </trkpt>
      <trkpt lat="41.613664600" lon="2.536442330">
        <ele>153.47</ele>
        <time>2015-05-17T05:44:48Z</time>
      </trkpt>
      <trkpt lat="41.613789740" lon="2.536154160">
        <ele>153.95</ele>
        <time>2015-05-17T05:44:57Z</time>
      </trkpt>
      <trkpt lat="41.613893180" lon="2.535901780">
        <ele>154.91</ele>
        <time>2015-05-17T05:45:05Z</time>
      </trkpt>
      <trkpt lat="41.614012200" lon="2.535525510">
        <ele>156.35</ele>
        <time>2015-05-17T05:45:16Z</time>
      </trkpt>
      <trkpt lat="41.614093920" lon="2.535244970">
        <ele>157.31</ele>
        <time>2015-05-17T05:45:24Z</time>
      </trkpt>
      <trkpt lat="41.614176320" lon="2.534980770">
        <ele>157.79</ele>
        <time>2015-05-17T05:45:32Z</time>
      </trkpt>
      <trkpt lat="41.614266510" lon="2.534715900">
        <ele>159.24</ele>
        <time>2015-05-17T05:45:40Z</time>
      </trkpt>
      <trkpt lat="41.614353760" lon="2.534457740">
        <ele>160.20</ele>
        <time>2015-05-17T05:45:48Z</time>
      </trkpt>
      <trkpt lat="41.614437920" lon="2.534165720">
        <ele>161.16</ele>
        <time>2015-05-17T05:45:57Z</time>
      </trkpt>
      <trkpt lat="41.614523920" lon="2.533868490">
        <ele>162.12</ele>
        <time>2015-05-17T05:46:06Z</time>
      </trkpt>
      <trkpt lat="41.614648050" lon="2.533469260">
        <ele>163.08</ele>
        <time>2015-05-17T05:46:17Z</time>
      </trkpt>
      <trkpt lat="41.614740340" lon="2.533195010">
        <ele>164.04</ele>
        <time>2015-05-17T05:46:25Z</time>
      </trkpt>
      <trkpt lat="41.614833290" lon="2.532877840">
        <ele>165.00</ele>
        <time>2015-05-17T05:46:34Z</time>
      </trkpt>
      <trkpt lat="41.614931780" lon="2.532550860">
        <ele>165.48</ele>
        <time>2015-05-17T05:46:43Z</time>
      </trkpt>
      <trkpt lat="41.615026660" lon="2.532214240">
        <ele>166.93</ele>
        <time>2015-05-17T05:46:52Z</time>
      </trkpt>
      <trkpt lat="41.615053480" lon="2.531948030">
        <ele>167.41</ele>
        <time>2015-05-17T05:46:59Z</time>
      </trkpt>
      <trkpt lat="41.615072680" lon="2.531626590">
        <ele>168.37</ele>
        <time>2015-05-17T05:47:07Z</time>
      </trkpt>
      <trkpt lat="41.615087930" lon="2.531242360">
        <ele>169.81</ele>
        <time>2015-05-17T05:47:17Z</time>
      </trkpt>
      <trkpt lat="41.615131940" lon="2.530902640">
        <ele>169.81</ele>
        <time>2015-05-17T05:47:25Z</time>
      </trkpt>
      <trkpt lat="41.615169990" lon="2.530418170">
        <ele>171.25</ele>
        <time>2015-05-17T05:47:37Z</time>
      </trkpt>
      <trkpt lat="41.615158590" lon="2.530095460">
        <ele>172.69</ele>
        <time>2015-05-17T05:47:46Z</time>
      </trkpt>
      <trkpt lat="41.615162280" lon="2.529764880">
        <ele>173.17</ele>
        <time>2015-05-17T05:47:55Z</time>
      </trkpt>
      <trkpt lat="41.615166810" lon="2.529496410">
        <ele>174.14</ele>
        <time>2015-05-17T05:48:03Z</time>
      </trkpt>
      <trkpt lat="41.615176110" lon="2.529114030">
        <ele>175.58</ele>
        <time>2015-05-17T05:48:14Z</time>
      </trkpt>
      <trkpt lat="41.615229080" lon="2.528734080">
        <ele>176.54</ele>
        <time>2015-05-17T05:48:24Z</time>
      </trkpt>
      <trkpt lat="41.615298820" lon="2.528353960">
        <ele>177.02</ele>
        <time>2015-05-17T05:48:34Z</time>
      </trkpt>
      <trkpt lat="41.615365540" lon="2.528055640">
        <ele>177.98</ele>
        <time>2015-05-17T05:48:42Z</time>
      </trkpt>
      <trkpt lat="41.615433180" lon="2.527695220">
        <ele>178.46</ele>
        <time>2015-05-17T05:48:52Z</time>
      </trkpt>
      <trkpt lat="41.615487410" lon="2.527458770">
        <ele>179.42</ele>
        <time>2015-05-17T05:48:59Z</time>
      </trkpt>
      <trkpt lat="41.615523120" lon="2.527268250">
        <ele>180.38</ele>
        <time>2015-05-17T05:49:05Z</time>
      </trkpt>
      <trkpt lat="41.615563440" lon="2.526965160">
        <ele>181.83</ele>
        <time>2015-05-17T05:49:14Z</time>
      </trkpt>
      <trkpt lat="41.615586660" lon="2.526690400">
        <ele>183.27</ele>
        <time>2015-05-17T05:49:22Z</time>
      </trkpt>
      <trkpt lat="41.615559580" lon="2.526448580">
        <ele>183.75</ele>
        <time>2015-05-17T05:49:29Z</time>
      </trkpt>
      <trkpt lat="41.615535610" lon="2.526184550">
        <ele>184.23</ele>
        <time>2015-05-17T05:49:36Z</time>
      </trkpt>
      <trkpt lat="41.615513150" lon="2.525984900">
        <ele>184.71</ele>
        <time>2015-05-17T05:49:42Z</time>
      </trkpt>
      <trkpt lat="41.615502920" lon="2.525686670">
        <ele>185.67</ele>
        <time>2015-05-17T05:49:50Z</time>
      </trkpt>
      <trkpt lat="41.615515580" lon="2.525309900">
        <ele>186.63</ele>
        <time>2015-05-17T05:49:58Z</time>
      </trkpt>
      <trkpt lat="41.615530330" lon="2.525057020">
        <ele>187.59</ele>
        <time>2015-05-17T05:50:05Z</time>
      </trkpt>
      <trkpt lat="41.615553300" lon="2.524816460">
        <ele>188.08</ele>
        <time>2015-05-17T05:50:12Z</time>
      </trkpt>
      <trkpt lat="41.615580120" lon="2.524540440">
        <ele>189.04</ele>
        <time>2015-05-17T05:50:20Z</time>
      </trkpt>
      <trkpt lat="41.615590930" lon="2.524229560">
        <ele>190.48</ele>
        <time>2015-05-17T05:50:29Z</time>
      </trkpt>
      <trkpt lat="41.615616160" lon="2.523953790">
        <ele>191.92</ele>
        <time>2015-05-17T05:50:37Z</time>
      </trkpt>
      <trkpt lat="41.615639460" lon="2.523657070">
        <ele>192.88</ele>
        <time>2015-05-17T05:50:45Z</time>
      </trkpt>
      <trkpt lat="41.615669810" lon="2.523315590">
        <ele>193.84</ele>
        <time>2015-05-17T05:50:54Z</time>
      </trkpt>
      <trkpt lat="41.615704590" lon="2.523021390">
        <ele>194.32</ele>
        <time>2015-05-17T05:51:02Z</time>
      </trkpt>
      <trkpt lat="41.615753790" lon="2.522655940">
        <ele>195.77</ele>
        <time>2015-05-17T05:51:12Z</time>
      </trkpt>
      <trkpt lat="41.615802070" lon="2.522310270">
        <ele>196.73</ele>
        <time>2015-05-17T05:51:21Z</time>
      </trkpt>
      <trkpt lat="41.615849680" lon="2.521977590">
        <ele>198.17</ele>
        <time>2015-05-17T05:51:30Z</time>
      </trkpt>
      <trkpt lat="41.615887570" lon="2.521720100">
        <ele>199.13</ele>
        <time>2015-05-17T05:51:38Z</time>
      </trkpt>
      <trkpt lat="41.615930990" lon="2.521463950">
        <ele>199.13</ele>
        <time>2015-05-17T05:51:45Z</time>
      </trkpt>
      <trkpt lat="41.615976420" lon="2.521145440">
        <ele>199.61</ele>
        <time>2015-05-17T05:51:53Z</time>
      </trkpt>
      <trkpt lat="41.616043640" lon="2.520839920">
        <ele>200.09</ele>
        <time>2015-05-17T05:52:01Z</time>
      </trkpt>
      <trkpt lat="41.616128550" lon="2.520485530">
        <ele>201.05</ele>
        <time>2015-05-17T05:52:10Z</time>
      </trkpt>
      <trkpt lat="41.616196440" lon="2.520266430">
        <ele>201.53</ele>
        <time>2015-05-17T05:52:17Z</time>
      </trkpt>
      <trkpt lat="41.616276400" lon="2.520015560">
        <ele>202.49</ele>
        <time>2015-05-17T05:52:25Z</time>
      </trkpt>
      <trkpt lat="41.616372120" lon="2.519698300">
        <ele>202.98</ele>
        <time>2015-05-17T05:52:34Z</time>
      </trkpt>
      <trkpt lat="41.616432890" lon="2.519443660">
        <ele>203.94</ele>
        <time>2015-05-17T05:52:41Z</time>
      </trkpt>
      <trkpt lat="41.616479250" lon="2.519193040">
        <ele>204.90</ele>
        <time>2015-05-17T05:52:48Z</time>
      </trkpt>
      <trkpt lat="41.616523420" lon="2.518972930">
        <ele>205.38</ele>
        <time>2015-05-17T05:52:54Z</time>
      </trkpt>
      <trkpt lat="41.616618640" lon="2.518714010">
        <ele>205.38</ele>
        <time>2015-05-17T05:53:01Z</time>
      </trkpt>
      <trkpt lat="41.616670270" lon="2.518450910">
        <ele>205.38</ele>
        <time>2015-05-17T05:53:07Z</time>
      </trkpt>
      <trkpt lat="41.616697430" lon="2.518103310">
        <ele>205.38</ele>
        <time>2015-05-17T05:53:16Z</time>
      </trkpt>
      <trkpt lat="41.616708410" lon="2.517881350">
        <ele>205.86</ele>
        <time>2015-05-17T05:53:21Z</time>
      </trkpt>
      <trkpt lat="41.616716870" lon="2.517652780">
        <ele>206.82</ele>
        <time>2015-05-17T05:53:27Z</time>
      </trkpt>
      <trkpt lat="41.616733800" lon="2.517407860">
        <ele>207.30</ele>
        <time>2015-05-17T05:53:34Z</time>
      </trkpt>
      <trkpt lat="41.616740680" lon="2.517215830">
        <ele>208.74</ele>
        <time>2015-05-17T05:53:40Z</time>
      </trkpt>
      <trkpt lat="41.616760630" lon="2.516933860">
        <ele>209.22</ele>
        <time>2015-05-17T05:53:47Z</time>
      </trkpt>
      <trkpt lat="41.616782170" lon="2.516620880">
        <ele>210.67</ele>
        <time>2015-05-17T05:53:55Z</time>
      </trkpt>
      <trkpt lat="41.616795410" lon="2.516347630">
        <ele>211.15</ele>
        <time>2015-05-17T05:54:03Z</time>
      </trkpt>
      <trkpt lat="41.616798430" lon="2.515995760">
        <ele>212.11</ele>
        <time>2015-05-17T05:54:12Z</time>
      </trkpt>
      <trkpt lat="41.616814100" lon="2.515627130">
        <ele>213.07</ele>
        <time>2015-05-17T05:54:21Z</time>
      </trkpt>
      <trkpt lat="41.616845450" lon="2.515286230">
        <ele>214.51</ele>
        <time>2015-05-17T05:54:30Z</time>
      </trkpt>
      <trkpt lat="41.616856930" lon="2.514960010">
        <ele>215.47</ele>
        <time>2015-05-17T05:54:40Z</time>
      </trkpt>
      <trkpt lat="41.616869340" lon="2.514721710">
        <ele>216.43</ele>
        <time>2015-05-17T05:54:47Z</time>
      </trkpt>
      <trkpt lat="41.616849140" lon="2.514412920">
        <ele>217.40</ele>
        <time>2015-05-17T05:54:56Z</time>
      </trkpt>
      <trkpt lat="41.616847630" lon="2.514057200">
        <ele>218.36</ele>
        <time>2015-05-17T05:55:06Z</time>
      </trkpt>
      <trkpt lat="41.616855840" lon="2.513751260">
        <ele>219.32</ele>
        <time>2015-05-17T05:55:15Z</time>
      </trkpt>
      <trkpt lat="41.616869000" lon="2.513476500">
        <ele>220.28</ele>
        <time>2015-05-17T05:55:23Z</time>
      </trkpt>
      <trkpt lat="41.616870180" lon="2.513153960">
        <ele>220.76</ele>
        <time>2015-05-17T05:55:32Z</time>
      </trkpt>
      <trkpt lat="41.616869090" lon="2.512838220">
        <ele>222.20</ele>
        <time>2015-05-17T05:55:41Z</time>
      </trkpt>
      <trkpt lat="41.616822070" lon="2.512575860">
        <ele>222.68</ele>
        <time>2015-05-17T05:55:49Z</time>
      </trkpt>
      <trkpt lat="41.616754420" lon="2.512374110">
        <ele>223.16</ele>
        <time>2015-05-17T05:55:56Z</time>
      </trkpt>
      <trkpt lat="41.616632220" lon="2.512128850">
        <ele>224.12</ele>
        <time>2015-05-17T05:56:05Z</time>
      </trkpt>
      <trkpt lat="41.616526100" lon="2.511959540">
        <ele>225.09</ele>
        <time>2015-05-17T05:56:12Z</time>
      </trkpt>
      <trkpt lat="41.616452260" lon="2.511820570">
        <ele>225.57</ele>
        <time>2015-05-17T05:56:18Z</time>
      </trkpt>
      <trkpt lat="41.616380840" lon="2.511624350">
        <ele>226.53</ele>
        <time>2015-05-17T05:56:25Z</time>
      </trkpt>
      <trkpt lat="41.616350420" lon="2.511438860">
        <ele>226.53</ele>
        <time>2015-05-17T05:56:31Z</time>
      </trkpt>
      <trkpt lat="41.616355440" lon="2.511297540">
        <ele>227.49</ele>
        <time>2015-05-17T05:56:36Z</time>
      </trkpt>
      <trkpt lat="41.616384450" lon="2.511070890">
        <ele>227.97</ele>
        <time>2015-05-17T05:56:44Z</time>
      </trkpt>
      <trkpt lat="41.616438760" lon="2.510918930">
        <ele>229.89</ele>
        <time>2015-05-17T05:56:50Z</time>
      </trkpt>
      <trkpt lat="41.616571190" lon="2.510688090">
        <ele>230.85</ele>
        <time>2015-05-17T05:56:58Z</time>
      </trkpt>
      <trkpt lat="41.616642940" lon="2.510551130">
        <ele>232.78</ele>
        <time>2015-05-17T05:57:04Z</time>
      </trkpt>
      <trkpt lat="41.616737740" lon="2.510320630">
        <ele>234.70</ele>
        <time>2015-05-17T05:57:13Z</time>
      </trkpt>
      <trkpt lat="41.616759370" lon="2.510169420">
        <ele>236.14</ele>
        <time>2015-05-17T05:57:20Z</time>
      </trkpt>
      <trkpt lat="41.616766660" lon="2.509969010">
        <ele>238.06</ele>
        <time>2015-05-17T05:57:29Z</time>
      </trkpt>
      <trkpt lat="41.616821560" lon="2.509758960">
        <ele>239.51</ele>
        <time>2015-05-17T05:57:38Z</time>
      </trkpt>
      <trkpt lat="41.616880570" lon="2.509610850">
        <ele>239.99</ele>
        <time>2015-05-17T05:57:45Z</time>
      </trkpt>
      <trkpt lat="41.616900020" lon="2.509555190">
        <ele>239.99</ele>
        <time>2015-05-17T05:57:48Z</time>
      </trkpt>
      <trkpt lat="41.616850140" lon="2.509525770">
        <ele>240.47</ele>
        <time>2015-05-17T05:57:53Z</time>
      </trkpt>
      <trkpt lat="41.616764480" lon="2.509609510">
        <ele>241.91</ele>
        <time>2015-05-17T05:58:02Z</time>
      </trkpt>
      <trkpt lat="41.616698770" lon="2.509719560">
        <ele>242.39</ele>
        <time>2015-05-17T05:58:09Z</time>
      </trkpt>
      <trkpt lat="41.616681420" lon="2.509757870">
        <ele>242.39</ele>
        <time>2015-05-17T05:58:11Z</time>
      </trkpt>
      <trkpt lat="41.616583770" lon="2.509831380">
        <ele>243.35</ele>
        <time>2015-05-17T05:58:18Z</time>
      </trkpt>
      <trkpt lat="41.616532140" lon="2.509811760">
        <ele>243.83</ele>
        <time>2015-05-17T05:58:21Z</time>
      </trkpt>
      <trkpt lat="41.616392490" lon="2.509713190">
        <ele>245.27</ele>
        <time>2015-05-17T05:58:30Z</time>
      </trkpt>
      <trkpt lat="41.616352930" lon="2.509577740">
        <ele>247.20</ele>
        <time>2015-05-17T05:58:38Z</time>
      </trkpt>
      <trkpt lat="41.616346480" lon="2.509463580">
        <ele>248.64</ele>
        <time>2015-05-17T05:58:45Z</time>
      </trkpt>
      <trkpt lat="41.616336500" lon="2.509310610">
        <ele>250.08</ele>
        <time>2015-05-17T05:58:53Z</time>
      </trkpt>
      <trkpt lat="41.616316800" lon="2.509134840">
        <ele>252.00</ele>
        <time>2015-05-17T05:59:02Z</time>
      </trkpt>
      <trkpt lat="41.616291990" lon="2.508990670">
        <ele>254.41</ele>
        <time>2015-05-17T05:59:10Z</time>
      </trkpt>
      <trkpt lat="41.616274810" lon="2.508924960">
        <ele>255.37</ele>
        <time>2015-05-17T05:59:14Z</time>
      </trkpt>
      <trkpt lat="41.616243460" lon="2.508800070">
        <ele>256.81</ele>
        <time>2015-05-17T05:59:21Z</time>
      </trkpt>
      <trkpt lat="41.616206160" lon="2.508660340">
        <ele>258.73</ele>
        <time>2015-05-17T05:59:29Z</time>
      </trkpt>
      <trkpt lat="41.616177500" lon="2.508533020">
        <ele>260.17</ele>
        <time>2015-05-17T05:59:36Z</time>
      </trkpt>
      <trkpt lat="41.616123770" lon="2.508314750">
        <ele>262.10</ele>
        <time>2015-05-17T05:59:47Z</time>
      </trkpt>
      <trkpt lat="41.616078170" lon="2.508173270">
        <ele>263.54</ele>
        <time>2015-05-17T05:59:55Z</time>
      </trkpt>
      <trkpt lat="41.616032740" lon="2.508041750">
        <ele>264.98</ele>
        <time>2015-05-17T06:00:03Z</time>
      </trkpt>
      <trkpt lat="41.615983040" lon="2.507902360">
        <ele>265.94</ele>
        <time>2015-05-17T06:00:10Z</time>
      </trkpt>
      <trkpt lat="41.615947160" lon="2.507824240">
        <ele>266.42</ele>
        <time>2015-05-17T06:00:14Z</time>
      </trkpt>
      <trkpt lat="41.615887570" lon="2.507713770">
        <ele>268.35</ele>
        <time>2015-05-17T06:00:22Z</time>
      </trkpt>
      <trkpt lat="41.615826130" lon="2.507522580">
        <ele>270.75</ele>
        <time>2015-05-17T06:00:31Z</time>
      </trkpt>
      <trkpt lat="41.615801400" lon="2.507356700">
        <ele>271.23</ele>
        <time>2015-05-17T06:00:38Z</time>
      </trkpt>
      <trkpt lat="41.615767540" lon="2.507229970">
        <ele>272.19</ele>
        <time>2015-05-17T06:00:44Z</time>
      </trkpt>
      <trkpt lat="41.615747920" lon="2.507136260">
        <ele>273.15</ele>
        <time>2015-05-17T06:00:49Z</time>
      </trkpt>
      <trkpt lat="41.615711130" lon="2.506969040">
        <ele>275.56</ele>
        <time>2015-05-17T06:00:58Z</time>
      </trkpt>
      <trkpt lat="41.615706430" lon="2.506846750">
        <ele>276.52</ele>
        <time>2015-05-17T06:01:05Z</time>
      </trkpt>
      <trkpt lat="41.615710880" lon="2.506641220">
        <ele>279.40</ele>
        <time>2015-05-17T06:01:17Z</time>
      </trkpt>
      <trkpt lat="41.615732330" lon="2.506550450">
        <ele>280.84</ele>
        <time>2015-05-17T06:01:22Z</time>
      </trkpt>
      <trkpt lat="41.615775080" lon="2.506388680">
        <ele>283.25</ele>
        <time>2015-05-17T06:01:32Z</time>
      </trkpt>
      <trkpt lat="41.615830910" lon="2.506241910">
        <ele>285.65</ele>
        <time>2015-05-17T06:01:41Z</time>
      </trkpt>
      <trkpt lat="41.615898130" lon="2.506065890">
        <ele>286.61</ele>
        <time>2015-05-17T06:01:49Z</time>
      </trkpt>
      <trkpt lat="41.615908610" lon="2.506047870">
        <ele>287.09</ele>
        <time>2015-05-17T06:01:50Z</time>
      </trkpt>
      <trkpt lat="41.615956380" lon="2.505907550">
        <ele>288.53</ele>
        <time>2015-05-17T06:01:58Z</time>
      </trkpt>
      <trkpt lat="41.615978340" lon="2.505843940">
        <ele>289.97</ele>
        <time>2015-05-17T06:02:03Z</time>
      </trkpt>
      <trkpt lat="41.616026790" lon="2.505706390">
        <ele>291.42</ele>
        <time>2015-05-17T06:02:12Z</time>
      </trkpt>
      <trkpt lat="41.616059060" lon="2.505589130">
        <ele>292.86</ele>
        <time>2015-05-17T06:02:19Z</time>
      </trkpt>
      <trkpt lat="41.616095860" lon="2.505463230">
        <ele>294.78</ele>
        <time>2015-05-17T06:02:26Z</time>
      </trkpt>
      <trkpt lat="41.616158220" lon="2.505293920">
        <ele>295.26</ele>
        <time>2015-05-17T06:02:33Z</time>
      </trkpt>
      <trkpt lat="41.616170460" lon="2.505208670">
        <ele>296.70</ele>
        <time>2015-05-17T06:02:38Z</time>
      </trkpt>
      <trkpt lat="41.616178340" lon="2.505078500">
        <ele>299.11</ele>
        <time>2015-05-17T06:02:44Z</time>
      </trkpt>
      <trkpt lat="41.616160900" lon="2.504980680">
        <ele>299.11</ele>
        <time>2015-05-17T06:02:48Z</time>
      </trkpt>
      <trkpt lat="41.616057550" lon="2.504873480">
        <ele>300.07</ele>
        <time>2015-05-17T06:02:56Z</time>
      </trkpt>
      <trkpt lat="41.615870220" lon="2.504837020">
        <ele>301.51</ele>
        <time>2015-05-17T06:03:06Z</time>
      </trkpt>
      <trkpt lat="41.615682800" lon="2.504829730">
        <ele>302.95</ele>
        <time>2015-05-17T06:03:17Z</time>
      </trkpt>
      <trkpt lat="41.615554720" lon="2.504830820">
        <ele>304.88</ele>
        <time>2015-05-17T06:03:27Z</time>
      </trkpt>
      <trkpt lat="41.615456570" lon="2.504836180">
        <ele>305.84</ele>
        <time>2015-05-17T06:03:34Z</time>
      </trkpt>
      <trkpt lat="41.615390180" lon="2.504799380">
        <ele>306.32</ele>
        <time>2015-05-17T06:03:39Z</time>
      </trkpt>
      <trkpt lat="41.615366380" lon="2.504710200">
        <ele>307.28</ele>
        <time>2015-05-17T06:03:45Z</time>
      </trkpt>
      <trkpt lat="41.615354390" lon="2.504543150">
        <ele>309.68</ele>
        <time>2015-05-17T06:03:55Z</time>
      </trkpt>
      <trkpt lat="41.615351880" lon="2.504482210">
        <ele>310.16</ele>
        <time>2015-05-17T06:03:59Z</time>
      </trkpt>
      <trkpt lat="41.615346680" lon="2.504437700">
        <ele>311.12</ele>
        <time>2015-05-17T06:04:02Z</time>
      </trkpt>
      <trkpt lat="41.615353640" lon="2.504302760">
        <ele>313.05</ele>
        <time>2015-05-17T06:04:11Z</time>
      </trkpt>
      <trkpt lat="41.615361270" lon="2.504185070">
        <ele>314.49</ele>
        <time>2015-05-17T06:04:19Z</time>
      </trkpt>
      <trkpt lat="41.615378870" lon="2.504068310">
        <ele>315.93</ele>
        <time>2015-05-17T06:04:27Z</time>
      </trkpt>
      <trkpt lat="41.615391020" lon="2.504007040">
        <ele>316.89</ele>
        <time>2015-05-17T06:04:31Z</time>
      </trkpt>
      <trkpt lat="41.615399490" lon="2.503851980">
        <ele>318.81</ele>
        <time>2015-05-17T06:04:40Z</time>
      </trkpt>
      <trkpt lat="41.615405520" lon="2.503699340">
        <ele>320.74</ele>
        <time>2015-05-17T06:04:48Z</time>
      </trkpt>
      <trkpt lat="41.615392620" lon="2.503506470">
        <ele>322.66</ele>
        <time>2015-05-17T06:04:58Z</time>
      </trkpt>
      <trkpt lat="41.615368730" lon="2.503355680">
        <ele>323.62</ele>
        <time>2015-05-17T06:05:05Z</time>
      </trkpt>
      <trkpt lat="41.615315920" lon="2.503159970">
        <ele>323.62</ele>
        <time>2015-05-17T06:05:12Z</time>
      </trkpt>
      <trkpt lat="41.615191200" lon="2.502957040">
        <ele>323.62</ele>
        <time>2015-05-17T06:05:20Z</time>
      </trkpt>
      <trkpt lat="41.615137390" lon="2.502829130">
        <ele>323.62</ele>
        <time>2015-05-17T06:05:24Z</time>
      </trkpt>
      <trkpt lat="41.615085170" lon="2.502516990">
        <ele>324.10</ele>
        <time>2015-05-17T06:05:33Z</time>
      </trkpt>
      <trkpt lat="41.615012580" lon="2.502258160">
        <ele>325.06</ele>
        <time>2015-05-17T06:05:42Z</time>
      </trkpt>
      <trkpt lat="41.614957010" lon="2.502019440">
        <ele>326.50</ele>
        <time>2015-05-17T06:05:50Z</time>
      </trkpt>
      <trkpt lat="41.614920380" lon="2.501716690">
        <ele>327.47</ele>
        <time>2015-05-17T06:06:00Z</time>
      </trkpt>
      <trkpt lat="41.614929600" lon="2.501517870">
        <ele>327.47</ele>
        <time>2015-05-17T06:06:05Z</time>
      </trkpt>
      <trkpt lat="41.614801940" lon="2.501417030">
        <ele>327.47</ele>
        <time>2015-05-17T06:06:10Z</time>
      </trkpt>
      <trkpt lat="41.614656680" lon="2.501382500">
        <ele>327.95</ele>
        <time>2015-05-17T06:06:16Z</time>
      </trkpt>
      <trkpt lat="41.614429700" lon="2.501223580">
        <ele>329.87</ele>
        <time>2015-05-17T06:06:27Z</time>
      </trkpt>
      <trkpt lat="41.614293250" lon="2.501098520">
        <ele>332.27</ele>
        <time>2015-05-17T06:06:36Z</time>
      </trkpt>
      <trkpt lat="41.614243960" lon="2.500905650">
        <ele>333.23</ele>
        <time>2015-05-17T06:06:46Z</time>
      </trkpt>
      <trkpt lat="41.614195600" lon="2.500719580">
        <ele>336.12</ele>
        <time>2015-05-17T06:06:57Z</time>
      </trkpt>
      <trkpt lat="41.614168190" lon="2.500656630">
        <ele>336.60</ele>
        <time>2015-05-17T06:07:01Z</time>
      </trkpt>
      <trkpt lat="41.614099040" lon="2.500560910">
        <ele>339.00</ele>
        <time>2015-05-17T06:07:09Z</time>
      </trkpt>
      <trkpt lat="41.614042040" lon="2.500454460">
        <ele>340.92</ele>
        <time>2015-05-17T06:07:17Z</time>
      </trkpt>
      <trkpt lat="41.614001050" lon="2.500372400">
        <ele>342.37</ele>
        <time>2015-05-17T06:07:23Z</time>
      </trkpt>
      <trkpt lat="41.613935670" lon="2.500262430">
        <ele>344.77</ele>
        <time>2015-05-17T06:07:32Z</time>
      </trkpt>
      <trkpt lat="41.613866940" lon="2.500146420">
        <ele>346.21</ele>
        <time>2015-05-17T06:07:41Z</time>
      </trkpt>
      <trkpt lat="41.613827880" lon="2.500048100">
        <ele>347.65</ele>
        <time>2015-05-17T06:07:49Z</time>
      </trkpt>
      <trkpt lat="41.613858810" lon="2.500008710">
        <ele>348.62</ele>
        <time>2015-05-17T06:07:53Z</time>
      </trkpt>
      <trkpt lat="41.613950930" lon="2.500112140">
        <ele>351.02</ele>
        <time>2015-05-17T06:08:04Z</time>
      </trkpt>
      <trkpt lat="41.614049330" lon="2.500193950">
        <ele>352.46</ele>
        <time>2015-05-17T06:08:13Z</time>
      </trkpt>
      <trkpt lat="41.614150330" lon="2.500248010">
        <ele>354.38</ele>
        <time>2015-05-17T06:08:21Z</time>
      </trkpt>
      <trkpt lat="41.614266420" lon="2.500288830">
        <ele>355.83</ele>
        <time>2015-05-17T06:08:31Z</time>
      </trkpt>
      <trkpt lat="41.614366750" lon="2.500360830">
        <ele>357.75</ele>
        <time>2015-05-17T06:08:41Z</time>
      </trkpt>
      <trkpt lat="41.614469180" lon="2.500446160">
        <ele>359.67</ele>
        <time>2015-05-17T06:08:50Z</time>
      </trkpt>
      <trkpt lat="41.614558700" lon="2.500530980">
        <ele>361.59</ele>
        <time>2015-05-17T06:08:59Z</time>
      </trkpt>
      <trkpt lat="41.614625080" lon="2.500589070">
        <ele>363.04</ele>
        <time>2015-05-17T06:09:06Z</time>
      </trkpt>
      <trkpt lat="41.614747540" lon="2.500570710">
        <ele>364.00</ele>
        <time>2015-05-17T06:09:15Z</time>
      </trkpt>
      <trkpt lat="41.614897750" lon="2.500514890">
        <ele>364.48</ele>
        <time>2015-05-17T06:09:25Z</time>
      </trkpt>
      <trkpt lat="41.614918120" lon="2.500511370">
        <ele>364.48</ele>
        <time>2015-05-17T06:09:26Z</time>
      </trkpt>
      <trkpt lat="41.615067650" lon="2.500628880">
        <ele>364.96</ele>
        <time>2015-05-17T06:09:34Z</time>
      </trkpt>
      <trkpt lat="41.615218360" lon="2.500611280">
        <ele>366.40</ele>
        <time>2015-05-17T06:09:42Z</time>
      </trkpt>
      <trkpt lat="41.615360680" lon="2.500504750">
        <ele>367.36</ele>
        <time>2015-05-17T06:09:51Z</time>
      </trkpt>
      <trkpt lat="41.615497050" lon="2.500445240">
        <ele>368.32</ele>
        <time>2015-05-17T06:09:59Z</time>
      </trkpt>
      <trkpt lat="41.615608280" lon="2.500472480">
        <ele>368.80</ele>
        <time>2015-05-17T06:10:06Z</time>
      </trkpt>
      <trkpt lat="41.615748010" lon="2.500430320">
        <ele>371.21</ele>
        <time>2015-05-17T06:10:16Z</time>
      </trkpt>
      <trkpt lat="41.615749430" lon="2.500276340">
        <ele>373.13</ele>
        <time>2015-05-17T06:10:25Z</time>
      </trkpt>
      <trkpt lat="41.615658070" lon="2.500252030">
        <ele>375.53</ele>
        <time>2015-05-17T06:10:33Z</time>
      </trkpt>
      <trkpt lat="41.615525130" lon="2.500271900">
        <ele>377.94</ele>
        <time>2015-05-17T06:10:43Z</time>
      </trkpt>
      <trkpt lat="41.615416840" lon="2.500268880">
        <ele>379.38</ele>
        <time>2015-05-17T06:10:51Z</time>
      </trkpt>
      <trkpt lat="41.615310980" lon="2.500269380">
        <ele>380.82</ele>
        <time>2015-05-17T06:10:58Z</time>
      </trkpt>
      <trkpt lat="41.615274770" lon="2.500265190">
        <ele>381.30</ele>
        <time>2015-05-17T06:11:00Z</time>
      </trkpt>
      <trkpt lat="41.615211060" lon="2.500217670">
        <ele>382.26</ele>
        <time>2015-05-17T06:11:07Z</time>
      </trkpt>
      <trkpt lat="41.615194220" lon="2.500161680">
        <ele>382.26</ele>
        <time>2015-05-17T06:11:11Z</time>
      </trkpt>
      <trkpt lat="41.615173430" lon="2.500124800">
        <ele>382.74</ele>
        <time>2015-05-17T06:11:14Z</time>
      </trkpt>
      <trkpt lat="41.615084920" lon="2.500015920">
        <ele>383.70</ele>
        <time>2015-05-17T06:11:23Z</time>
      </trkpt>
      <trkpt lat="41.615051220" lon="2.499989930">
        <ele>384.66</ele>
        <time>2015-05-17T06:11:26Z</time>
      </trkpt>
      <trkpt lat="41.614916520" lon="2.499993280">
        <ele>386.11</ele>
        <time>2015-05-17T06:11:37Z</time>
      </trkpt>
      <trkpt lat="41.614812250" lon="2.499999570">
        <ele>388.03</ele>
        <time>2015-05-17T06:11:45Z</time>
      </trkpt>
      <trkpt lat="41.614734380" lon="2.499930000">
        <ele>389.95</ele>
        <time>2015-05-17T06:11:53Z</time>
      </trkpt>
      <trkpt lat="41.614677390" lon="2.499823970">
        <ele>391.87</ele>
        <time>2015-05-17T06:12:02Z</time>
      </trkpt>
      <trkpt lat="41.614637990" lon="2.499721460">
        <ele>393.80</ele>
        <time>2015-05-17T06:12:10Z</time>
      </trkpt>
      <trkpt lat="41.614589880" lon="2.499580390">
        <ele>395.72</ele>
        <time>2015-05-17T06:12:20Z</time>
      </trkpt>
      <trkpt lat="41.614579320" lon="2.499495900">
        <ele>397.16</ele>
        <time>2015-05-17T06:12:25Z</time>
      </trkpt>
      <trkpt lat="41.614579740" lon="2.499325160">
        <ele>399.57</ele>
        <time>2015-05-17T06:12:36Z</time>
      </trkpt>
      <trkpt lat="41.614612680" lon="2.499205640">
        <ele>400.53</ele>
        <time>2015-05-17T06:12:43Z</time>
      </trkpt>
      <trkpt lat="41.614634810" lon="2.499131960">
        <ele>401.01</ele>
        <time>2015-05-17T06:12:47Z</time>
      </trkpt>
      <trkpt lat="41.614672690" lon="2.498959210">
        <ele>402.45</ele>
        <time>2015-05-17T06:12:57Z</time>
      </trkpt>
      <trkpt lat="41.614679400" lon="2.498782430">
        <ele>403.89</ele>
        <time>2015-05-17T06:13:07Z</time>
      </trkpt>
      <trkpt lat="41.614695830" lon="2.498608430">
        <ele>404.85</ele>
        <time>2015-05-17T06:13:17Z</time>
      </trkpt>
      <trkpt lat="41.614711000" lon="2.498460570">
        <ele>406.29</ele>
        <time>2015-05-17T06:13:25Z</time>
      </trkpt>
      <trkpt lat="41.614718540" lon="2.498304500">
        <ele>407.26</ele>
        <time>2015-05-17T06:13:34Z</time>
      </trkpt>
      <trkpt lat="41.614715110" lon="2.498251440">
        <ele>407.74</ele>
        <time>2015-05-17T06:13:37Z</time>
      </trkpt>
      <trkpt lat="41.614720470" lon="2.498138620">
        <ele>408.70</ele>
        <time>2015-05-17T06:13:44Z</time>
      </trkpt>
      <trkpt lat="41.614718880" lon="2.498108110">
        <ele>409.18</ele>
        <time>2015-05-17T06:13:46Z</time>
      </trkpt>
      <trkpt lat="41.614708900" lon="2.497988080">
        <ele>410.14</ele>
        <time>2015-05-17T06:13:53Z</time>
      </trkpt>
      <trkpt lat="41.614628270" lon="2.497730840">
        <ele>410.14</ele>
        <time>2015-05-17T06:14:02Z</time>
      </trkpt>
      <trkpt lat="41.614566580" lon="2.497564210">
        <ele>407.74</ele>
        <time>2015-05-17T06:14:05Z</time>
      </trkpt>
      <trkpt lat="41.614395500" lon="2.497429600">
        <ele>405.81</ele>
        <time>2015-05-17T06:14:09Z</time>
      </trkpt>
      <trkpt lat="41.614245220" lon="2.497526660">
        <ele>405.33</ele>
        <time>2015-05-17T06:14:13Z</time>
      </trkpt>
      <trkpt lat="41.614150000" lon="2.497644000">
        <ele>407.26</ele>
        <time>2015-05-17T06:14:21Z</time>
      </trkpt>
      <trkpt lat="41.614024690" lon="2.497720200">
        <ele>409.66</ele>
        <time>2015-05-17T06:14:30Z</time>
      </trkpt>
      <trkpt lat="41.613930140" lon="2.497766040">
        <ele>410.62</ele>
        <time>2015-05-17T06:14:37Z</time>
      </trkpt>
      <trkpt lat="41.613801400" lon="2.497762610">
        <ele>412.06</ele>
        <time>2015-05-17T06:14:45Z</time>
      </trkpt>
      <trkpt lat="41.613719840" lon="2.497684990">
        <ele>413.02</ele>
        <time>2015-05-17T06:14:52Z</time>
      </trkpt>
      <trkpt lat="41.613638530" lon="2.497551470">
        <ele>413.98</ele>
        <time>2015-05-17T06:15:00Z</time>
      </trkpt>
      <trkpt lat="41.613530320" lon="2.497393970">
        <ele>414.95</ele>
        <time>2015-05-17T06:15:09Z</time>
      </trkpt>
      <trkpt lat="41.613407530" lon="2.497338060">
        <ele>415.91</ele>
        <time>2015-05-17T06:15:17Z</time>
      </trkpt>
      <trkpt lat="41.613296800" lon="2.497363550">
        <ele>416.39</ele>
        <time>2015-05-17T06:15:24Z</time>
      </trkpt>
      <trkpt lat="41.613192450" lon="2.497402690">
        <ele>417.83</ele>
        <time>2015-05-17T06:15:31Z</time>
      </trkpt>
      <trkpt lat="41.613049370" lon="2.497344850">
        <ele>419.27</ele>
        <time>2015-05-17T06:15:40Z</time>
      </trkpt>
      <trkpt lat="41.612967310" lon="2.497189450">
        <ele>420.23</ele>
        <time>2015-05-17T06:15:49Z</time>
      </trkpt>
      <trkpt lat="41.612900840" lon="2.497027010">
        <ele>421.68</ele>
        <time>2015-05-17T06:15:58Z</time>
      </trkpt>
      <trkpt lat="41.612825830" lon="2.496846130">
        <ele>423.60</ele>
        <time>2015-05-17T06:16:08Z</time>
      </trkpt>
      <trkpt lat="41.612776620" lon="2.496671700">
        <ele>425.04</ele>
        <time>2015-05-17T06:16:17Z</time>
      </trkpt>
      <trkpt lat="41.612723730" lon="2.496510100">
        <ele>426.00</ele>
        <time>2015-05-17T06:16:25Z</time>
      </trkpt>
      <trkpt lat="41.612655420" lon="2.496345310">
        <ele>427.92</ele>
        <time>2015-05-17T06:16:34Z</time>
      </trkpt>
      <trkpt lat="41.612614850" lon="2.496169630">
        <ele>428.40</ele>
        <time>2015-05-17T06:16:41Z</time>
      </trkpt>
      <trkpt lat="41.612594480" lon="2.496015150">
        <ele>429.37</ele>
        <time>2015-05-17T06:16:48Z</time>
      </trkpt>
      <trkpt lat="41.612588870" lon="2.495898810">
        <ele>430.81</ele>
        <time>2015-05-17T06:16:55Z</time>
      </trkpt>
      <trkpt lat="41.612636140" lon="2.495841140">
        <ele>431.77</ele>
        <time>2015-05-17T06:17:01Z</time>
      </trkpt>
      <trkpt lat="41.612695650" lon="2.495847930">
        <ele>432.25</ele>
        <time>2015-05-17T06:17:06Z</time>
      </trkpt>
      <trkpt lat="41.612824820" lon="2.495843490">
        <ele>432.73</ele>
        <time>2015-05-17T06:17:15Z</time>
      </trkpt>
      <trkpt lat="41.612941240" lon="2.495858070">
        <ele>434.17</ele>
        <time>2015-05-17T06:17:23Z</time>
      </trkpt>
      <trkpt lat="41.613092960" lon="2.495899310">
        <ele>435.13</ele>
        <time>2015-05-17T06:17:32Z</time>
      </trkpt>
      <trkpt lat="41.613230760" lon="2.495942140">
        <ele>436.10</ele>
        <time>2015-05-17T06:17:40Z</time>
      </trkpt>
      <trkpt lat="41.613418090" lon="2.495928480">
        <ele>437.06</ele>
        <time>2015-05-17T06:17:50Z</time>
      </trkpt>
      <trkpt lat="41.613561090" lon="2.495879950">
        <ele>437.54</ele>
        <time>2015-05-17T06:17:58Z</time>
      </trkpt>
      <trkpt lat="41.613734000" lon="2.495830830">
        <ele>438.50</ele>
        <time>2015-05-17T06:18:07Z</time>
      </trkpt>
      <trkpt lat="41.613906500" lon="2.495770310">
        <ele>439.46</ele>
        <time>2015-05-17T06:18:16Z</time>
      </trkpt>
      <trkpt lat="41.614093760" lon="2.495708040">
        <ele>440.42</ele>
        <time>2015-05-17T06:18:26Z</time>
      </trkpt>
      <trkpt lat="41.614235660" lon="2.495674260">
        <ele>441.38</ele>
        <time>2015-05-17T06:18:34Z</time>
      </trkpt>
      <trkpt lat="41.614405480" lon="2.495665200">
        <ele>443.31</ele>
        <time>2015-05-17T06:18:44Z</time>
      </trkpt>
      <trkpt lat="41.614558530" lon="2.495651880">
        <ele>444.75</ele>
        <time>2015-05-17T06:18:53Z</time>
      </trkpt>
      <trkpt lat="41.614655090" lon="2.495609720">
        <ele>445.71</ele>
        <time>2015-05-17T06:18:59Z</time>
      </trkpt>
      <trkpt lat="41.614773030" lon="2.495538130">
        <ele>447.15</ele>
        <time>2015-05-17T06:19:07Z</time>
      </trkpt>
      <trkpt lat="41.614897410" lon="2.495467140">
        <ele>449.07</ele>
        <time>2015-05-17T06:19:15Z</time>
      </trkpt>
      <trkpt lat="41.615064630" lon="2.495424140">
        <ele>451.00</ele>
        <time>2015-05-17T06:19:24Z</time>
      </trkpt>
      <trkpt lat="41.615159850" lon="2.495508550">
        <ele>451.96</ele>
        <time>2015-05-17T06:19:31Z</time>
      </trkpt>
      <trkpt lat="41.615216340" lon="2.495597390">
        <ele>453.40</ele>
        <time>2015-05-17T06:19:37Z</time>
      </trkpt>
      <trkpt lat="41.615315590" lon="2.495740390">
        <ele>455.80</ele>
        <time>2015-05-17T06:19:47Z</time>
      </trkpt>
      <trkpt lat="41.615399990" lon="2.495903670">
        <ele>457.24</ele>
        <time>2015-05-17T06:19:57Z</time>
      </trkpt>
      <trkpt lat="41.615471410" lon="2.496119760">
        <ele>459.17</ele>
        <time>2015-05-17T06:20:08Z</time>
      </trkpt>
      <trkpt lat="41.615542480" lon="2.496349590">
        <ele>460.61</ele>
        <time>2015-05-17T06:20:19Z</time>
      </trkpt>
      <trkpt lat="41.615629150" lon="2.496510020">
        <ele>462.53</ele>
        <time>2015-05-17T06:20:28Z</time>
      </trkpt>
      <trkpt lat="41.615703330" lon="2.496654600">
        <ele>463.97</ele>
        <time>2015-05-17T06:20:36Z</time>
      </trkpt>
      <trkpt lat="41.615814310" lon="2.496810680">
        <ele>465.90</ele>
        <time>2015-05-17T06:20:45Z</time>
      </trkpt>
      <trkpt lat="41.615922940" lon="2.496845540">
        <ele>466.38</ele>
        <time>2015-05-17T06:20:52Z</time>
      </trkpt>
      <trkpt lat="41.616076910" lon="2.496764990">
        <ele>468.78</ele>
        <time>2015-05-17T06:21:02Z</time>
      </trkpt>
      <trkpt lat="41.616205830" lon="2.496631300">
        <ele>470.70</ele>
        <time>2015-05-17T06:21:12Z</time>
      </trkpt>
      <trkpt lat="41.616289140" lon="2.496489900">
        <ele>471.66</ele>
        <time>2015-05-17T06:21:19Z</time>
      </trkpt>
      <trkpt lat="41.616353350" lon="2.496257970">
        <ele>473.11</ele>
        <time>2015-05-17T06:21:30Z</time>
      </trkpt>
      <trkpt lat="41.616373550" lon="2.496018330">
        <ele>475.03</ele>
        <time>2015-05-17T06:21:40Z</time>
      </trkpt>
      <trkpt lat="41.616370780" lon="2.495777100">
        <ele>477.91</ele>
        <time>2015-05-17T06:21:51Z</time>
      </trkpt>
      <trkpt lat="41.616402470" lon="2.495570320">
        <ele>480.32</ele>
        <time>2015-05-17T06:22:01Z</time>
      </trkpt>
      <trkpt lat="41.616515870" lon="2.495481810">
        <ele>481.28</ele>
        <time>2015-05-17T06:22:08Z</time>
      </trkpt>
      <trkpt lat="41.616697430" lon="2.495515250">
        <ele>481.28</ele>
        <time>2015-05-17T06:22:17Z</time>
      </trkpt>
      <trkpt lat="41.616882750" lon="2.495584650">
        <ele>481.76</ele>
        <time>2015-05-17T06:22:26Z</time>
      </trkpt>
      <trkpt lat="41.617073190" lon="2.495656490">
        <ele>482.24</ele>
        <time>2015-05-17T06:22:35Z</time>
      </trkpt>
      <trkpt lat="41.617283660" lon="2.495698980">
        <ele>483.20</ele>
        <time>2015-05-17T06:22:46Z</time>
      </trkpt>
      <trkpt lat="41.617425810" lon="2.495680040">
        <ele>483.68</ele>
        <time>2015-05-17T06:22:53Z</time>
      </trkpt>
      <trkpt lat="41.617564530" lon="2.495682550">
        <ele>484.64</ele>
        <time>2015-05-17T06:23:01Z</time>
      </trkpt>
      <trkpt lat="41.617718430" lon="2.495686910">
        <ele>485.60</ele>
        <time>2015-05-17T06:23:10Z</time>
      </trkpt>
      <trkpt lat="41.617754220" lon="2.495687920">
        <ele>486.08</ele>
        <time>2015-05-17T06:23:12Z</time>
      </trkpt>
      <trkpt lat="41.617873320" lon="2.495727230">
        <ele>487.05</ele>
        <time>2015-05-17T06:23:19Z</time>
      </trkpt>
      <trkpt lat="41.617999470" lon="2.495779700">
        <ele>488.01</ele>
        <time>2015-05-17T06:23:27Z</time>
      </trkpt>
      <trkpt lat="41.618184880" lon="2.495816250">
        <ele>489.93</ele>
        <time>2015-05-17T06:23:37Z</time>
      </trkpt>
      <trkpt lat="41.618354030" lon="2.495805430">
        <ele>491.85</ele>
        <time>2015-05-17T06:23:47Z</time>
      </trkpt>
      <trkpt lat="41.618499370" lon="2.495677440">
        <ele>492.81</ele>
        <time>2015-05-17T06:23:55Z</time>
      </trkpt>
      <trkpt lat="41.618575480" lon="2.495595890">
        <ele>493.77</ele>
        <time>2015-05-17T06:24:00Z</time>
      </trkpt>
      <trkpt lat="41.618640100" lon="2.495517930">
        <ele>494.26</ele>
        <time>2015-05-17T06:24:04Z</time>
      </trkpt>
      <trkpt lat="41.618778230" lon="2.495350630">
        <ele>495.22</ele>
        <time>2015-05-17T06:24:12Z</time>
      </trkpt>
      <trkpt lat="41.618914690" lon="2.495180900">
        <ele>495.70</ele>
        <time>2015-05-17T06:24:20Z</time>
      </trkpt>
      <trkpt lat="41.619076800" lon="2.495100100">
        <ele>496.18</ele>
        <time>2015-05-17T06:24:28Z</time>
      </trkpt>
      <trkpt lat="41.619196410" lon="2.495105960">
        <ele>496.66</ele>
        <time>2015-05-17T06:24:34Z</time>
      </trkpt>
      <trkpt lat="41.619366980" lon="2.495167240">
        <ele>497.14</ele>
        <time>2015-05-17T06:24:42Z</time>
      </trkpt>
      <trkpt lat="41.619490110" lon="2.495231610">
        <ele>497.62</ele>
        <time>2015-05-17T06:24:48Z</time>
      </trkpt>
      <trkpt lat="41.619644250" lon="2.495339740">
        <ele>498.10</ele>
        <time>2015-05-17T06:24:56Z</time>
      </trkpt>
      <trkpt lat="41.619784730" lon="2.495379130">
        <ele>499.06</ele>
        <time>2015-05-17T06:25:03Z</time>
      </trkpt>
      <trkpt lat="41.619904680" lon="2.495317860">
        <ele>500.02</ele>
        <time>2015-05-17T06:25:09Z</time>
      </trkpt>
      <trkpt lat="41.619999230" lon="2.495232530">
        <ele>500.50</ele>
        <time>2015-05-17T06:25:15Z</time>
      </trkpt>
      <trkpt lat="41.620159910" lon="2.495084760">
        <ele>501.95</ele>
        <time>2015-05-17T06:25:25Z</time>
      </trkpt>
      <trkpt lat="41.620175750" lon="2.495072940">
        <ele>501.95</ele>
        <time>2015-05-17T06:25:26Z</time>
      </trkpt>
      <trkpt lat="41.620305920" lon="2.494882170">
        <ele>503.87</ele>
        <time>2015-05-17T06:25:36Z</time>
      </trkpt>
      <trkpt lat="41.620420500" lon="2.494826680">
        <ele>505.31</ele>
        <time>2015-05-17T06:25:44Z</time>
      </trkpt>
      <trkpt lat="41.620551930" lon="2.494916950">
        <ele>506.75</ele>
        <time>2015-05-17T06:25:52Z</time>
      </trkpt>
      <trkpt lat="41.620706660" lon="2.495054160">
        <ele>508.67</ele>
        <time>2015-05-17T06:26:02Z</time>
      </trkpt>
      <trkpt lat="41.620851080" lon="2.495175030">
        <ele>510.12</ele>
        <time>2015-05-17T06:26:11Z</time>
      </trkpt>
      <trkpt lat="41.620980160" lon="2.495266140">
        <ele>511.08</ele>
        <time>2015-05-17T06:26:19Z</time>
      </trkpt>
      <trkpt lat="41.621080580" lon="2.495275110">
        <ele>512.04</ele>
        <time>2015-05-17T06:26:24Z</time>
      </trkpt>
      <trkpt lat="41.621193140" lon="2.495114260">
        <ele>512.52</ele>
        <time>2015-05-17T06:26:32Z</time>
      </trkpt>
      <trkpt lat="41.621268660" lon="2.494907820">
        <ele>513.00</ele>
        <time>2015-05-17T06:26:40Z</time>
      </trkpt>
      <trkpt lat="41.621411410" lon="2.494731130">
        <ele>513.48</ele>
        <time>2015-05-17T06:26:48Z</time>
      </trkpt>
      <trkpt lat="41.621434630" lon="2.494552340">
        <ele>513.48</ele>
        <time>2015-05-17T06:26:54Z</time>
      </trkpt>
      <trkpt lat="41.621411320" lon="2.494277660">
        <ele>513.96</ele>
        <time>2015-05-17T06:27:01Z</time>
      </trkpt>
      <trkpt lat="41.621436550" lon="2.494047580">
        <ele>513.96</ele>
        <time>2015-05-17T06:27:07Z</time>
      </trkpt>
      <trkpt lat="41.621556580" lon="2.493907850">
        <ele>513.96</ele>
        <time>2015-05-17T06:27:13Z</time>
      </trkpt>
      <trkpt lat="41.621701840" lon="2.493751360">
        <ele>513.96</ele>
        <time>2015-05-17T06:27:18Z</time>
      </trkpt>
      <trkpt lat="41.621847180" lon="2.493631750">
        <ele>513.96</ele>
        <time>2015-05-17T06:27:22Z</time>
      </trkpt>
      <trkpt lat="41.621931420" lon="2.493598900">
        <ele>512.52</ele>
        <time>2015-05-17T06:27:24Z</time>
      </trkpt>
      <trkpt lat="41.622063020" lon="2.493711300">
        <ele>512.04</ele>
        <time>2015-05-17T06:27:28Z</time>
      </trkpt>
      <trkpt lat="41.622133590" lon="2.493843400">
        <ele>512.04</ele>
        <time>2015-05-17T06:27:31Z</time>
      </trkpt>
      <trkpt lat="41.622322520" lon="2.493978260">
        <ele>511.56</ele>
        <time>2015-05-17T06:27:36Z</time>
      </trkpt>
      <trkpt lat="41.622563670" lon="2.493973230">
        <ele>511.56</ele>
        <time>2015-05-17T06:27:43Z</time>
      </trkpt>
      <trkpt lat="41.622739270" lon="2.494068280">
        <ele>511.08</ele>
        <time>2015-05-17T06:27:48Z</time>
      </trkpt>
      <trkpt lat="41.622895420" lon="2.494238350">
        <ele>510.60</ele>
        <time>2015-05-17T06:27:53Z</time>
      </trkpt>
      <trkpt lat="41.623057700" lon="2.494512110">
        <ele>510.60</ele>
        <time>2015-05-17T06:28:00Z</time>
      </trkpt>
      <trkpt lat="41.623150990" lon="2.494814610">
        <ele>510.60</ele>
        <time>2015-05-17T06:28:08Z</time>
      </trkpt>
      <trkpt lat="41.623197760" lon="2.495212580">
        <ele>510.60</ele>
        <time>2015-05-17T06:28:17Z</time>
      </trkpt>
      <trkpt lat="41.623134560" lon="2.495430590">
        <ele>512.04</ele>
        <time>2015-05-17T06:28:24Z</time>
      </trkpt>
      <trkpt lat="41.623092990" lon="2.495670070">
        <ele>512.52</ele>
        <time>2015-05-17T06:28:31Z</time>
      </trkpt>
      <trkpt lat="41.623102210" lon="2.495701670">
        <ele>512.52</ele>
        <time>2015-05-17T06:28:32Z</time>
      </trkpt>
      <trkpt lat="41.623263390" lon="2.495908280">
        <ele>513.48</ele>
        <time>2015-05-17T06:28:41Z</time>
      </trkpt>
      <trkpt lat="41.623338410" lon="2.496068210">
        <ele>513.96</ele>
        <time>2015-05-17T06:28:47Z</time>
      </trkpt>
      <trkpt lat="41.623457350" lon="2.496321590">
        <ele>514.92</ele>
        <time>2015-05-17T06:28:56Z</time>
      </trkpt>
      <trkpt lat="41.623584080" lon="2.496418990">
        <ele>515.40</ele>
        <time>2015-05-17T06:29:02Z</time>
      </trkpt>
      <trkpt lat="41.623759520" lon="2.496440700">
        <ele>515.40</ele>
        <time>2015-05-17T06:29:09Z</time>
      </trkpt>
      <trkpt lat="41.623946180" lon="2.496356880">
        <ele>515.40</ele>
        <time>2015-05-17T06:29:15Z</time>
      </trkpt>
      <trkpt lat="41.624013400" lon="2.496300640">
        <ele>513.48</ele>
        <time>2015-05-17T06:29:17Z</time>
      </trkpt>
      <trkpt lat="41.624211970" lon="2.495999220">
        <ele>512.04</ele>
        <time>2015-05-17T06:29:23Z</time>
      </trkpt>
      <trkpt lat="41.624268460" lon="2.495675010">
        <ele>511.08</ele>
        <time>2015-05-17T06:29:28Z</time>
      </trkpt>
      <trkpt lat="41.624249940" lon="2.495162370">
        <ele>509.64</ele>
        <time>2015-05-17T06:29:36Z</time>
      </trkpt>
      <trkpt lat="41.624229150" lon="2.495023400">
        <ele>509.64</ele>
        <time>2015-05-17T06:29:38Z</time>
      </trkpt>
      <trkpt lat="41.624280370" lon="2.494660130">
        <ele>508.67</ele>
        <time>2015-05-17T06:29:44Z</time>
      </trkpt>
      <trkpt lat="41.624299810" lon="2.494609760">
        <ele>508.19</ele>
        <time>2015-05-17T06:29:45Z</time>
      </trkpt>
      <trkpt lat="41.624304090" lon="2.494353100">
        <ele>508.19</ele>
        <time>2015-05-17T06:29:50Z</time>
      </trkpt>
      <trkpt lat="41.624221110" lon="2.494069040">
        <ele>508.19</ele>
        <time>2015-05-17T06:29:56Z</time>
      </trkpt>
      <trkpt lat="41.624164440" lon="2.493775420">
        <ele>508.19</ele>
        <time>2015-05-17T06:30:02Z</time>
      </trkpt>
      <trkpt lat="41.624116170" lon="2.493395970">
        <ele>507.71</ele>
        <time>2015-05-17T06:30:10Z</time>
      </trkpt>
      <trkpt lat="41.624098060" lon="2.493075110">
        <ele>507.71</ele>
        <time>2015-05-17T06:30:18Z</time>
      </trkpt>
      <trkpt lat="41.624074170" lon="2.492840670">
        <ele>507.71</ele>
        <time>2015-05-17T06:30:23Z</time>
      </trkpt>
      <trkpt lat="41.624195370" lon="2.492482510">
        <ele>507.23</ele>
        <time>2015-05-17T06:30:29Z</time>
      </trkpt>
      <trkpt lat="41.624278860" lon="2.492166010">
        <ele>507.23</ele>
        <time>2015-05-17T06:30:36Z</time>
      </trkpt>
      <trkpt lat="41.624317160" lon="2.491848670">
        <ele>508.67</ele>
        <time>2015-05-17T06:30:45Z</time>
      </trkpt>
      <trkpt lat="41.624337030" lon="2.491562510">
        <ele>508.67</ele>
        <time>2015-05-17T06:30:51Z</time>
      </trkpt>
      <trkpt lat="41.624357060" lon="2.491246350">
        <ele>509.16</ele>
        <time>2015-05-17T06:30:59Z</time>
      </trkpt>
      <trkpt lat="41.624416570" lon="2.490966060">
        <ele>511.08</ele>
        <time>2015-05-17T06:31:08Z</time>
      </trkpt>
      <trkpt lat="41.624450100" lon="2.490855000">
        <ele>511.56</ele>
        <time>2015-05-17T06:31:12Z</time>
      </trkpt>
      <trkpt lat="41.624575490" lon="2.490595160">
        <ele>512.04</ele>
        <time>2015-05-17T06:31:21Z</time>
      </trkpt>
      <trkpt lat="41.624728970" lon="2.490299280">
        <ele>512.04</ele>
        <time>2015-05-17T06:31:29Z</time>
      </trkpt>
      <trkpt lat="41.624933570" lon="2.490019820">
        <ele>512.04</ele>
        <time>2015-05-17T06:31:38Z</time>
      </trkpt>
      <trkpt lat="41.624958630" lon="2.489964840">
        <ele>512.04</ele>
        <time>2015-05-17T06:31:41Z</time>
      </trkpt>
      <trkpt lat="41.625018640" lon="2.489757720">
        <ele>510.60</ele>
        <time>2015-05-17T06:31:49Z</time>
      </trkpt>
      <trkpt lat="41.625052090" lon="2.489593100">
        <ele>510.60</ele>
        <time>2015-05-17T06:31:55Z</time>
      </trkpt>
      <trkpt lat="41.625107410" lon="2.489351950">
        <ele>510.60</ele>
        <time>2015-05-17T06:32:02Z</time>
      </trkpt>
      <trkpt lat="41.625131630" lon="2.489155900">
        <ele>510.60</ele>
        <time>2015-05-17T06:32:08Z</time>
      </trkpt>
      <trkpt lat="41.625207740" lon="2.488885330">
        <ele>512.04</ele>
        <time>2015-05-17T06:32:15Z</time>
      </trkpt>
      <trkpt lat="41.625245960" lon="2.488666820">
        <ele>512.52</ele>
        <time>2015-05-17T06:32:20Z</time>
      </trkpt>
      <trkpt lat="41.625248480" lon="2.488446210">
        <ele>513.00</ele>
        <time>2015-05-17T06:32:25Z</time>
      </trkpt>
      <trkpt lat="41.625224340" lon="2.488176230">
        <ele>513.48</ele>
        <time>2015-05-17T06:32:32Z</time>
      </trkpt>
      <trkpt lat="41.625200530" lon="2.488128700">
        <ele>513.96</ele>
        <time>2015-05-17T06:32:34Z</time>
      </trkpt>
      <trkpt lat="41.625063820" lon="2.488132560">
        <ele>514.92</ele>
        <time>2015-05-17T06:32:40Z</time>
      </trkpt>
      <trkpt lat="41.625034490" lon="2.488152500">
        <ele>514.92</ele>
        <time>2015-05-17T06:32:41Z</time>
      </trkpt>
      <trkpt lat="41.624952260" lon="2.488219980">
        <ele>514.92</ele>
        <time>2015-05-17T06:32:44Z</time>
      </trkpt>
      <trkpt lat="41.624830140" lon="2.488249820">
        <ele>514.92</ele>
        <time>2015-05-17T06:32:48Z</time>
      </trkpt>
      <trkpt lat="41.624630230" lon="2.488212850">
        <ele>514.92</ele>
        <time>2015-05-17T06:32:55Z</time>
      </trkpt>
      <trkpt lat="41.624493770" lon="2.488180080">
        <ele>516.37</ele>
        <time>2015-05-17T06:33:01Z</time>
      </trkpt>
      <trkpt lat="41.624292940" lon="2.488181000">
        <ele>517.33</ele>
        <time>2015-05-17T06:33:09Z</time>
      </trkpt>
      <trkpt lat="41.624247170" lon="2.488189550">
        <ele>517.81</ele>
        <time>2015-05-17T06:33:11Z</time>
      </trkpt>
      <trkpt lat="41.624100070" lon="2.488178570">
        <ele>518.77</ele>
        <time>2015-05-17T06:33:18Z</time>
      </trkpt>
      <trkpt lat="41.623989180" lon="2.488187620">
        <ele>520.21</ele>
        <time>2015-05-17T06:33:24Z</time>
      </trkpt>
      <trkpt lat="41.623838980" lon="2.488188710">
        <ele>520.69</ele>
        <time>2015-05-17T06:33:31Z</time>
      </trkpt>
      <trkpt lat="41.623699670" lon="2.488217130">
        <ele>522.61</ele>
        <time>2015-05-17T06:33:38Z</time>
      </trkpt>
      <trkpt lat="41.623572680" lon="2.488301280">
        <ele>525.50</ele>
        <time>2015-05-17T06:33:46Z</time>
      </trkpt>
      <trkpt lat="41.623511240" lon="2.488343780">
        <ele>525.98</ele>
        <time>2015-05-17T06:33:49Z</time>
      </trkpt>
      <trkpt lat="41.623394400" lon="2.488428020">
        <ele>526.94</ele>
        <time>2015-05-17T06:33:55Z</time>
      </trkpt>
      <trkpt lat="41.623257360" lon="2.488508480">
        <ele>529.34</ele>
        <time>2015-05-17T06:34:03Z</time>
      </trkpt>
      <trkpt lat="41.623104470" lon="2.488523320">
        <ele>527.90</ele>
        <time>2015-05-17T06:34:09Z</time>
      </trkpt>
      <trkpt lat="41.622954520" lon="2.488454500">
        <ele>525.50</ele>
        <time>2015-05-17T06:34:14Z</time>
      </trkpt>
      <trkpt lat="41.622804730" lon="2.488456520">
        <ele>522.61</ele>
        <time>2015-05-17T06:34:18Z</time>
      </trkpt>
      <trkpt lat="41.622771290" lon="2.488429360">
        <ele>522.61</ele>
        <time>2015-05-17T06:34:19Z</time>
      </trkpt>
      <trkpt lat="41.622712030" lon="2.488345040">
        <ele>520.69</ele>
        <time>2015-05-17T06:34:21Z</time>
      </trkpt>
      <trkpt lat="41.622604660" lon="2.488192150">
        <ele>518.77</ele>
        <time>2015-05-17T06:34:24Z</time>
      </trkpt>
      <trkpt lat="41.622497620" lon="2.488087290">
        <ele>516.37</ele>
        <time>2015-05-17T06:34:27Z</time>
      </trkpt>
      <trkpt lat="41.622364510" lon="2.487987130">
        <ele>515.40</ele>
        <time>2015-05-17T06:34:30Z</time>
      </trkpt>
      <trkpt lat="41.622340290" lon="2.487851760">
        <ele>514.44</ele>
        <time>2015-05-17T06:34:34Z</time>
      </trkpt>
      <trkpt lat="41.622354460" lon="2.487839940">
        <ele>514.44</ele>
        <time>2015-05-17T06:34:35Z</time>
      </trkpt>
      <trkpt lat="41.622468120" lon="2.487760480">
        <ele>513.96</ele>
        <time>2015-05-17T06:34:42Z</time>
      </trkpt>
      <trkpt lat="41.622487650" lon="2.487742210">
        <ele>513.96</ele>
        <time>2015-05-17T06:34:44Z</time>
      </trkpt>
      <trkpt lat="41.622551430" lon="2.487653530">
        <ele>513.96</ele>
        <time>2015-05-17T06:34:52Z</time>
      </trkpt>
      <trkpt lat="41.622617150" lon="2.487547160">
        <ele>515.40</ele>
        <time>2015-05-17T06:34:59Z</time>
      </trkpt>
      <trkpt lat="41.622682780" lon="2.487424620">
        <ele>516.85</ele>
        <time>2015-05-17T06:35:08Z</time>
      </trkpt>
      <trkpt lat="41.622741620" lon="2.487300650">
        <ele>517.81</ele>
        <time>2015-05-17T06:35:15Z</time>
      </trkpt>
      <trkpt lat="41.622817050" lon="2.487136030">
        <ele>519.25</ele>
        <time>2015-05-17T06:35:23Z</time>
      </trkpt>
      <trkpt lat="41.622881010" lon="2.486955820">
        <ele>521.65</ele>
        <time>2015-05-17T06:35:31Z</time>
      </trkpt>
      <trkpt lat="41.622950070" lon="2.486793300">
        <ele>521.65</ele>
        <time>2015-05-17T06:35:37Z</time>
      </trkpt>
      <trkpt lat="41.623009330" lon="2.486731600">
        <ele>520.21</ele>
        <time>2015-05-17T06:35:40Z</time>
      </trkpt>
      <trkpt lat="41.623152250" lon="2.486718110">
        <ele>518.29</ele>
        <time>2015-05-17T06:35:48Z</time>
      </trkpt>
      <trkpt lat="41.623292890" lon="2.486645610">
        <ele>516.85</ele>
        <time>2015-05-17T06:35:54Z</time>
      </trkpt>
      <trkpt lat="41.623458770" lon="2.486550470">
        <ele>515.40</ele>
        <time>2015-05-17T06:35:59Z</time>
      </trkpt>
      <trkpt lat="41.623530940" lon="2.486460700">
        <ele>514.92</ele>
        <time>2015-05-17T06:36:01Z</time>
      </trkpt>
      <trkpt lat="41.623746440" lon="2.486289540">
        <ele>513.48</ele>
        <time>2015-05-17T06:36:06Z</time>
      </trkpt>
      <trkpt lat="41.623854480" lon="2.486249140">
        <ele>512.52</ele>
        <time>2015-05-17T06:36:08Z</time>
      </trkpt>
      <trkpt lat="41.623969820" lon="2.486201780">
        <ele>511.08</ele>
        <time>2015-05-17T06:36:10Z</time>
      </trkpt>
      <trkpt lat="41.624152290" lon="2.486149310">
        <ele>509.16</ele>
        <time>2015-05-17T06:36:13Z</time>
      </trkpt>
      <trkpt lat="41.624257060" lon="2.485978570">
        <ele>506.75</ele>
        <time>2015-05-17T06:36:17Z</time>
      </trkpt>
      <trkpt lat="41.624188580" lon="2.485810010">
        <ele>505.79</ele>
        <time>2015-05-17T06:36:20Z</time>
      </trkpt>
      <trkpt lat="41.624123210" lon="2.485724690">
        <ele>503.87</ele>
        <time>2015-05-17T06:36:22Z</time>
      </trkpt>
      <trkpt lat="41.623948610" lon="2.485383380">
        <ele>500.98</ele>
        <time>2015-05-17T06:36:27Z</time>
      </trkpt>
      <trkpt lat="41.623877450" lon="2.485261840">
        <ele>499.54</ele>
        <time>2015-05-17T06:36:29Z</time>
      </trkpt>
      <trkpt lat="41.623915420" lon="2.485041310">
        <ele>498.58</ele>
        <time>2015-05-17T06:36:33Z</time>
      </trkpt>
      <trkpt lat="41.624064530" lon="2.484874430">
        <ele>497.62</ele>
        <time>2015-05-17T06:36:37Z</time>
      </trkpt>
      <trkpt lat="41.624097220" lon="2.484533110">
        <ele>495.70</ele>
        <time>2015-05-17T06:36:43Z</time>
      </trkpt>
      <trkpt lat="41.623924050" lon="2.484408390">
        <ele>495.22</ele>
        <time>2015-05-17T06:36:47Z</time>
      </trkpt>
      <trkpt lat="41.623719870" lon="2.484340330">
        <ele>494.26</ele>
        <time>2015-05-17T06:36:51Z</time>
      </trkpt>
      <trkpt lat="41.623499010" lon="2.484337150">
        <ele>493.77</ele>
        <time>2015-05-17T06:36:56Z</time>
      </trkpt>
      <trkpt lat="41.623403870" lon="2.484325410">
        <ele>493.29</ele>
        <time>2015-05-17T06:36:58Z</time>
      </trkpt>
      <trkpt lat="41.623265820" lon="2.484287780">
        <ele>493.77</ele>
        <time>2015-05-17T06:37:01Z</time>
      </trkpt>
      <trkpt lat="41.623176470" lon="2.484133880">
        <ele>493.29</ele>
        <time>2015-05-17T06:37:05Z</time>
      </trkpt>
      <trkpt lat="41.623190300" lon="2.484051830">
        <ele>493.29</ele>
        <time>2015-05-17T06:37:07Z</time>
      </trkpt>
      <trkpt lat="41.623271690" lon="2.483773710">
        <ele>493.29</ele>
        <time>2015-05-17T06:37:16Z</time>
      </trkpt>
      <trkpt lat="41.623284930" lon="2.483728960">
        <ele>494.74</ele>
        <time>2015-05-17T06:37:18Z</time>
      </trkpt>
      <trkpt lat="41.623336820" lon="2.483551850">
        <ele>496.18</ele>
        <time>2015-05-17T06:37:25Z</time>
      </trkpt>
      <trkpt lat="41.623335890" lon="2.483525950">
        <ele>496.18</ele>
        <time>2015-05-17T06:37:26Z</time>
      </trkpt>
      <trkpt lat="41.623178310" lon="2.483429470">
        <ele>496.66</ele>
        <time>2015-05-17T06:37:32Z</time>
      </trkpt>
      <trkpt lat="41.623141600" lon="2.483434830">
        <ele>496.66</ele>
        <time>2015-05-17T06:37:33Z</time>
      </trkpt>
      <trkpt lat="41.622878490" lon="2.483439530">
        <ele>497.62</ele>
        <time>2015-05-17T06:37:41Z</time>
      </trkpt>
      <trkpt lat="41.622647070" lon="2.483396280">
        <ele>499.06</ele>
        <time>2015-05-17T06:37:48Z</time>
      </trkpt>
      <trkpt lat="41.622609430" lon="2.483380520">
        <ele>499.06</ele>
        <time>2015-05-17T06:37:49Z</time>
      </trkpt>
      <trkpt lat="41.622438690" lon="2.483268370">
        <ele>498.10</ele>
        <time>2015-05-17T06:37:53Z</time>
      </trkpt>
      <trkpt lat="41.622258400" lon="2.482966200">
        <ele>495.22</ele>
        <time>2015-05-17T06:37:59Z</time>
      </trkpt>
      <trkpt lat="41.622243060" lon="2.482903090">
        <ele>495.22</ele>
        <time>2015-05-17T06:38:00Z</time>
      </trkpt>
      <trkpt lat="41.622202070" lon="2.482780540">
        <ele>495.22</ele>
        <time>2015-05-17T06:38:02Z</time>
      </trkpt>
      <trkpt lat="41.622096210" lon="2.482554480">
        <ele>494.74</ele>
        <time>2015-05-17T06:38:06Z</time>
      </trkpt>
      <trkpt lat="41.622084220" lon="2.482301600">
        <ele>494.26</ele>
        <time>2015-05-17T06:38:11Z</time>
      </trkpt>
      <trkpt lat="41.622092860" lon="2.482100690">
        <ele>495.70</ele>
        <time>2015-05-17T06:38:15Z</time>
      </trkpt>
      <trkpt lat="41.621959250" lon="2.481930700">
        <ele>496.18</ele>
        <time>2015-05-17T06:38:20Z</time>
      </trkpt>
      <trkpt lat="41.621802260" lon="2.481677150">
        <ele>496.18</ele>
        <time>2015-05-17T06:38:25Z</time>
      </trkpt>
      <trkpt lat="41.621736630" lon="2.481594250">
        <ele>494.74</ele>
        <time>2015-05-17T06:38:27Z</time>
      </trkpt>
      <trkpt lat="41.621718520" lon="2.481397360">
        <ele>493.29</ele>
        <time>2015-05-17T06:38:31Z</time>
      </trkpt>
      <trkpt lat="41.621810890" lon="2.481304410">
        <ele>491.85</ele>
        <time>2015-05-17T06:38:34Z</time>
      </trkpt>
      <trkpt lat="41.621889850" lon="2.481214470">
        <ele>491.37</ele>
        <time>2015-05-17T06:38:36Z</time>
      </trkpt>
      <trkpt lat="41.621916840" lon="2.481008610">
        <ele>489.45</ele>
        <time>2015-05-17T06:38:40Z</time>
      </trkpt>
      <trkpt lat="41.621890430" lon="2.480929570">
        <ele>489.45</ele>
        <time>2015-05-17T06:38:42Z</time>
      </trkpt>
      <trkpt lat="41.621945670" lon="2.480744330">
        <ele>488.97</ele>
        <time>2015-05-17T06:38:47Z</time>
      </trkpt>
      <trkpt lat="41.621835700" lon="2.480669560">
        <ele>488.97</ele>
        <time>2015-05-17T06:38:52Z</time>
      </trkpt>
      <trkpt lat="41.621776780" lon="2.480666380">
        <ele>490.41</ele>
        <time>2015-05-17T06:38:54Z</time>
      </trkpt>
      <trkpt lat="41.621606960" lon="2.480601420">
        <ele>490.89</ele>
        <time>2015-05-17T06:39:00Z</time>
      </trkpt>
      <trkpt lat="41.621422720" lon="2.480579620">
        <ele>492.81</ele>
        <time>2015-05-17T06:39:07Z</time>
      </trkpt>
      <trkpt lat="41.621259700" lon="2.480558330">
        <ele>494.74</ele>
        <time>2015-05-17T06:39:14Z</time>
      </trkpt>
      <trkpt lat="41.621095410" lon="2.480436630">
        <ele>496.66</ele>
        <time>2015-05-17T06:39:22Z</time>
      </trkpt>
      <trkpt lat="41.620907990" lon="2.480442660">
        <ele>497.14</ele>
        <time>2015-05-17T06:39:30Z</time>
      </trkpt>
      <trkpt lat="41.620760810" lon="2.480337550">
        <ele>497.14</ele>
        <time>2015-05-17T06:39:37Z</time>
      </trkpt>
      <trkpt lat="41.620670110" lon="2.480188020">
        <ele>497.14</ele>
        <time>2015-05-17T06:39:42Z</time>
      </trkpt>
      <trkpt lat="41.620583030" lon="2.479993980">
        <ele>497.62</ele>
        <time>2015-05-17T06:39:49Z</time>
      </trkpt>
      <trkpt lat="41.620454700" lon="2.479802960">
        <ele>497.62</ele>
        <time>2015-05-17T06:39:57Z</time>
      </trkpt>
      <trkpt lat="41.620241710" lon="2.479660300">
        <ele>495.22</ele>
        <time>2015-05-17T06:40:03Z</time>
      </trkpt>
      <trkpt lat="41.620186900" lon="2.479496350">
        <ele>493.29</ele>
        <time>2015-05-17T06:40:07Z</time>
      </trkpt>
      <trkpt lat="41.620327800" lon="2.479303810">
        <ele>491.37</ele>
        <time>2015-05-17T06:40:11Z</time>
      </trkpt>
      <trkpt lat="41.620330900" lon="2.478997450">
        <ele>490.89</ele>
        <time>2015-05-17T06:40:15Z</time>
      </trkpt>
      <trkpt lat="41.620297960" lon="2.478935430">
        <ele>490.89</ele>
        <time>2015-05-17T06:40:16Z</time>
      </trkpt>
      <trkpt lat="41.620138280" lon="2.478634020">
        <ele>490.89</ele>
        <time>2015-05-17T06:40:23Z</time>
      </trkpt>
      <trkpt lat="41.620153620" lon="2.478439050">
        <ele>490.89</ele>
        <time>2015-05-17T06:40:28Z</time>
      </trkpt>
      <trkpt lat="41.620196540" lon="2.478346010">
        <ele>490.89</ele>
        <time>2015-05-17T06:40:30Z</time>
      </trkpt>
      <trkpt lat="41.620259820" lon="2.477956000">
        <ele>490.89</ele>
        <time>2015-05-17T06:40:37Z</time>
      </trkpt>
      <trkpt lat="41.620393180" lon="2.477530370">
        <ele>491.85</ele>
        <time>2015-05-17T06:40:47Z</time>
      </trkpt>
      <trkpt lat="41.620378420" lon="2.477354350">
        <ele>492.33</ele>
        <time>2015-05-17T06:40:51Z</time>
      </trkpt>
      <trkpt lat="41.620201150" lon="2.477151680">
        <ele>493.77</ele>
        <time>2015-05-17T06:40:59Z</time>
      </trkpt>
      <trkpt lat="41.620006270" lon="2.476963420">
        <ele>493.77</ele>
        <time>2015-05-17T06:41:06Z</time>
      </trkpt>
      <trkpt lat="41.619977270" lon="2.476722020">
        <ele>493.77</ele>
        <time>2015-05-17T06:41:11Z</time>
      </trkpt>
      <trkpt lat="41.620061750" lon="2.476493190">
        <ele>493.77</ele>
        <time>2015-05-17T06:41:18Z</time>
      </trkpt>
      <trkpt lat="41.620047250" lon="2.476332180">
        <ele>494.74</ele>
        <time>2015-05-17T06:41:24Z</time>
      </trkpt>
      <trkpt lat="41.619951030" lon="2.476149700">
        <ele>495.70</ele>
        <time>2015-05-17T06:41:31Z</time>
      </trkpt>
      <trkpt lat="41.619791520" lon="2.476032190">
        <ele>497.62</ele>
        <time>2015-05-17T06:41:38Z</time>
      </trkpt>
      <trkpt lat="41.619603680" lon="2.475946690">
        <ele>499.54</ele>
        <time>2015-05-17T06:41:45Z</time>
      </trkpt>
      <trkpt lat="41.619509890" lon="2.475820880">
        <ele>500.50</ele>
        <time>2015-05-17T06:41:50Z</time>
      </trkpt>
      <trkpt lat="41.619592030" lon="2.475764300">
        <ele>501.46</ele>
        <time>2015-05-17T06:41:55Z</time>
      </trkpt>
      <trkpt lat="41.619614500" lon="2.475776960">
        <ele>501.46</ele>
        <time>2015-05-17T06:41:56Z</time>
      </trkpt>
      <trkpt lat="41.619766800" lon="2.475775530">
        <ele>502.91</ele>
        <time>2015-05-17T06:42:02Z</time>
      </trkpt>
      <trkpt lat="41.619906440" lon="2.475646710">
        <ele>504.83</ele>
        <time>2015-05-17T06:42:09Z</time>
      </trkpt>
      <trkpt lat="41.619962510" lon="2.475383600">
        <ele>505.79</ele>
        <time>2015-05-17T06:42:17Z</time>
      </trkpt>
      <trkpt lat="41.619949770" lon="2.475150920">
        <ele>505.79</ele>
        <time>2015-05-17T06:42:22Z</time>
      </trkpt>
      <trkpt lat="41.619980700" lon="2.474945310">
        <ele>503.39</ele>
        <time>2015-05-17T06:42:26Z</time>
      </trkpt>
      <trkpt lat="41.620073070" lon="2.474724780">
        <ele>502.43</ele>
        <time>2015-05-17T06:42:30Z</time>
      </trkpt>
      <trkpt lat="41.620080280" lon="2.474649430">
        <ele>501.95</ele>
        <time>2015-05-17T06:42:31Z</time>
      </trkpt>
      <trkpt lat="41.620093100" lon="2.474501900">
        <ele>501.95</ele>
        <time>2015-05-17T06:42:33Z</time>
      </trkpt>
      <trkpt lat="41.620199800" lon="2.474271150">
        <ele>501.46</ele>
        <time>2015-05-17T06:42:37Z</time>
      </trkpt>
      <trkpt lat="41.620334000" lon="2.474071490">
        <ele>501.46</ele>
        <time>2015-05-17T06:42:42Z</time>
      </trkpt>
      <trkpt lat="41.620260910" lon="2.473923470">
        <ele>501.46</ele>
        <time>2015-05-17T06:42:47Z</time>
      </trkpt>
      <trkpt lat="41.620191170" lon="2.473917180">
        <ele>501.46</ele>
        <time>2015-05-17T06:42:49Z</time>
      </trkpt>
      <trkpt lat="41.620006350" lon="2.473890610">
        <ele>500.50</ele>
        <time>2015-05-17T06:42:53Z</time>
      </trkpt>
      <trkpt lat="41.619823370" lon="2.473721970">
        <ele>499.06</ele>
        <time>2015-05-17T06:42:58Z</time>
      </trkpt>
      <trkpt lat="41.619705860" lon="2.473467070">
        <ele>498.58</ele>
        <time>2015-05-17T06:43:03Z</time>
      </trkpt>
      <trkpt lat="41.619671580" lon="2.473443520">
        <ele>498.58</ele>
        <time>2015-05-17T06:43:04Z</time>
      </trkpt>
      <trkpt lat="41.619423050" lon="2.473256440">
        <ele>500.02</ele>
        <time>2015-05-17T06:43:13Z</time>
      </trkpt>
      <trkpt lat="41.619288610" lon="2.473025770">
        <ele>500.98</ele>
        <time>2015-05-17T06:43:21Z</time>
      </trkpt>
      <trkpt lat="41.619280140" lon="2.472766680">
        <ele>500.98</ele>
        <time>2015-05-17T06:43:25Z</time>
      </trkpt>
      <trkpt lat="41.619270080" lon="2.472573650">
        <ele>499.54</ele>
        <time>2015-05-17T06:43:28Z</time>
      </trkpt>
      <trkpt lat="41.619254910" lon="2.472514890">
        <ele>499.54</ele>
        <time>2015-05-17T06:43:29Z</time>
      </trkpt>
      <trkpt lat="41.619127840" lon="2.472151030">
        <ele>499.54</ele>
        <time>2015-05-17T06:43:37Z</time>
      </trkpt>
      <trkpt lat="41.619055000" lon="2.471964870">
        <ele>499.54</ele>
        <time>2015-05-17T06:43:42Z</time>
      </trkpt>
      <trkpt lat="41.619058190" lon="2.471917930">
        <ele>499.54</ele>
        <time>2015-05-17T06:43:43Z</time>
      </trkpt>
      <trkpt lat="41.619206050" lon="2.471672680">
        <ele>498.58</ele>
        <time>2015-05-17T06:43:48Z</time>
      </trkpt>
      <trkpt lat="41.619284580" lon="2.471560690">
        <ele>498.10</ele>
        <time>2015-05-17T06:43:50Z</time>
      </trkpt>
      <trkpt lat="41.619377540" lon="2.471225840">
        <ele>497.14</ele>
        <time>2015-05-17T06:43:55Z</time>
      </trkpt>
      <trkpt lat="41.619441910" lon="2.470745810">
        <ele>496.18</ele>
        <time>2015-05-17T06:44:01Z</time>
      </trkpt>
      <trkpt lat="41.619327750" lon="2.470578250">
        <ele>496.18</ele>
        <time>2015-05-17T06:44:06Z</time>
      </trkpt>
      <trkpt lat="41.619196410" lon="2.470496360">
        <ele>497.62</ele>
        <time>2015-05-17T06:44:11Z</time>
      </trkpt>
      <trkpt lat="41.619160620" lon="2.470444480">
        <ele>498.10</ele>
        <time>2015-05-17T06:44:16Z</time>
      </trkpt>
      <trkpt lat="41.619165980" lon="2.470383790">
        <ele>498.10</ele>
        <time>2015-05-17T06:44:19Z</time>
      </trkpt>
      <trkpt lat="41.619149720" lon="2.470230400">
        <ele>499.54</ele>
        <time>2015-05-17T06:44:26Z</time>
      </trkpt>
      <trkpt lat="41.619155590" lon="2.470116910">
        <ele>499.54</ele>
        <time>2015-05-17T06:44:33Z</time>
      </trkpt>
      <trkpt lat="41.619145700" lon="2.470106850">
        <ele>499.54</ele>
        <time>2015-05-17T06:44:47Z</time>
      </trkpt>
      <trkpt lat="41.619149130" lon="2.470117000">
        <ele>499.54</ele>
        <time>2015-05-17T06:45:04Z</time>
      </trkpt>
      <trkpt lat="41.619153660" lon="2.470139790">
        <ele>499.54</ele>
        <time>2015-05-17T06:45:23Z</time>
      </trkpt>
      <trkpt lat="41.619150980" lon="2.470137030">
        <ele>499.54</ele>
        <time>2015-05-17T06:45:37Z</time>
      </trkpt>
      <trkpt lat="41.619156430" lon="2.470045250">
        <ele>498.10</ele>
        <time>2015-05-17T06:45:50Z</time>
      </trkpt>
      <trkpt lat="41.619173020" lon="2.469797230">
        <ele>496.18</ele>
        <time>2015-05-17T06:45:57Z</time>
      </trkpt>
      <trkpt lat="41.619154500" lon="2.469418530">
        <ele>494.74</ele>
        <time>2015-05-17T06:46:04Z</time>
      </trkpt>
      <trkpt lat="41.619221470" lon="2.469101950">
        <ele>494.26</ele>
        <time>2015-05-17T06:46:10Z</time>
      </trkpt>
      <trkpt lat="41.619282740" lon="2.468825340">
        <ele>493.29</ele>
        <time>2015-05-17T06:46:16Z</time>
      </trkpt>
      <trkpt lat="41.619274360" lon="2.468621750">
        <ele>492.81</ele>
        <time>2015-05-17T06:46:21Z</time>
      </trkpt>
      <trkpt lat="41.619256340" lon="2.468487890">
        <ele>492.33</ele>
        <time>2015-05-17T06:46:25Z</time>
      </trkpt>
      <trkpt lat="41.619224650" lon="2.468380850">
        <ele>491.37</ele>
        <time>2015-05-17T06:46:27Z</time>
      </trkpt>
      <trkpt lat="41.619198420" lon="2.468118330">
        <ele>490.41</ele>
        <time>2015-05-17T06:46:32Z</time>
      </trkpt>
      <trkpt lat="41.619217950" lon="2.467803170">
        <ele>489.93</ele>
        <time>2015-05-17T06:46:38Z</time>
      </trkpt>
      <trkpt lat="41.619185680" lon="2.467531350">
        <ele>489.93</ele>
        <time>2015-05-17T06:46:44Z</time>
      </trkpt>
      <trkpt lat="41.619180400" lon="2.467382400">
        <ele>492.33</ele>
        <time>2015-05-17T06:46:50Z</time>
      </trkpt>
      <trkpt lat="41.619178970" lon="2.467221470">
        <ele>494.26</ele>
        <time>2015-05-17T06:46:57Z</time>
      </trkpt>
      <trkpt lat="41.619141760" lon="2.466990800">
        <ele>494.74</ele>
        <time>2015-05-17T06:47:04Z</time>
      </trkpt>
      <trkpt lat="41.619132370" lon="2.466793740">
        <ele>494.74</ele>
        <time>2015-05-17T06:47:08Z</time>
      </trkpt>
      <trkpt lat="41.619108480" lon="2.466678910">
        <ele>493.29</ele>
        <time>2015-05-17T06:47:10Z</time>
      </trkpt>
      <trkpt lat="41.618982750" lon="2.466275740">
        <ele>492.33</ele>
        <time>2015-05-17T06:47:18Z</time>
      </trkpt>
      <trkpt lat="41.618984090" lon="2.466043810">
        <ele>493.77</ele>
        <time>2015-05-17T06:47:24Z</time>
      </trkpt>
      <trkpt lat="41.619047630" lon="2.465747260">
        <ele>494.26</ele>
        <time>2015-05-17T06:47:31Z</time>
      </trkpt>
      <trkpt lat="41.619020140" lon="2.465482310">
        <ele>492.81</ele>
        <time>2015-05-17T06:47:36Z</time>
      </trkpt>
      <trkpt lat="41.618899350" lon="2.465127500">
        <ele>492.81</ele>
        <time>2015-05-17T06:47:43Z</time>
      </trkpt>
      <trkpt lat="41.618822660" lon="2.464845620">
        <ele>492.81</ele>
        <time>2015-05-17T06:47:49Z</time>
      </trkpt>
      <trkpt lat="41.618704980" lon="2.464548390">
        <ele>492.33</ele>
        <time>2015-05-17T06:47:55Z</time>
      </trkpt>
      <trkpt lat="41.618635570" lon="2.464121590">
        <ele>491.85</ele>
        <time>2015-05-17T06:48:02Z</time>
      </trkpt>
      <trkpt lat="41.618632560" lon="2.463945480">
        <ele>491.85</ele>
        <time>2015-05-17T06:48:05Z</time>
      </trkpt>
      <trkpt lat="41.618572040" lon="2.463712800">
        <ele>489.93</ele>
        <time>2015-05-17T06:48:10Z</time>
      </trkpt>
      <trkpt lat="41.618528960" lon="2.463615320">
        <ele>489.45</ele>
        <time>2015-05-17T06:48:12Z</time>
      </trkpt>
      <trkpt lat="41.618512190" lon="2.463371830">
        <ele>487.05</ele>
        <time>2015-05-17T06:48:16Z</time>
      </trkpt>
      <trkpt lat="41.618568430" lon="2.463053730">
        <ele>486.56</ele>
        <time>2015-05-17T06:48:22Z</time>
      </trkpt>
      <trkpt lat="41.618543620" lon="2.462960190">
        <ele>486.56</ele>
        <time>2015-05-17T06:48:24Z</time>
      </trkpt>
      <trkpt lat="41.618407670" lon="2.462639250">
        <ele>486.56</ele>
        <time>2015-05-17T06:48:32Z</time>
      </trkpt>
      <trkpt lat="41.618379590" lon="2.462496340">
        <ele>488.01</ele>
        <time>2015-05-17T06:48:36Z</time>
      </trkpt>
      <trkpt lat="41.618368780" lon="2.462299610">
        <ele>488.49</ele>
        <time>2015-05-17T06:48:43Z</time>
      </trkpt>
      <trkpt lat="41.618352940" lon="2.462220150">
        <ele>489.45</ele>
        <time>2015-05-17T06:48:50Z</time>
      </trkpt>
      <trkpt lat="41.618356040" lon="2.462218310">
        <ele>489.45</ele>
        <time>2015-05-17T06:48:52Z</time>
      </trkpt>
      <trkpt lat="41.618396770" lon="2.462222840">
        <ele>489.45</ele>
        <time>2015-05-17T06:48:58Z</time>
      </trkpt>
      <trkpt lat="41.618402050" lon="2.462221330">
        <ele>489.45</ele>
        <time>2015-05-17T06:48:59Z</time>
      </trkpt>
      <trkpt lat="41.618483360" lon="2.462165670">
        <ele>489.45</ele>
        <time>2015-05-17T06:49:05Z</time>
      </trkpt>
      <trkpt lat="41.618543960" lon="2.462175230">
        <ele>488.01</ele>
        <time>2015-05-17T06:49:08Z</time>
      </trkpt>
      <trkpt lat="41.618653430" lon="2.462153010">
        <ele>487.05</ele>
        <time>2015-05-17T06:49:11Z</time>
      </trkpt>
      <trkpt lat="41.618835570" lon="2.462031900">
        <ele>486.08</ele>
        <time>2015-05-17T06:49:15Z</time>
      </trkpt>
      <trkpt lat="41.619004460" lon="2.461894100">
        <ele>485.12</ele>
        <time>2015-05-17T06:49:19Z</time>
      </trkpt>
      <trkpt lat="41.619421540" lon="2.461796620">
        <ele>482.24</ele>
        <time>2015-05-17T06:49:26Z</time>
      </trkpt>
      <trkpt lat="41.619800320" lon="2.461803820">
        <ele>479.35</ele>
        <time>2015-05-17T06:49:32Z</time>
      </trkpt>
      <trkpt lat="41.620083300" lon="2.461916390">
        <ele>478.87</ele>
        <time>2015-05-17T06:49:38Z</time>
      </trkpt>
      <trkpt lat="41.620331900" lon="2.462150250">
        <ele>478.87</ele>
        <time>2015-05-17T06:49:46Z</time>
      </trkpt>
      <trkpt lat="41.620495770" lon="2.462379830">
        <ele>478.87</ele>
        <time>2015-05-17T06:49:53Z</time>
      </trkpt>
      <trkpt lat="41.620529130" lon="2.462464230">
        <ele>478.87</ele>
        <time>2015-05-17T06:49:58Z</time>
      </trkpt>
      <trkpt lat="41.620634910" lon="2.462572530">
        <ele>479.84</ele>
        <time>2015-05-17T06:50:05Z</time>
      </trkpt>
      <trkpt lat="41.620758960" lon="2.462793480">
        <ele>481.28</ele>
        <time>2015-05-17T06:50:13Z</time>
      </trkpt>
      <trkpt lat="41.620844290" lon="2.462900430">
        <ele>482.72</ele>
        <time>2015-05-17T06:50:19Z</time>
      </trkpt>
      <trkpt lat="41.621036400" lon="2.463086510">
        <ele>482.24</ele>
        <time>2015-05-17T06:50:25Z</time>
      </trkpt>
      <trkpt lat="41.621211170" lon="2.463260010">
        <ele>482.24</ele>
        <time>2015-05-17T06:50:31Z</time>
      </trkpt>
      <trkpt lat="41.621284930" lon="2.463323550">
        <ele>481.28</ele>
        <time>2015-05-17T06:50:33Z</time>
      </trkpt>
      <trkpt lat="41.621431530" lon="2.463507780">
        <ele>479.84</ele>
        <time>2015-05-17T06:50:39Z</time>
      </trkpt>
      <trkpt lat="41.621427670" lon="2.463415750">
        <ele>478.87</ele>
        <time>2015-05-17T06:50:43Z</time>
      </trkpt>
      <trkpt lat="41.621382910" lon="2.463215090">
        <ele>476.95</ele>
        <time>2015-05-17T06:50:49Z</time>
      </trkpt>
      <trkpt lat="41.621298000" lon="2.462926830">
        <ele>473.59</ele>
        <time>2015-05-17T06:50:56Z</time>
      </trkpt>
      <trkpt lat="41.621233460" lon="2.462839580">
        <ele>472.63</ele>
        <time>2015-05-17T06:50:58Z</time>
      </trkpt>
      <trkpt lat="41.621180070" lon="2.462754000">
        <ele>471.66</ele>
        <time>2015-05-17T06:51:00Z</time>
      </trkpt>
      <trkpt lat="41.621132040" lon="2.462647130">
        <ele>470.22</ele>
        <time>2015-05-17T06:51:02Z</time>
      </trkpt>
      <trkpt lat="41.621036400" lon="2.462396420">
        <ele>469.26</ele>
        <time>2015-05-17T06:51:06Z</time>
      </trkpt>
      <trkpt lat="41.620994240" lon="2.462078160">
        <ele>466.38</ele>
        <time>2015-05-17T06:51:11Z</time>
      </trkpt>
      <trkpt lat="41.620993320" lon="2.461806420">
        <ele>463.49</ele>
        <time>2015-05-17T06:51:18Z</time>
      </trkpt>
      <trkpt lat="41.621043110" lon="2.461569300">
        <ele>460.13</ele>
        <time>2015-05-17T06:51:24Z</time>
      </trkpt>
      <trkpt lat="41.621045450" lon="2.461529650">
        <ele>460.13</ele>
        <time>2015-05-17T06:51:25Z</time>
      </trkpt>
      <trkpt lat="41.621041850" lon="2.461381540">
        <ele>458.21</ele>
        <time>2015-05-17T06:51:29Z</time>
      </trkpt>
      <trkpt lat="41.620954010" lon="2.461202510">
        <ele>457.72</ele>
        <time>2015-05-17T06:51:36Z</time>
      </trkpt>
      <trkpt lat="41.621006650" lon="2.461068060">
        <ele>457.72</ele>
        <time>2015-05-17T06:51:41Z</time>
      </trkpt>
      <trkpt lat="41.621071860" lon="2.460968320">
        <ele>457.72</ele>
        <time>2015-05-17T06:51:47Z</time>
      </trkpt>
      <trkpt lat="41.621153160" lon="2.460856750">
        <ele>457.24</ele>
        <time>2015-05-17T06:51:54Z</time>
      </trkpt>
      <trkpt lat="41.621239240" lon="2.460742590">
        <ele>455.32</ele>
        <time>2015-05-17T06:52:00Z</time>
      </trkpt>
      <trkpt lat="41.621295570" lon="2.460693390">
        <ele>453.88</ele>
        <time>2015-05-17T06:52:04Z</time>
      </trkpt>
      <trkpt lat="41.621480890" lon="2.460614770">
        <ele>451.48</ele>
        <time>2015-05-17T06:52:12Z</time>
      </trkpt>
      <trkpt lat="41.621603520" lon="2.460564310">
        <ele>450.52</ele>
        <time>2015-05-17T06:52:16Z</time>
      </trkpt>
      <trkpt lat="41.621936620" lon="2.460348220">
        <ele>447.15</ele>
        <time>2015-05-17T06:52:23Z</time>
      </trkpt>
      <trkpt lat="41.622193940" lon="2.460204310">
        <ele>445.23</ele>
        <time>2015-05-17T06:52:27Z</time>
      </trkpt>
      <trkpt lat="41.622371890" lon="2.459984620">
        <ele>446.67</ele>
        <time>2015-05-17T06:52:33Z</time>
      </trkpt>
      <trkpt lat="41.622382200" lon="2.459846820">
        <ele>448.11</ele>
        <time>2015-05-17T06:52:38Z</time>
      </trkpt>
      <trkpt lat="41.622334090" lon="2.459745150">
        <ele>448.11</ele>
        <time>2015-05-17T06:52:41Z</time>
      </trkpt>
      <trkpt lat="41.622274410" lon="2.459506760">
        <ele>446.19</ele>
        <time>2015-05-17T06:52:46Z</time>
      </trkpt>
      <trkpt lat="41.622386890" lon="2.459410460">
        <ele>446.19</ele>
        <time>2015-05-17T06:52:51Z</time>
      </trkpt>
      <trkpt lat="41.622511790" lon="2.459327310">
        <ele>446.19</ele>
        <time>2015-05-17T06:52:57Z</time>
      </trkpt>
      <trkpt lat="41.622548580" lon="2.459088840">
        <ele>444.27</ele>
        <time>2015-05-17T06:53:03Z</time>
      </trkpt>
      <trkpt lat="41.622607090" lon="2.458973670">
        <ele>443.79</ele>
        <time>2015-05-17T06:53:06Z</time>
      </trkpt>
      <trkpt lat="41.622710520" lon="2.458892960">
        <ele>442.82</ele>
        <time>2015-05-17T06:53:09Z</time>
      </trkpt>
      <trkpt lat="41.622815630" lon="2.458586770">
        <ele>441.86</ele>
        <time>2015-05-17T06:53:15Z</time>
      </trkpt>
      <trkpt lat="41.622861650" lon="2.458464890">
        <ele>440.90</ele>
        <time>2015-05-17T06:53:17Z</time>
      </trkpt>
      <trkpt lat="41.622872710" lon="2.458093830">
        <ele>440.42</ele>
        <time>2015-05-17T06:53:23Z</time>
      </trkpt>
      <trkpt lat="41.622881510" lon="2.458047140">
        <ele>440.42</ele>
        <time>2015-05-17T06:53:24Z</time>
      </trkpt>
      <trkpt lat="41.623042950" lon="2.457957450">
        <ele>440.42</ele>
        <time>2015-05-17T06:53:30Z</time>
      </trkpt>
      <trkpt lat="41.623080920" lon="2.457940610">
        <ele>440.42</ele>
        <time>2015-05-17T06:53:31Z</time>
      </trkpt>
      <trkpt lat="41.623325920" lon="2.457647240">
        <ele>438.98</ele>
        <time>2015-05-17T06:53:37Z</time>
      </trkpt>
      <trkpt lat="41.623450060" lon="2.457558560">
        <ele>438.50</ele>
        <time>2015-05-17T06:53:40Z</time>
      </trkpt>
      <trkpt lat="41.623594810" lon="2.457431070">
        <ele>440.90</ele>
        <time>2015-05-17T06:53:45Z</time>
      </trkpt>
      <trkpt lat="41.623656000" lon="2.457359150">
        <ele>440.90</ele>
        <time>2015-05-17T06:53:47Z</time>
      </trkpt>
      <trkpt lat="41.623723890" lon="2.457259910">
        <ele>440.90</ele>
        <time>2015-05-17T06:53:49Z</time>
      </trkpt>
      <trkpt lat="41.623790030" lon="2.457144240">
        <ele>438.50</ele>
        <time>2015-05-17T06:53:51Z</time>
      </trkpt>
      <trkpt lat="41.623951380" lon="2.457061680">
        <ele>436.10</ele>
        <time>2015-05-17T06:53:55Z</time>
      </trkpt>
      <trkpt lat="41.624133680" lon="2.457236020">
        <ele>432.73</ele>
        <time>2015-05-17T06:53:59Z</time>
      </trkpt>
      <trkpt lat="41.624178440" lon="2.457294280">
        <ele>431.29</ele>
        <time>2015-05-17T06:54:00Z</time>
      </trkpt>
      <trkpt lat="41.624369890" lon="2.457542880">
        <ele>427.44</ele>
        <time>2015-05-17T06:54:05Z</time>
      </trkpt>
      <trkpt lat="41.624436610" lon="2.457635590">
        <ele>425.52</ele>
        <time>2015-05-17T06:54:07Z</time>
      </trkpt>
      <trkpt lat="41.624635840" lon="2.457740030">
        <ele>420.71</ele>
        <time>2015-05-17T06:54:12Z</time>
      </trkpt>
      <trkpt lat="41.624667530" lon="2.457722010">
        <ele>419.75</ele>
        <time>2015-05-17T06:54:13Z</time>
      </trkpt>
      <trkpt lat="41.624764250" lon="2.457644470">
        <ele>416.87</ele>
        <time>2015-05-17T06:54:16Z</time>
      </trkpt>
      <trkpt lat="41.624944880" lon="2.457408770">
        <ele>413.98</ele>
        <time>2015-05-17T06:54:21Z</time>
      </trkpt>
      <trkpt lat="41.625143530" lon="2.457339710">
        <ele>410.62</ele>
        <time>2015-05-17T06:54:25Z</time>
      </trkpt>
      <trkpt lat="41.625296000" lon="2.457409110">
        <ele>408.70</ele>
        <time>2015-05-17T06:54:28Z</time>
      </trkpt>
      <trkpt lat="41.625496080" lon="2.457455880">
        <ele>403.89</ele>
        <time>2015-05-17T06:54:32Z</time>
      </trkpt>
      <trkpt lat="41.625748040" lon="2.457358480">
        <ele>400.53</ele>
        <time>2015-05-17T06:54:37Z</time>
      </trkpt>
      <trkpt lat="41.625800340" lon="2.457297630">
        <ele>399.57</ele>
        <time>2015-05-17T06:54:38Z</time>
      </trkpt>
      <trkpt lat="41.626009130" lon="2.456982890">
        <ele>395.24</ele>
        <time>2015-05-17T06:54:43Z</time>
      </trkpt>
      <trkpt lat="41.626144500" lon="2.456814330">
        <ele>393.32</ele>
        <time>2015-05-17T06:54:46Z</time>
      </trkpt>
      <trkpt lat="41.626350360" lon="2.456649620">
        <ele>391.39</ele>
        <time>2015-05-17T06:54:51Z</time>
      </trkpt>
      <trkpt lat="41.626507770" lon="2.456645940">
        <ele>391.39</ele>
        <time>2015-05-17T06:54:56Z</time>
      </trkpt>
      <trkpt lat="41.626614480" lon="2.456573100">
        <ele>390.91</ele>
        <time>2015-05-17T06:54:59Z</time>
      </trkpt>
      <trkpt lat="41.626885210" lon="2.456407970">
        <ele>388.99</ele>
        <time>2015-05-17T06:55:06Z</time>
      </trkpt>
      <trkpt lat="41.626918650" lon="2.456377550">
        <ele>387.55</ele>
        <time>2015-05-17T06:55:07Z</time>
      </trkpt>
      <trkpt lat="41.627141530" lon="2.456183170">
        <ele>384.18</ele>
        <time>2015-05-17T06:55:13Z</time>
      </trkpt>
      <trkpt lat="41.627407990" lon="2.455949320">
        <ele>380.82</ele>
        <time>2015-05-17T06:55:20Z</time>
      </trkpt>
      <trkpt lat="41.627446710" lon="2.455910930">
        <ele>380.82</ele>
        <time>2015-05-17T06:55:21Z</time>
      </trkpt>
      <trkpt lat="41.627588700" lon="2.455787630">
        <ele>379.38</ele>
        <time>2015-05-17T06:55:24Z</time>
      </trkpt>
      <trkpt lat="41.627728850" lon="2.455613120">
        <ele>378.90</ele>
        <time>2015-05-17T06:55:29Z</time>
      </trkpt>
      <trkpt lat="41.627737730" lon="2.455559390">
        <ele>380.34</ele>
        <time>2015-05-17T06:55:31Z</time>
      </trkpt>
      <trkpt lat="41.627743850" lon="2.455375240">
        <ele>380.82</ele>
        <time>2015-05-17T06:55:37Z</time>
      </trkpt>
      <trkpt lat="41.627802530" lon="2.455116160">
        <ele>381.30</ele>
        <time>2015-05-17T06:55:45Z</time>
      </trkpt>
      <trkpt lat="41.627821130" lon="2.455055720">
        <ele>381.78</ele>
        <time>2015-05-17T06:55:47Z</time>
      </trkpt>
      <trkpt lat="41.627920380" lon="2.454963020">
        <ele>382.74</ele>
        <time>2015-05-17T06:55:54Z</time>
      </trkpt>
      <trkpt lat="41.628096980" lon="2.454995540">
        <ele>382.74</ele>
        <time>2015-05-17T06:56:00Z</time>
      </trkpt>
      <trkpt lat="41.628211810" lon="2.455035020">
        <ele>380.82</ele>
        <time>2015-05-17T06:56:03Z</time>
      </trkpt>
      <trkpt lat="41.628452290" lon="2.455142310">
        <ele>378.90</ele>
        <time>2015-05-17T06:56:09Z</time>
      </trkpt>
      <trkpt lat="41.628576010" lon="2.455213130">
        <ele>377.94</ele>
        <time>2015-05-17T06:56:12Z</time>
      </trkpt>
      <trkpt lat="41.628763510" lon="2.455266950">
        <ele>377.45</ele>
        <time>2015-05-17T06:56:16Z</time>
      </trkpt>
      <trkpt lat="41.628902820" lon="2.455406590">
        <ele>373.61</ele>
        <time>2015-05-17T06:56:21Z</time>
      </trkpt>
      <trkpt lat="41.628925450" lon="2.455500210">
        <ele>372.65</ele>
        <time>2015-05-17T06:56:23Z</time>
      </trkpt>
      <trkpt lat="41.629046650" lon="2.455674310">
        <ele>369.28</ele>
        <time>2015-05-17T06:56:28Z</time>
      </trkpt>
      <trkpt lat="41.629134830" lon="2.455794750">
        <ele>366.88</ele>
        <time>2015-05-17T06:56:32Z</time>
      </trkpt>
      <trkpt lat="41.629176320" lon="2.455897600">
        <ele>364.48</ele>
        <time>2015-05-17T06:56:35Z</time>
      </trkpt>
      <trkpt lat="41.629355020" lon="2.455923160">
        <ele>360.63</ele>
        <time>2015-05-17T06:56:40Z</time>
      </trkpt>
      <trkpt lat="41.629379580" lon="2.455901710">
        <ele>360.15</ele>
        <time>2015-05-17T06:56:41Z</time>
      </trkpt>
      <trkpt lat="41.629579490" lon="2.455812360">
        <ele>355.83</ele>
        <time>2015-05-17T06:56:47Z</time>
      </trkpt>
      <trkpt lat="41.629720220" lon="2.455831300">
        <ele>353.90</ele>
        <time>2015-05-17T06:56:50Z</time>
      </trkpt>
      <trkpt lat="41.629869250" lon="2.455900110">
        <ele>351.50</ele>
        <time>2015-05-17T06:56:53Z</time>
      </trkpt>
      <trkpt lat="41.629976960" lon="2.456039760">
        <ele>348.13</ele>
        <time>2015-05-17T06:56:57Z</time>
      </trkpt>
      <trkpt lat="41.629898840" lon="2.456116870">
        <ele>347.17</ele>
        <time>2015-05-17T06:57:01Z</time>
      </trkpt>
      <trkpt lat="41.629700690" lon="2.456247880">
        <ele>346.21</ele>
        <time>2015-05-17T06:57:08Z</time>
      </trkpt>
      <trkpt lat="41.629582590" lon="2.456456000">
        <ele>345.73</ele>
        <time>2015-05-17T06:57:14Z</time>
      </trkpt>
      <trkpt lat="41.629479750" lon="2.456704860">
        <ele>345.73</ele>
        <time>2015-05-17T06:57:20Z</time>
      </trkpt>
      <trkpt lat="41.629429030" lon="2.456778200">
        <ele>345.73</ele>
        <time>2015-05-17T06:57:22Z</time>
      </trkpt>
      <trkpt lat="41.629145060" lon="2.456824220">
        <ele>342.85</ele>
        <time>2015-05-17T06:57:28Z</time>
      </trkpt>
      <trkpt lat="41.629096520" lon="2.456847770">
        <ele>342.37</ele>
        <time>2015-05-17T06:57:29Z</time>
      </trkpt>
      <trkpt lat="41.629014130" lon="2.457049440">
        <ele>339.96</ele>
        <time>2015-05-17T06:57:33Z</time>
      </trkpt>
      <trkpt lat="41.629048500" lon="2.457191010">
        <ele>339.96</ele>
        <time>2015-05-17T06:57:36Z</time>
      </trkpt>
      <trkpt lat="41.629199290" lon="2.457362670">
        <ele>341.41</ele>
        <time>2015-05-17T06:57:43Z</time>
      </trkpt>
      <trkpt lat="41.629336330" lon="2.457451020">
        <ele>342.85</ele>
        <time>2015-05-17T06:57:50Z</time>
      </trkpt>
      <trkpt lat="41.629474300" lon="2.457430150">
        <ele>342.85</ele>
        <time>2015-05-17T06:57:57Z</time>
      </trkpt>
      <trkpt lat="41.629606980" lon="2.457378680">
        <ele>342.85</ele>
        <time>2015-05-17T06:58:01Z</time>
      </trkpt>
      <trkpt lat="41.629811420" lon="2.457114650">
        <ele>340.44</ele>
        <time>2015-05-17T06:58:08Z</time>
      </trkpt>
      <trkpt lat="41.629912840" lon="2.456987330">
        <ele>340.44</ele>
        <time>2015-05-17T06:58:12Z</time>
      </trkpt>
      <trkpt lat="41.630147280" lon="2.456942740">
        <ele>338.52</ele>
        <time>2015-05-17T06:58:18Z</time>
      </trkpt>
      <trkpt lat="41.630280550" lon="2.456970150">
        <ele>335.64</ele>
        <time>2015-05-17T06:58:21Z</time>
      </trkpt>
      <trkpt lat="41.630380130" lon="2.456988500">
        <ele>334.68</ele>
        <time>2015-05-17T06:58:23Z</time>
      </trkpt>
      <trkpt lat="41.630568720" lon="2.456919270">
        <ele>331.31</ele>
        <time>2015-05-17T06:58:28Z</time>
      </trkpt>
      <trkpt lat="41.630623960" lon="2.456823800">
        <ele>330.35</ele>
        <time>2015-05-17T06:58:30Z</time>
      </trkpt>
      <trkpt lat="41.630680370" lon="2.456657670">
        <ele>329.39</ele>
        <time>2015-05-17T06:58:33Z</time>
      </trkpt>
      <trkpt lat="41.630835270" lon="2.456347290">
        <ele>327.95</ele>
        <time>2015-05-17T06:58:38Z</time>
      </trkpt>
      <trkpt lat="41.631007930" lon="2.455909590">
        <ele>323.14</ele>
        <time>2015-05-17T06:58:43Z</time>
      </trkpt>
      <trkpt lat="41.631061330" lon="2.455730050">
        <ele>321.22</ele>
        <time>2015-05-17T06:58:45Z</time>
      </trkpt>
      <trkpt lat="41.631322930" lon="2.455520330">
        <ele>319.30</ele>
        <time>2015-05-17T06:58:50Z</time>
      </trkpt>
      <trkpt lat="41.631444460" lon="2.455521000">
        <ele>318.81</ele>
        <time>2015-05-17T06:58:52Z</time>
      </trkpt>
      <trkpt lat="41.631611600" lon="2.455487140">
        <ele>318.33</ele>
        <time>2015-05-17T06:58:55Z</time>
      </trkpt>
      <trkpt lat="41.631744030" lon="2.455458980">
        <ele>316.89</ele>
        <time>2015-05-17T06:58:57Z</time>
      </trkpt>
      <trkpt lat="41.632271340" lon="2.455220170">
        <ele>314.97</ele>
        <time>2015-05-17T06:59:05Z</time>
      </trkpt>
      <trkpt lat="41.632609550" lon="2.455035610">
        <ele>312.57</ele>
        <time>2015-05-17T06:59:10Z</time>
      </trkpt>
      <trkpt lat="41.632812310" lon="2.454918510">
        <ele>310.64</ele>
        <time>2015-05-17T06:59:15Z</time>
      </trkpt>
      <trkpt lat="41.632888920" lon="2.454904510">
        <ele>310.16</ele>
        <time>2015-05-17T06:59:21Z</time>
      </trkpt>
      <trkpt lat="41.632887240" lon="2.454907110">
        <ele>310.16</ele>
        <time>2015-05-17T06:59:34Z</time>
      </trkpt>
      <trkpt lat="41.632892020" lon="2.454895710">
        <ele>310.16</ele>
        <time>2015-05-17T06:59:55Z</time>
      </trkpt>
      <trkpt lat="41.632900900" lon="2.454903590">
        <ele>310.16</ele>
        <time>2015-05-17T07:00:03Z</time>
      </trkpt>
      <trkpt lat="41.632901910" lon="2.454903670">
        <ele>310.16</ele>
        <time>2015-05-17T07:00:04Z</time>
      </trkpt>
      <trkpt lat="41.632913390" lon="2.454921440">
        <ele>310.16</ele>
        <time>2015-05-17T07:00:06Z</time>
      </trkpt>
      <trkpt lat="41.632921440" lon="2.455058910">
        <ele>310.16</ele>
        <time>2015-05-17T07:00:14Z</time>
      </trkpt>
      <trkpt lat="41.632928310" lon="2.455103160">
        <ele>311.60</ele>
        <time>2015-05-17T07:00:16Z</time>
      </trkpt>
      <trkpt lat="41.632981960" lon="2.455270550">
        <ele>313.53</ele>
        <time>2015-05-17T07:00:23Z</time>
      </trkpt>
      <trkpt lat="41.632999220" lon="2.455414720">
        <ele>316.89</ele>
        <time>2015-05-17T07:00:30Z</time>
      </trkpt>
      <trkpt lat="41.633014560" lon="2.455498620">
        <ele>318.81</ele>
        <time>2015-05-17T07:00:35Z</time>
      </trkpt>
      <trkpt lat="41.632999310" lon="2.455652350">
        <ele>321.22</ele>
        <time>2015-05-17T07:00:43Z</time>
      </trkpt>
      <trkpt lat="41.633023030" lon="2.455825520">
        <ele>323.62</ele>
        <time>2015-05-17T07:00:51Z</time>
      </trkpt>
      <trkpt lat="41.633051860" lon="2.455995250">
        <ele>326.50</ele>
        <time>2015-05-17T07:01:01Z</time>
      </trkpt>
      <trkpt lat="41.633038950" lon="2.456096340">
        <ele>327.95</ele>
        <time>2015-05-17T07:01:07Z</time>
      </trkpt>
      <trkpt lat="41.633014390" lon="2.456178730">
        <ele>330.35</ele>
        <time>2015-05-17T07:01:13Z</time>
      </trkpt>
      <trkpt lat="41.633014980" lon="2.456209740">
        <ele>330.35</ele>
        <time>2015-05-17T07:01:15Z</time>
      </trkpt>
      <trkpt lat="41.633096280" lon="2.456302450">
        <ele>330.35</ele>
        <time>2015-05-17T07:01:22Z</time>
      </trkpt>
      <trkpt lat="41.633120260" lon="2.456292140">
        <ele>331.31</ele>
        <time>2015-05-17T07:01:24Z</time>
      </trkpt>
      <trkpt lat="41.633244390" lon="2.456211840">
        <ele>331.31</ele>
        <time>2015-05-17T07:01:34Z</time>
      </trkpt>
      <trkpt lat="41.633257220" lon="2.456202530">
        <ele>331.79</ele>
        <time>2015-05-17T07:01:35Z</time>
      </trkpt>
      <trkpt lat="41.633313210" lon="2.456176890">
        <ele>332.75</ele>
        <time>2015-05-17T07:01:40Z</time>
      </trkpt>
      <trkpt lat="41.633370790" lon="2.456073700">
        <ele>334.20</ele>
        <time>2015-05-17T07:01:48Z</time>
      </trkpt>
      <trkpt lat="41.633436760" lon="2.456002040">
        <ele>336.12</ele>
        <time>2015-05-17T07:01:55Z</time>
      </trkpt>
      <trkpt lat="41.633512110" lon="2.455957950">
        <ele>337.08</ele>
        <time>2015-05-17T07:02:03Z</time>
      </trkpt>
      <trkpt lat="41.633572630" lon="2.455909840">
        <ele>338.04</ele>
        <time>2015-05-17T07:02:10Z</time>
      </trkpt>
      <trkpt lat="41.633653180" lon="2.455868100">
        <ele>338.04</ele>
        <time>2015-05-17T07:02:17Z</time>
      </trkpt>
      <trkpt lat="41.633710340" lon="2.455843540">
        <ele>338.52</ele>
        <time>2015-05-17T07:02:22Z</time>
      </trkpt>
      <trkpt lat="41.633826850" lon="2.455857120">
        <ele>339.48</ele>
        <time>2015-05-17T07:02:32Z</time>
      </trkpt>
      <trkpt lat="41.633862640" lon="2.455877060">
        <ele>339.96</ele>
        <time>2015-05-17T07:02:36Z</time>
      </trkpt>
      <trkpt lat="41.633953170" lon="2.455854270">
        <ele>339.96</ele>
        <time>2015-05-17T07:02:43Z</time>
      </trkpt>
      <trkpt lat="41.633965070" lon="2.455846890">
        <ele>339.96</ele>
        <time>2015-05-17T07:02:44Z</time>
      </trkpt>
      <trkpt lat="41.634021140" lon="2.455798110">
        <ele>338.04</ele>
        <time>2015-05-17T07:02:49Z</time>
      </trkpt>
      <trkpt lat="41.634074870" lon="2.455740190">
        <ele>337.56</ele>
        <time>2015-05-17T07:02:52Z</time>
      </trkpt>
      <trkpt lat="41.634209070" lon="2.455775810">
        <ele>336.12</ele>
        <time>2015-05-17T07:02:58Z</time>
      </trkpt>
      <trkpt lat="41.634332950" lon="2.455975970">
        <ele>335.16</ele>
        <time>2015-05-17T07:03:06Z</time>
      </trkpt>
      <trkpt lat="41.634329180" lon="2.456023240">
        <ele>334.20</ele>
        <time>2015-05-17T07:03:12Z</time>
      </trkpt>
      <trkpt lat="41.634331110" lon="2.456039670">
        <ele>334.20</ele>
        <time>2015-05-17T07:03:25Z</time>
      </trkpt>
      <trkpt lat="41.634296240" lon="2.456182840">
        <ele>332.75</ele>
        <time>2015-05-17T07:03:30Z</time>
      </trkpt>
      <trkpt lat="41.634160450" lon="2.456435720">
        <ele>331.31</ele>
        <time>2015-05-17T07:03:35Z</time>
      </trkpt>
      <trkpt lat="41.634076380" lon="2.456600670">
        <ele>331.31</ele>
        <time>2015-05-17T07:03:39Z</time>
      </trkpt>
      <trkpt lat="41.633999180" lon="2.456802680">
        <ele>331.31</ele>
        <time>2015-05-17T07:03:47Z</time>
      </trkpt>
      <trkpt lat="41.633983090" lon="2.456860510">
        <ele>332.75</ele>
        <time>2015-05-17T07:03:49Z</time>
      </trkpt>
      <trkpt lat="41.633941430" lon="2.456978280">
        <ele>331.31</ele>
        <time>2015-05-17T07:03:51Z</time>
      </trkpt>
      <trkpt lat="41.633851080" lon="2.457218420">
        <ele>328.43</ele>
        <time>2015-05-17T07:03:55Z</time>
      </trkpt>
      <trkpt lat="41.633933390" lon="2.457284550">
        <ele>328.43</ele>
        <time>2015-05-17T07:03:59Z</time>
      </trkpt>
      <trkpt lat="41.634020140" lon="2.457257820">
        <ele>327.95</ele>
        <time>2015-05-17T07:04:01Z</time>
      </trkpt>
      <trkpt lat="41.634104630" lon="2.457240880">
        <ele>327.95</ele>
        <time>2015-05-17T07:04:03Z</time>
      </trkpt>
      <trkpt lat="41.634293970" lon="2.457056900">
        <ele>326.99</ele>
        <time>2015-05-17T07:04:08Z</time>
      </trkpt>
      <trkpt lat="41.634438730" lon="2.456820780">
        <ele>325.06</ele>
        <time>2015-05-17T07:04:13Z</time>
      </trkpt>
      <trkpt lat="41.634554070" lon="2.456747270">
        <ele>325.06</ele>
        <time>2015-05-17T07:04:17Z</time>
      </trkpt>
      <trkpt lat="41.634705110" lon="2.456772750">
        <ele>324.58</ele>
        <time>2015-05-17T07:04:20Z</time>
      </trkpt>
      <trkpt lat="41.634922530" lon="2.456902000">
        <ele>324.10</ele>
        <time>2015-05-17T07:04:24Z</time>
      </trkpt>
      <trkpt lat="41.635149260" lon="2.457038210">
        <ele>324.10</ele>
        <time>2015-05-17T07:04:30Z</time>
      </trkpt>
      <trkpt lat="41.635289070" lon="2.457047760">
        <ele>324.10</ele>
        <time>2015-05-17T07:04:34Z</time>
      </trkpt>
      <trkpt lat="41.635454280" lon="2.457015410">
        <ele>323.62</ele>
        <time>2015-05-17T07:04:37Z</time>
      </trkpt>
      <trkpt lat="41.635666930" lon="2.456874340">
        <ele>324.58</ele>
        <time>2015-05-17T07:04:42Z</time>
      </trkpt>
      <trkpt lat="41.635814030" lon="2.456677700">
        <ele>326.02</ele>
        <time>2015-05-17T07:04:49Z</time>
      </trkpt>
      <trkpt lat="41.635902630" lon="2.456527670">
        <ele>327.47</ele>
        <time>2015-05-17T07:04:54Z</time>
      </trkpt>
      <trkpt lat="41.636053840" lon="2.456515770">
        <ele>328.43</ele>
        <time>2015-05-17T07:05:00Z</time>
      </trkpt>
      <trkpt lat="41.636143020" lon="2.456528670">
        <ele>328.43</ele>
        <time>2015-05-17T07:05:03Z</time>
      </trkpt>
      <trkpt lat="41.636279230" lon="2.456643840">
        <ele>329.39</ele>
        <time>2015-05-17T07:05:09Z</time>
      </trkpt>
      <trkpt lat="41.636341000" lon="2.456742240">
        <ele>329.39</ele>
        <time>2015-05-17T07:05:12Z</time>
      </trkpt>
      <trkpt lat="41.636462540" lon="2.456781470">
        <ele>329.39</ele>
        <time>2015-05-17T07:05:16Z</time>
      </trkpt>
      <trkpt lat="41.636546110" lon="2.456702770">
        <ele>330.83</ele>
        <time>2015-05-17T07:05:21Z</time>
      </trkpt>
      <trkpt lat="41.636536050" lon="2.456483330">
        <ele>331.31</ele>
        <time>2015-05-17T07:05:28Z</time>
      </trkpt>
      <trkpt lat="41.636466480" lon="2.456275710">
        <ele>332.75</ele>
        <time>2015-05-17T07:05:35Z</time>
      </trkpt>
      <trkpt lat="41.636362800" lon="2.456152660">
        <ele>333.71</ele>
        <time>2015-05-17T07:05:41Z</time>
      </trkpt>
      <trkpt lat="41.636394140" lon="2.456112340">
        <ele>334.68</ele>
        <time>2015-05-17T07:05:47Z</time>
      </trkpt>
      <trkpt lat="41.636472930" lon="2.456187030">
        <ele>335.64</ele>
        <time>2015-05-17T07:05:53Z</time>
      </trkpt>
      <trkpt lat="41.636498830" lon="2.456207310">
        <ele>336.12</ele>
        <time>2015-05-17T07:05:55Z</time>
      </trkpt>
      <trkpt lat="41.636639480" lon="2.456351900">
        <ele>337.08</ele>
        <time>2015-05-17T07:06:05Z</time>
      </trkpt>
      <trkpt lat="41.636768980" lon="2.456505040">
        <ele>338.52</ele>
        <time>2015-05-17T07:06:14Z</time>
      </trkpt>
      <trkpt lat="41.636883230" lon="2.456627410">
        <ele>340.44</ele>
        <time>2015-05-17T07:06:22Z</time>
      </trkpt>
      <trkpt lat="41.637006860" lon="2.456780970">
        <ele>341.41</ele>
        <time>2015-05-17T07:06:31Z</time>
      </trkpt>
      <trkpt lat="41.637018180" lon="2.456845090">
        <ele>341.41</ele>
        <time>2015-05-17T07:06:33Z</time>
      </trkpt>
      <trkpt lat="41.636959500" lon="2.457013480">
        <ele>341.89</ele>
        <time>2015-05-17T07:06:40Z</time>
      </trkpt>
      <trkpt lat="41.636899660" lon="2.457165700">
        <ele>343.33</ele>
        <time>2015-05-17T07:06:47Z</time>
      </trkpt>
      <trkpt lat="41.636978110" lon="2.457159910">
        <ele>343.81</ele>
        <time>2015-05-17T07:06:53Z</time>
      </trkpt>
      <trkpt lat="41.636990770" lon="2.457149100">
        <ele>343.81</ele>
        <time>2015-05-17T07:06:54Z</time>
      </trkpt>
      <trkpt lat="41.637041230" lon="2.457100570">
        <ele>345.25</ele>
        <time>2015-05-17T07:06:59Z</time>
      </trkpt>
      <trkpt lat="41.637148600" lon="2.457050360">
        <ele>346.21</ele>
        <time>2015-05-17T07:07:06Z</time>
      </trkpt>
      <trkpt lat="41.637215490" lon="2.456972660">
        <ele>347.17</ele>
        <time>2015-05-17T07:07:13Z</time>
      </trkpt>
      <trkpt lat="41.637272820" lon="2.456827910">
        <ele>348.13</ele>
        <time>2015-05-17T07:07:21Z</time>
      </trkpt>
      <trkpt lat="41.637277600" lon="2.456797900">
        <ele>348.13</ele>
        <time>2015-05-17T07:07:23Z</time>
      </trkpt>
      <trkpt lat="41.637280200" lon="2.456653560">
        <ele>349.58</ele>
        <time>2015-05-17T07:07:31Z</time>
      </trkpt>
      <trkpt lat="41.637349350" lon="2.456592290">
        <ele>351.02</ele>
        <time>2015-05-17T07:07:38Z</time>
      </trkpt>
      <trkpt lat="41.637370050" lon="2.456605280">
        <ele>351.50</ele>
        <time>2015-05-17T07:07:40Z</time>
      </trkpt>
      <trkpt lat="41.637437270" lon="2.456694640">
        <ele>352.94</ele>
        <time>2015-05-17T07:07:48Z</time>
      </trkpt>
      <trkpt lat="41.637457640" lon="2.456712150">
        <ele>352.94</ele>
        <time>2015-05-17T07:07:50Z</time>
      </trkpt>
      <trkpt lat="41.637535760" lon="2.456738640">
        <ele>353.90</ele>
        <time>2015-05-17T07:07:57Z</time>
      </trkpt>
      <trkpt lat="41.637654530" lon="2.456767980">
        <ele>355.83</ele>
        <time>2015-05-17T07:08:07Z</time>
      </trkpt>
      <trkpt lat="41.637688810" lon="2.456791950">
        <ele>356.31</ele>
        <time>2015-05-17T07:08:15Z</time>
      </trkpt>
      <trkpt lat="41.637682530" lon="2.456768560">
        <ele>356.79</ele>
        <time>2015-05-17T07:08:25Z</time>
      </trkpt>
      <trkpt lat="41.637684290" lon="2.456806790">
        <ele>356.79</ele>
        <time>2015-05-17T07:08:33Z</time>
      </trkpt>
      <trkpt lat="41.637680350" lon="2.456833610">
        <ele>356.79</ele>
        <time>2015-05-17T07:08:36Z</time>
      </trkpt>
      <trkpt lat="41.637555710" lon="2.456951880">
        <ele>356.79</ele>
        <time>2015-05-17T07:08:43Z</time>
      </trkpt>
      <trkpt lat="41.637391590" lon="2.457161590">
        <ele>356.79</ele>
        <time>2015-05-17T07:08:50Z</time>
      </trkpt>
      <trkpt lat="41.637316410" lon="2.457447920">
        <ele>354.86</ele>
        <time>2015-05-17T07:08:56Z</time>
      </trkpt>
      <trkpt lat="41.637319260" lon="2.457687810">
        <ele>354.86</ele>
        <time>2015-05-17T07:09:00Z</time>
      </trkpt>
      <trkpt lat="41.637222030" lon="2.458031300">
        <ele>354.38</ele>
        <time>2015-05-17T07:09:07Z</time>
      </trkpt>
      <trkpt lat="41.637101910" lon="2.458261130">
        <ele>353.90</ele>
        <time>2015-05-17T07:09:13Z</time>
      </trkpt>
      <trkpt lat="41.637108790" lon="2.458486270">
        <ele>353.90</ele>
        <time>2015-05-17T07:09:19Z</time>
      </trkpt>
      <trkpt lat="41.637098810" lon="2.458580730">
        <ele>353.90</ele>
        <time>2015-05-17T07:09:22Z</time>
      </trkpt>
      <trkpt lat="41.636980540" lon="2.458735540">
        <ele>353.90</ele>
        <time>2015-05-17T07:09:30Z</time>
      </trkpt>
      <trkpt lat="41.636974930" lon="2.458756080">
        <ele>353.90</ele>
        <time>2015-05-17T07:09:35Z</time>
      </trkpt>
      <trkpt lat="41.636985660" lon="2.458755910">
        <ele>353.90</ele>
        <time>2015-05-17T07:09:37Z</time>
      </trkpt>
      <trkpt lat="41.637048440" lon="2.458704700">
        <ele>353.90</ele>
        <time>2015-05-17T07:09:42Z</time>
      </trkpt>
      <trkpt lat="41.637114570" lon="2.458562960">
        <ele>353.90</ele>
        <time>2015-05-17T07:09:47Z</time>
      </trkpt>
      <trkpt lat="41.637169390" lon="2.458563800">
        <ele>353.90</ele>
        <time>2015-05-17T07:09:52Z</time>
      </trkpt>
      <trkpt lat="41.637171150" lon="2.458617020">
        <ele>355.34</ele>
        <time>2015-05-17T07:09:55Z</time>
      </trkpt>
      <trkpt lat="41.637201570" lon="2.458701260">
        <ele>356.31</ele>
        <time>2015-05-17T07:10:00Z</time>
      </trkpt>
      <trkpt lat="41.637205680" lon="2.458781980">
        <ele>357.75</ele>
        <time>2015-05-17T07:10:05Z</time>
      </trkpt>
      <trkpt lat="41.637139550" lon="2.458939560">
        <ele>359.19</ele>
        <time>2015-05-17T07:10:13Z</time>
      </trkpt>
      <trkpt lat="41.637102750" lon="2.459085740">
        <ele>361.59</ele>
        <time>2015-05-17T07:10:21Z</time>
      </trkpt>
      <trkpt lat="41.637099820" lon="2.459100910">
        <ele>362.07</ele>
        <time>2015-05-17T07:10:22Z</time>
      </trkpt>
      <trkpt lat="41.637125210" lon="2.459287580">
        <ele>364.48</ele>
        <time>2015-05-17T07:10:32Z</time>
      </trkpt>
      <trkpt lat="41.637122450" lon="2.459341140">
        <ele>364.48</ele>
        <time>2015-05-17T07:10:35Z</time>
      </trkpt>
      <trkpt lat="41.637119850" lon="2.459421600">
        <ele>364.48</ele>
        <time>2015-05-17T07:10:40Z</time>
      </trkpt>
      <trkpt lat="41.637138880" lon="2.459589580">
        <ele>364.96</ele>
        <time>2015-05-17T07:10:48Z</time>
      </trkpt>
      <trkpt lat="41.637162010" lon="2.459739450">
        <ele>365.92</ele>
        <time>2015-05-17T07:10:57Z</time>
      </trkpt>
      <trkpt lat="41.637196040" lon="2.459801810">
        <ele>366.40</ele>
        <time>2015-05-17T07:11:01Z</time>
      </trkpt>
      <trkpt lat="41.637224880" lon="2.459896610">
        <ele>366.88</ele>
        <time>2015-05-17T07:11:06Z</time>
      </trkpt>
      <trkpt lat="41.637263100" lon="2.459994840">
        <ele>367.36</ele>
        <time>2015-05-17T07:11:11Z</time>
      </trkpt>
      <trkpt lat="41.637334180" lon="2.460186960">
        <ele>368.32</ele>
        <time>2015-05-17T07:11:21Z</time>
      </trkpt>
      <trkpt lat="41.637362340" lon="2.460299520">
        <ele>368.32</ele>
        <time>2015-05-17T07:11:27Z</time>
      </trkpt>
      <trkpt lat="41.637379020" lon="2.460333970">
        <ele>368.32</ele>
        <time>2015-05-17T07:11:30Z</time>
      </trkpt>
      <trkpt lat="41.637372560" lon="2.460366660">
        <ele>368.32</ele>
        <time>2015-05-17T07:11:36Z</time>
      </trkpt>
      <trkpt lat="41.637374830" lon="2.460365240">
        <ele>368.32</ele>
        <time>2015-05-17T07:11:38Z</time>
      </trkpt>
      <trkpt lat="41.637360490" lon="2.460310920">
        <ele>368.32</ele>
        <time>2015-05-17T07:11:44Z</time>
      </trkpt>
      <trkpt lat="41.637381530" lon="2.460149740">
        <ele>368.32</ele>
        <time>2015-05-17T07:11:52Z</time>
      </trkpt>
      <trkpt lat="41.637392430" lon="2.460116880">
        <ele>368.80</ele>
        <time>2015-05-17T07:11:54Z</time>
      </trkpt>
      <trkpt lat="41.637433250" lon="2.460009510">
        <ele>369.28</ele>
        <time>2015-05-17T07:12:00Z</time>
      </trkpt>
      <trkpt lat="41.637475750" lon="2.459961570">
        <ele>369.76</ele>
        <time>2015-05-17T07:12:04Z</time>
      </trkpt>
      <trkpt lat="41.637604070" lon="2.459893250">
        <ele>370.73</ele>
        <time>2015-05-17T07:12:13Z</time>
      </trkpt>
      <trkpt lat="41.637671880" lon="2.459850670">
        <ele>370.73</ele>
        <time>2015-05-17T07:12:18Z</time>
      </trkpt>
      <trkpt lat="41.637747910" lon="2.459819410">
        <ele>370.73</ele>
        <time>2015-05-17T07:12:24Z</time>
      </trkpt>
      <trkpt lat="41.637876070" lon="2.459751850">
        <ele>371.21</ele>
        <time>2015-05-17T07:12:32Z</time>
      </trkpt>
      <trkpt lat="41.637992570" lon="2.459659060">
        <ele>371.69</ele>
        <time>2015-05-17T07:12:40Z</time>
      </trkpt>
      <trkpt lat="41.638059130" lon="2.459564600">
        <ele>373.61</ele>
        <time>2015-05-17T07:12:47Z</time>
      </trkpt>
      <trkpt lat="41.638080670" lon="2.459420930">
        <ele>375.53</ele>
        <time>2015-05-17T07:12:55Z</time>
      </trkpt>
      <trkpt lat="41.638094920" lon="2.459279780">
        <ele>377.94</ele>
        <time>2015-05-17T07:13:03Z</time>
      </trkpt>
      <trkpt lat="41.638114950" lon="2.459274420">
        <ele>378.42</ele>
        <time>2015-05-17T07:13:05Z</time>
      </trkpt>
      <trkpt lat="41.638193570" lon="2.459358490">
        <ele>379.86</ele>
        <time>2015-05-17T07:13:14Z</time>
      </trkpt>
      <trkpt lat="41.638250400" lon="2.459533840">
        <ele>380.82</ele>
        <time>2015-05-17T07:13:23Z</time>
      </trkpt>
      <trkpt lat="41.638241600" lon="2.459750010">
        <ele>380.34</ele>
        <time>2015-05-17T07:13:29Z</time>
      </trkpt>
      <trkpt lat="41.638194830" lon="2.459991240">
        <ele>380.82</ele>
        <time>2015-05-17T07:13:38Z</time>
      </trkpt>
      <trkpt lat="41.638158700" lon="2.460180420">
        <ele>383.22</ele>
        <time>2015-05-17T07:13:46Z</time>
      </trkpt>
      <trkpt lat="41.638197760" lon="2.460299610">
        <ele>384.18</ele>
        <time>2015-05-17T07:13:52Z</time>
      </trkpt>
      <trkpt lat="41.638348470" lon="2.460345710">
        <ele>386.11</ele>
        <time>2015-05-17T07:14:01Z</time>
      </trkpt>
      <trkpt lat="41.638476380" lon="2.460365410">
        <ele>387.55</ele>
        <time>2015-05-17T07:14:08Z</time>
      </trkpt>
      <trkpt lat="41.638541090" lon="2.460336660">
        <ele>388.51</ele>
        <time>2015-05-17T07:14:12Z</time>
      </trkpt>
      <trkpt lat="41.638588780" lon="2.460272370">
        <ele>389.47</ele>
        <time>2015-05-17T07:14:16Z</time>
      </trkpt>
      <trkpt lat="41.638621890" lon="2.460049910">
        <ele>389.95</ele>
        <time>2015-05-17T07:14:25Z</time>
      </trkpt>
      <trkpt lat="41.638629100" lon="2.459938180">
        <ele>389.95</ele>
        <time>2015-05-17T07:14:31Z</time>
      </trkpt>
      <trkpt lat="41.638625160" lon="2.459854190">
        <ele>389.95</ele>
        <time>2015-05-17T07:14:36Z</time>
      </trkpt>
      <trkpt lat="41.638602020" lon="2.459638780">
        <ele>389.95</ele>
        <time>2015-05-17T07:14:45Z</time>
      </trkpt>
      <trkpt lat="41.638563380" lon="2.459462170">
        <ele>390.91</ele>
        <time>2015-05-17T07:14:53Z</time>
      </trkpt>
      <trkpt lat="41.638536640" lon="2.459290510">
        <ele>391.87</ele>
        <time>2015-05-17T07:15:00Z</time>
      </trkpt>
      <trkpt lat="41.638480480" lon="2.459028320">
        <ele>392.84</ele>
        <time>2015-05-17T07:15:09Z</time>
      </trkpt>
      <trkpt lat="41.638373780" lon="2.458807290">
        <ele>393.80</ele>
        <time>2015-05-17T07:15:18Z</time>
      </trkpt>
      <trkpt lat="41.638285860" lon="2.458635880">
        <ele>394.76</ele>
        <time>2015-05-17T07:15:26Z</time>
      </trkpt>
      <trkpt lat="41.638361710" lon="2.458581490">
        <ele>396.68</ele>
        <time>2015-05-17T07:15:32Z</time>
      </trkpt>
      <trkpt lat="41.638505040" lon="2.458620130">
        <ele>399.08</ele>
        <time>2015-05-17T07:15:41Z</time>
      </trkpt>
      <trkpt lat="41.638536310" lon="2.458624740">
        <ele>399.57</ele>
        <time>2015-05-17T07:15:43Z</time>
      </trkpt>
      <trkpt lat="41.638748710" lon="2.458563800">
        <ele>401.49</ele>
        <time>2015-05-17T07:15:55Z</time>
      </trkpt>
      <trkpt lat="41.638967050" lon="2.458440750">
        <ele>401.49</ele>
        <time>2015-05-17T07:16:04Z</time>
      </trkpt>
      <trkpt lat="41.639142320" lon="2.458298430">
        <ele>402.93</ele>
        <time>2015-05-17T07:16:12Z</time>
      </trkpt>
      <trkpt lat="41.639196800" lon="2.458226260">
        <ele>402.93</ele>
        <time>2015-05-17T07:16:14Z</time>
      </trkpt>
      <trkpt lat="41.639300900" lon="2.457997690">
        <ele>401.49</ele>
        <time>2015-05-17T07:16:18Z</time>
      </trkpt>
      <trkpt lat="41.639389920" lon="2.457690820">
        <ele>401.01</ele>
        <time>2015-05-17T07:16:23Z</time>
      </trkpt>
      <trkpt lat="41.639490340" lon="2.457455540">
        <ele>401.01</ele>
        <time>2015-05-17T07:16:29Z</time>
      </trkpt>
      <trkpt lat="41.639523280" lon="2.457416070">
        <ele>402.45</ele>
        <time>2015-05-17T07:16:31Z</time>
      </trkpt>
      <trkpt lat="41.639640290" lon="2.457497620">
        <ele>404.85</ele>
        <time>2015-05-17T07:16:38Z</time>
      </trkpt>
      <trkpt lat="41.639660490" lon="2.457688230">
        <ele>407.74</ele>
        <time>2015-05-17T07:16:47Z</time>
      </trkpt>
      <trkpt lat="41.639642300" lon="2.457828710">
        <ele>409.66</ele>
        <time>2015-05-17T07:16:54Z</time>
      </trkpt>
      <trkpt lat="41.639619580" lon="2.458045460">
        <ele>411.58</ele>
        <time>2015-05-17T07:17:03Z</time>
      </trkpt>
      <trkpt lat="41.639590920" lon="2.458275550">
        <ele>413.50</ele>
        <time>2015-05-17T07:17:12Z</time>
      </trkpt>
      <trkpt lat="41.639534010" lon="2.458435810">
        <ele>415.91</ele>
        <time>2015-05-17T07:17:20Z</time>
      </trkpt>
      <trkpt lat="41.639499220" lon="2.458600180">
        <ele>417.83</ele>
        <time>2015-05-17T07:17:28Z</time>
      </trkpt>
      <trkpt lat="41.639452700" lon="2.458777620">
        <ele>419.75</ele>
        <time>2015-05-17T07:17:36Z</time>
      </trkpt>
      <trkpt lat="41.639422860" lon="2.458950880">
        <ele>422.64</ele>
        <time>2015-05-17T07:17:45Z</time>
      </trkpt>
      <trkpt lat="41.639396460" lon="2.459079540">
        <ele>424.56</ele>
        <time>2015-05-17T07:17:52Z</time>
      </trkpt>
      <trkpt lat="41.639425880" lon="2.459251370">
        <ele>426.48</ele>
        <time>2015-05-17T07:18:00Z</time>
      </trkpt>
      <trkpt lat="41.639548090" lon="2.459395540">
        <ele>426.96</ele>
        <time>2015-05-17T07:18:09Z</time>
      </trkpt>
      <trkpt lat="41.639633830" lon="2.459504500">
        <ele>428.40</ele>
        <time>2015-05-17T07:18:16Z</time>
      </trkpt>
      <trkpt lat="41.639675410" lon="2.459555290">
        <ele>429.37</ele>
        <time>2015-05-17T07:18:20Z</time>
      </trkpt>
      <trkpt lat="41.639757800" lon="2.459688900">
        <ele>429.85</ele>
        <time>2015-05-17T07:18:29Z</time>
      </trkpt>
      <trkpt lat="41.639805500" lon="2.459858720">
        <ele>431.29</ele>
        <time>2015-05-17T07:18:38Z</time>
      </trkpt>
      <trkpt lat="41.639841620" lon="2.460011190">
        <ele>433.21</ele>
        <time>2015-05-17T07:18:48Z</time>
      </trkpt>
      <trkpt lat="41.639853190" lon="2.460027030">
        <ele>433.21</ele>
        <time>2015-05-17T07:18:49Z</time>
      </trkpt>
      <trkpt lat="41.639860480" lon="2.460099450">
        <ele>434.17</ele>
        <time>2015-05-17T07:18:53Z</time>
      </trkpt>
      <trkpt lat="41.639873140" lon="2.460161060">
        <ele>435.13</ele>
        <time>2015-05-17T07:18:57Z</time>
      </trkpt>
      <trkpt lat="41.639913960" lon="2.460232050">
        <ele>436.10</ele>
        <time>2015-05-17T07:19:01Z</time>
      </trkpt>
      <trkpt lat="41.639996440" lon="2.460362720">
        <ele>438.02</ele>
        <time>2015-05-17T07:19:10Z</time>
      </trkpt>
      <trkpt lat="41.640056620" lon="2.460497920">
        <ele>439.94</ele>
        <time>2015-05-17T07:19:19Z</time>
      </trkpt>
      <trkpt lat="41.640107080" lon="2.460626000">
        <ele>441.86</ele>
        <time>2015-05-17T07:19:27Z</time>
      </trkpt>
      <trkpt lat="41.640188210" lon="2.460769250">
        <ele>443.31</ele>
        <time>2015-05-17T07:19:35Z</time>
      </trkpt>
      <trkpt lat="41.640265910" lon="2.460904530">
        <ele>444.27</ele>
        <time>2015-05-17T07:19:43Z</time>
      </trkpt>
      <trkpt lat="41.640381500" lon="2.461050210">
        <ele>446.67</ele>
        <time>2015-05-17T07:19:54Z</time>
      </trkpt>
      <trkpt lat="41.640509160" lon="2.461165460">
        <ele>448.11</ele>
        <time>2015-05-17T07:20:04Z</time>
      </trkpt>
      <trkpt lat="41.640525330" lon="2.461175180">
        <ele>448.11</ele>
        <time>2015-05-17T07:20:05Z</time>
      </trkpt>
      <trkpt lat="41.640616280" lon="2.461251540">
        <ele>448.11</ele>
        <time>2015-05-17T07:20:10Z</time>
      </trkpt>
      <trkpt lat="41.640652650" lon="2.461294620">
        <ele>448.11</ele>
        <time>2015-05-17T07:20:12Z</time>
      </trkpt>
      <trkpt lat="41.640722220" lon="2.461267470">
        <ele>449.07</ele>
        <time>2015-05-17T07:20:17Z</time>
      </trkpt>
      <trkpt lat="41.640730860" lon="2.461250620">
        <ele>450.03</ele>
        <time>2015-05-17T07:20:27Z</time>
      </trkpt>
      <trkpt lat="41.640779640" lon="2.461259760">
        <ele>451.00</ele>
        <time>2015-05-17T07:20:34Z</time>
      </trkpt>
      <trkpt lat="41.640807300" lon="2.461241230">
        <ele>451.00</ele>
        <time>2015-05-17T07:20:41Z</time>
      </trkpt>
      <trkpt lat="41.640828260" lon="2.461233940">
        <ele>451.00</ele>
        <time>2015-05-17T07:20:48Z</time>
      </trkpt>
      <trkpt lat="41.640834960" lon="2.461243750">
        <ele>451.00</ele>
        <time>2015-05-17T07:20:56Z</time>
      </trkpt>
      <trkpt lat="41.640907300" lon="2.461369310">
        <ele>451.00</ele>
        <time>2015-05-17T07:21:05Z</time>
      </trkpt>
      <trkpt lat="41.641026820" lon="2.461567620">
        <ele>451.96</ele>
        <time>2015-05-17T07:21:16Z</time>
      </trkpt>
      <trkpt lat="41.641117770" lon="2.461701650">
        <ele>452.92</ele>
        <time>2015-05-17T07:21:24Z</time>
      </trkpt>
      <trkpt lat="41.641151380" lon="2.461736010">
        <ele>453.40</ele>
        <time>2015-05-17T07:21:27Z</time>
      </trkpt>
      <trkpt lat="41.641195210" lon="2.461745150">
        <ele>453.40</ele>
        <time>2015-05-17T07:21:31Z</time>
      </trkpt>
      <trkpt lat="41.641223460" lon="2.461753030">
        <ele>453.40</ele>
        <time>2015-05-17T07:21:37Z</time>
      </trkpt>
      <trkpt lat="41.641233770" lon="2.461755210">
        <ele>453.40</ele>
        <time>2015-05-17T07:21:50Z</time>
      </trkpt>
      <trkpt lat="41.641282050" lon="2.461769630">
        <ele>453.40</ele>
        <time>2015-05-17T07:21:56Z</time>
      </trkpt>
      <trkpt lat="41.641303170" lon="2.461760240">
        <ele>453.40</ele>
        <time>2015-05-17T07:22:04Z</time>
      </trkpt>
      <trkpt lat="41.641426050" lon="2.461744060">
        <ele>451.96</ele>
        <time>2015-05-17T07:22:11Z</time>
      </trkpt>
      <trkpt lat="41.641581960" lon="2.461725710">
        <ele>451.00</ele>
        <time>2015-05-17T07:22:16Z</time>
      </trkpt>
      <trkpt lat="41.641667790" lon="2.461719500">
        <ele>450.52</ele>
        <time>2015-05-17T07:22:21Z</time>
      </trkpt>
      <trkpt lat="41.641676590" lon="2.461726120">
        <ele>450.52</ele>
        <time>2015-05-17T07:22:22Z</time>
      </trkpt>
      <trkpt lat="41.641690080" lon="2.461766690">
        <ele>450.52</ele>
        <time>2015-05-17T07:22:25Z</time>
      </trkpt>
      <trkpt lat="41.641674580" lon="2.461809190">
        <ele>451.48</ele>
        <time>2015-05-17T07:22:28Z</time>
      </trkpt>
      <trkpt lat="41.641695360" lon="2.461949840">
        <ele>454.36</ele>
        <time>2015-05-17T07:22:37Z</time>
      </trkpt>
      <trkpt lat="41.641727550" lon="2.462092580">
        <ele>455.32</ele>
        <time>2015-05-17T07:22:44Z</time>
      </trkpt>
      <trkpt lat="41.641801980" lon="2.462252000">
        <ele>456.28</ele>
        <time>2015-05-17T07:22:53Z</time>
      </trkpt>
      <trkpt lat="41.641826200" lon="2.462343370">
        <ele>457.24</ele>
        <time>2015-05-17T07:22:58Z</time>
      </trkpt>
      <trkpt lat="41.641787730" lon="2.462454600">
        <ele>458.69</ele>
        <time>2015-05-17T07:23:05Z</time>
      </trkpt>
      <trkpt lat="41.641782790" lon="2.462562220">
        <ele>459.65</ele>
        <time>2015-05-17T07:23:11Z</time>
      </trkpt>
      <trkpt lat="41.641778510" lon="2.462605050">
        <ele>460.13</ele>
        <time>2015-05-17T07:23:13Z</time>
      </trkpt>
      <trkpt lat="41.641724200" lon="2.462735390">
        <ele>461.09</ele>
        <time>2015-05-17T07:23:20Z</time>
      </trkpt>
      <trkpt lat="41.641720340" lon="2.462759450">
        <ele>461.09</ele>
        <time>2015-05-17T07:23:21Z</time>
      </trkpt>
      <trkpt lat="41.641656220" lon="2.462951560">
        <ele>462.53</ele>
        <time>2015-05-17T07:23:31Z</time>
      </trkpt>
      <trkpt lat="41.641606430" lon="2.463161110">
        <ele>463.01</ele>
        <time>2015-05-17T07:23:39Z</time>
      </trkpt>
      <trkpt lat="41.641593770" lon="2.463312060">
        <ele>463.01</ele>
        <time>2015-05-17T07:23:44Z</time>
      </trkpt>
      <trkpt lat="41.641604420" lon="2.463429330">
        <ele>462.53</ele>
        <time>2015-05-17T07:23:48Z</time>
      </trkpt>
      <trkpt lat="41.641612800" lon="2.463618760">
        <ele>463.01</ele>
        <time>2015-05-17T07:23:57Z</time>
      </trkpt>
      <trkpt lat="41.641613560" lon="2.463660000">
        <ele>463.01</ele>
        <time>2015-05-17T07:23:59Z</time>
      </trkpt>
      <trkpt lat="41.641596210" lon="2.463790590">
        <ele>463.01</ele>
        <time>2015-05-17T07:24:07Z</time>
      </trkpt>
      <trkpt lat="41.641582380" lon="2.463831490">
        <ele>463.01</ele>
        <time>2015-05-17T07:24:16Z</time>
      </trkpt>
      <trkpt lat="41.641575590" lon="2.463893680">
        <ele>463.01</ele>
        <time>2015-05-17T07:24:23Z</time>
      </trkpt>
      <trkpt lat="41.641572070" lon="2.463878680">
        <ele>463.01</ele>
        <time>2015-05-17T07:24:35Z</time>
      </trkpt>
      <trkpt lat="41.641579020" lon="2.463876920">
        <ele>463.01</ele>
        <time>2015-05-17T07:24:50Z</time>
      </trkpt>
      <trkpt lat="41.641606680" lon="2.463899720">
        <ele>463.01</ele>
        <time>2015-05-17T07:25:09Z</time>
      </trkpt>
      <trkpt lat="41.641598130" lon="2.463910620">
        <ele>463.01</ele>
        <time>2015-05-17T07:25:28Z</time>
      </trkpt>
      <trkpt lat="41.641584970" lon="2.463890580">
        <ele>463.01</ele>
        <time>2015-05-17T07:25:51Z</time>
      </trkpt>
      <trkpt lat="41.641582710" lon="2.463889330">
        <ele>463.01</ele>
        <time>2015-05-17T07:26:12Z</time>
      </trkpt>
      <trkpt lat="41.641590510" lon="2.463888240">
        <ele>463.01</ele>
        <time>2015-05-17T07:26:35Z</time>
      </trkpt>
      <trkpt lat="41.641577760" lon="2.463876420">
        <ele>462.53</ele>
        <time>2015-05-17T07:26:58Z</time>
      </trkpt>
      <trkpt lat="41.641569720" lon="2.463881200">
        <ele>462.53</ele>
        <time>2015-05-17T07:27:17Z</time>
      </trkpt>
      <trkpt lat="41.641563520" lon="2.463890500">
        <ele>463.01</ele>
        <time>2015-05-17T07:27:36Z</time>
      </trkpt>
      <trkpt lat="41.641570310" lon="2.463898040">
        <ele>463.01</ele>
        <time>2015-05-17T07:27:51Z</time>
      </trkpt>
      <trkpt lat="41.641571230" lon="2.463912120">
        <ele>463.01</ele>
        <time>2015-05-17T07:28:11Z</time>
      </trkpt>
      <trkpt lat="41.641569220" lon="2.463900980">
        <ele>463.01</ele>
        <time>2015-05-17T07:28:30Z</time>
      </trkpt>
      <trkpt lat="41.641566530" lon="2.463902070">
        <ele>463.01</ele>
        <time>2015-05-17T07:28:55Z</time>
      </trkpt>
      <trkpt lat="41.641584220" lon="2.463906680">
        <ele>463.01</ele>
        <time>2015-05-17T07:29:21Z</time>
      </trkpt>
      <trkpt lat="41.641583550" lon="2.463898460">
        <ele>462.53</ele>
        <time>2015-05-17T07:29:43Z</time>
      </trkpt>
      <trkpt lat="41.641573990" lon="2.463897040">
        <ele>462.53</ele>
        <time>2015-05-17T07:29:58Z</time>
      </trkpt>
      <trkpt lat="41.641571650" lon="2.463924450">
        <ele>462.53</ele>
        <time>2015-05-17T07:30:19Z</time>
      </trkpt>
      <trkpt lat="41.641587320" lon="2.463932740">
        <ele>463.01</ele>
        <time>2015-05-17T07:30:46Z</time>
      </trkpt>
      <trkpt lat="41.641580610" lon="2.463918160">
        <ele>463.01</ele>
        <time>2015-05-17T07:31:09Z</time>
      </trkpt>
      <trkpt lat="41.641582460" lon="2.463906010">
        <ele>463.01</ele>
        <time>2015-05-17T07:31:29Z</time>
      </trkpt>
      <trkpt lat="41.641589920" lon="2.463904160">
        <ele>463.01</ele>
        <time>2015-05-17T07:31:54Z</time>
      </trkpt>
      <trkpt lat="41.641596960" lon="2.463905170">
        <ele>463.01</ele>
        <time>2015-05-17T07:32:10Z</time>
      </trkpt>
      <trkpt lat="41.641596370" lon="2.463915390">
        <ele>463.01</ele>
        <time>2015-05-17T07:32:19Z</time>
      </trkpt>
      <trkpt lat="41.641596790" lon="2.463919670">
        <ele>463.01</ele>
        <time>2015-05-17T07:32:37Z</time>
      </trkpt>
      <trkpt lat="41.641585060" lon="2.463929140">
        <ele>463.01</ele>
        <time>2015-05-17T07:32:49Z</time>
      </trkpt>
      <trkpt lat="41.641587070" lon="2.463997620">
        <ele>462.53</ele>
        <time>2015-05-17T07:32:55Z</time>
      </trkpt>
      <trkpt lat="41.641594860" lon="2.464197700">
        <ele>462.53</ele>
        <time>2015-05-17T07:33:05Z</time>
      </trkpt>
      <trkpt lat="41.641586570" lon="2.464339850">
        <ele>462.53</ele>
        <time>2015-05-17T07:33:12Z</time>
      </trkpt>
      <trkpt lat="41.641570810" lon="2.464495340">
        <ele>463.01</ele>
        <time>2015-05-17T07:33:18Z</time>
      </trkpt>
      <trkpt lat="41.641571560" lon="2.464706480">
        <ele>463.97</ele>
        <time>2015-05-17T07:33:26Z</time>
      </trkpt>
      <trkpt lat="41.641595120" lon="2.464975370">
        <ele>465.42</ele>
        <time>2015-05-17T07:33:36Z</time>
      </trkpt>
      <trkpt lat="41.641608690" lon="2.465135300">
        <ele>466.86</ele>
        <time>2015-05-17T07:33:42Z</time>
      </trkpt>
      <trkpt lat="41.641624960" lon="2.465293710">
        <ele>467.82</ele>
        <time>2015-05-17T07:33:49Z</time>
      </trkpt>
      <trkpt lat="41.641642980" lon="2.465436210">
        <ele>468.30</ele>
        <time>2015-05-17T07:33:55Z</time>
      </trkpt>
      <trkpt lat="41.641654460" lon="2.465647010">
        <ele>471.18</ele>
        <time>2015-05-17T07:34:04Z</time>
      </trkpt>
      <trkpt lat="41.641651610" lon="2.465831660">
        <ele>471.66</ele>
        <time>2015-05-17T07:34:10Z</time>
      </trkpt>
      <trkpt lat="41.641627550" lon="2.466101390">
        <ele>471.66</ele>
        <time>2015-05-17T07:34:17Z</time>
      </trkpt>
      <trkpt lat="41.641620350" lon="2.466238020">
        <ele>470.22</ele>
        <time>2015-05-17T07:34:20Z</time>
      </trkpt>
      <trkpt lat="41.641607690" lon="2.466341700">
        <ele>468.30</ele>
        <time>2015-05-17T07:34:22Z</time>
      </trkpt>
      <trkpt lat="41.641594530" lon="2.466499870">
        <ele>466.86</ele>
        <time>2015-05-17T07:34:25Z</time>
      </trkpt>
      <trkpt lat="41.641536360" lon="2.466727610">
        <ele>465.42</ele>
        <time>2015-05-17T07:34:29Z</time>
      </trkpt>
      <trkpt lat="41.641438040" lon="2.467083170">
        <ele>462.05</ele>
        <time>2015-05-17T07:34:35Z</time>
      </trkpt>
      <trkpt lat="41.641301080" lon="2.467364210">
        <ele>458.69</ele>
        <time>2015-05-17T07:34:41Z</time>
      </trkpt>
      <trkpt lat="41.641262610" lon="2.467452640">
        <ele>458.21</ele>
        <time>2015-05-17T07:34:43Z</time>
      </trkpt>
      <trkpt lat="41.641334860" lon="2.467717840">
        <ele>455.32</ele>
        <time>2015-05-17T07:34:48Z</time>
      </trkpt>
      <trkpt lat="41.641404760" lon="2.467879870">
        <ele>455.32</ele>
        <time>2015-05-17T07:34:52Z</time>
      </trkpt>
      <trkpt lat="41.641394620" lon="2.467916660">
        <ele>455.32</ele>
        <time>2015-05-17T07:34:53Z</time>
      </trkpt>
      <trkpt lat="41.641352210" lon="2.468087490">
        <ele>454.84</ele>
        <time>2015-05-17T07:34:57Z</time>
      </trkpt>
      <trkpt lat="41.641410040" lon="2.468306920">
        <ele>452.92</ele>
        <time>2015-05-17T07:35:01Z</time>
      </trkpt>
      <trkpt lat="41.641463520" lon="2.468761980">
        <ele>451.48</ele>
        <time>2015-05-17T07:35:08Z</time>
      </trkpt>
      <trkpt lat="41.641599560" lon="2.469034140">
        <ele>451.00</ele>
        <time>2015-05-17T07:35:13Z</time>
      </trkpt>
      <trkpt lat="41.641609110" lon="2.469233630">
        <ele>450.52</ele>
        <time>2015-05-17T07:35:17Z</time>
      </trkpt>
      <trkpt lat="41.641639620" lon="2.469416180">
        <ele>450.52</ele>
        <time>2015-05-17T07:35:22Z</time>
      </trkpt>
      <trkpt lat="41.641631830" lon="2.469610810">
        <ele>450.52</ele>
        <time>2015-05-17T07:35:27Z</time>
      </trkpt>
      <trkpt lat="41.641505600" lon="2.469678120">
        <ele>450.52</ele>
        <time>2015-05-17T07:35:32Z</time>
      </trkpt>
      <trkpt lat="41.641379200" lon="2.469727820">
        <ele>451.48</ele>
        <time>2015-05-17T07:35:37Z</time>
      </trkpt>
      <trkpt lat="41.641190770" lon="2.469840140">
        <ele>453.40</ele>
        <time>2015-05-17T07:35:45Z</time>
      </trkpt>
      <trkpt lat="41.641020540" lon="2.469986070">
        <ele>454.84</ele>
        <time>2015-05-17T07:35:52Z</time>
      </trkpt>
      <trkpt lat="41.640967480" lon="2.470135520">
        <ele>455.32</ele>
        <time>2015-05-17T07:35:57Z</time>
      </trkpt>
      <trkpt lat="41.640955660" lon="2.470159070">
        <ele>455.80</ele>
        <time>2015-05-17T07:35:59Z</time>
      </trkpt>
      <trkpt lat="41.640905620" lon="2.470088250">
        <ele>454.36</ele>
        <time>2015-05-17T07:36:05Z</time>
      </trkpt>
      <trkpt lat="41.640832530" lon="2.470069970">
        <ele>453.40</ele>
        <time>2015-05-17T07:36:10Z</time>
      </trkpt>
      <trkpt lat="41.640792720" lon="2.470143990">
        <ele>452.44</ele>
        <time>2015-05-17T07:36:13Z</time>
      </trkpt>
      <trkpt lat="41.640739070" lon="2.470430480">
        <ele>450.52</ele>
        <time>2015-05-17T07:36:20Z</time>
      </trkpt>
      <trkpt lat="41.640747870" lon="2.470632570">
        <ele>450.03</ele>
        <time>2015-05-17T07:36:26Z</time>
      </trkpt>
      <trkpt lat="41.640765810" lon="2.470890560">
        <ele>448.11</ele>
        <time>2015-05-17T07:36:31Z</time>
      </trkpt>
      <trkpt lat="41.640753400" lon="2.471024500">
        <ele>447.63</ele>
        <time>2015-05-17T07:36:33Z</time>
      </trkpt>
      <trkpt lat="41.640796910" lon="2.471305550">
        <ele>445.23</ele>
        <time>2015-05-17T07:36:38Z</time>
      </trkpt>
      <trkpt lat="41.640876370" lon="2.471459440">
        <ele>443.31</ele>
        <time>2015-05-17T07:36:43Z</time>
      </trkpt>
      <trkpt lat="41.640919790" lon="2.471535550">
        <ele>442.82</ele>
        <time>2015-05-17T07:36:46Z</time>
      </trkpt>
      <trkpt lat="41.640882230" lon="2.471645270">
        <ele>442.34</ele>
        <time>2015-05-17T07:36:51Z</time>
      </trkpt>
      <trkpt lat="41.640838480" lon="2.471682400">
        <ele>441.86</ele>
        <time>2015-05-17T07:36:56Z</time>
      </trkpt>
      <trkpt lat="41.640824820" lon="2.471692960">
        <ele>441.86</ele>
        <time>2015-05-17T07:36:57Z</time>
      </trkpt>
      <trkpt lat="41.640687270" lon="2.471725400">
        <ele>440.42</ele>
        <time>2015-05-17T07:37:05Z</time>
      </trkpt>
      <trkpt lat="41.640521900" lon="2.471757500">
        <ele>437.54</ele>
        <time>2015-05-17T07:37:12Z</time>
      </trkpt>
      <trkpt lat="41.640342020" lon="2.471845850">
        <ele>435.13</ele>
        <time>2015-05-17T07:37:18Z</time>
      </trkpt>
      <trkpt lat="41.640296590" lon="2.471898490">
        <ele>434.65</ele>
        <time>2015-05-17T07:37:20Z</time>
      </trkpt>
      <trkpt lat="41.640230040" lon="2.471975260">
        <ele>433.21</ele>
        <time>2015-05-17T07:37:23Z</time>
      </trkpt>
      <trkpt lat="41.640112190" lon="2.472134270">
        <ele>430.33</ele>
        <time>2015-05-17T07:37:28Z</time>
      </trkpt>
      <trkpt lat="41.640088470" lon="2.472278600">
        <ele>428.40</ele>
        <time>2015-05-17T07:37:33Z</time>
      </trkpt>
      <trkpt lat="41.640077660" lon="2.472375160">
        <ele>426.96</ele>
        <time>2015-05-17T07:37:38Z</time>
      </trkpt>
      <trkpt lat="41.640088550" lon="2.472402990">
        <ele>426.96</ele>
        <time>2015-05-17T07:37:46Z</time>
      </trkpt>
      <trkpt lat="41.640083690" lon="2.472420340">
        <ele>426.96</ele>
        <time>2015-05-17T07:37:55Z</time>
      </trkpt>
      <trkpt lat="41.640075640" lon="2.472526630">
        <ele>426.48</ele>
        <time>2015-05-17T07:38:01Z</time>
      </trkpt>
      <trkpt lat="41.640030380" lon="2.472729380">
        <ele>426.00</ele>
        <time>2015-05-17T07:38:09Z</time>
      </trkpt>
      <trkpt lat="41.639975140" lon="2.472963150">
        <ele>425.52</ele>
        <time>2015-05-17T07:38:16Z</time>
      </trkpt>
      <trkpt lat="41.639950920" lon="2.473089220">
        <ele>425.52</ele>
        <time>2015-05-17T07:38:20Z</time>
      </trkpt>
      <trkpt lat="41.639953440" lon="2.473162140">
        <ele>425.52</ele>
        <time>2015-05-17T07:38:26Z</time>
      </trkpt>
      <trkpt lat="41.639968440" lon="2.473221320">
        <ele>425.52</ele>
        <time>2015-05-17T07:38:29Z</time>
      </trkpt>
      <trkpt lat="41.640029630" lon="2.473358280">
        <ele>426.96</ele>
        <time>2015-05-17T07:38:38Z</time>
      </trkpt>
      <trkpt lat="41.640054610" lon="2.473432460">
        <ele>426.96</ele>
        <time>2015-05-17T07:38:42Z</time>
      </trkpt>
      <trkpt lat="41.640051590" lon="2.473487190">
        <ele>426.96</ele>
        <time>2015-05-17T07:38:48Z</time>
      </trkpt>
      <trkpt lat="41.640045220" lon="2.473520470">
        <ele>426.48</ele>
        <time>2015-05-17T07:39:01Z</time>
      </trkpt>
      <trkpt lat="41.639955620" lon="2.473610240">
        <ele>426.48</ele>
        <time>2015-05-17T07:39:09Z</time>
      </trkpt>
      <trkpt lat="41.639918900" lon="2.473638400">
        <ele>426.48</ele>
        <time>2015-05-17T07:39:11Z</time>
      </trkpt>
      <trkpt lat="41.639775660" lon="2.473905030">
        <ele>427.44</ele>
        <time>2015-05-17T07:39:22Z</time>
      </trkpt>
      <trkpt lat="41.639642380" lon="2.474060600">
        <ele>428.40</ele>
        <time>2015-05-17T07:39:29Z</time>
      </trkpt>
      <trkpt lat="41.639447840" lon="2.474176270">
        <ele>428.89</ele>
        <time>2015-05-17T07:39:37Z</time>
      </trkpt>
      <trkpt lat="41.639319930" lon="2.474304850">
        <ele>429.37</ele>
        <time>2015-05-17T07:39:43Z</time>
      </trkpt>
      <trkpt lat="41.639308280" lon="2.474466700">
        <ele>429.85</ele>
        <time>2015-05-17T07:39:50Z</time>
      </trkpt>
      <trkpt lat="41.639331000" lon="2.474625200">
        <ele>430.81</ele>
        <time>2015-05-17T07:39:57Z</time>
      </trkpt>
      <trkpt lat="41.639379190" lon="2.474798460">
        <ele>431.77</ele>
        <time>2015-05-17T07:40:05Z</time>
      </trkpt>
      <trkpt lat="41.639396790" lon="2.474881940">
        <ele>432.73</ele>
        <time>2015-05-17T07:40:09Z</time>
      </trkpt>
      <trkpt lat="41.639439120" lon="2.475014040">
        <ele>433.69</ele>
        <time>2015-05-17T07:40:15Z</time>
      </trkpt>
      <trkpt lat="41.639467790" lon="2.475227440">
        <ele>433.69</ele>
        <time>2015-05-17T07:40:23Z</time>
      </trkpt>
      <trkpt lat="41.639440300" lon="2.475433050">
        <ele>434.17</ele>
        <time>2015-05-17T07:40:30Z</time>
      </trkpt>
      <trkpt lat="41.639392600" lon="2.475704790">
        <ele>434.17</ele>
        <time>2015-05-17T07:40:37Z</time>
      </trkpt>
      <trkpt lat="41.639336700" lon="2.475936300">
        <ele>434.17</ele>
        <time>2015-05-17T07:40:44Z</time>
      </trkpt>
      <trkpt lat="41.639336280" lon="2.476141570">
        <ele>434.17</ele>
        <time>2015-05-17T07:40:51Z</time>
      </trkpt>
      <trkpt lat="41.639334010" lon="2.476386160">
        <ele>435.61</ele>
        <time>2015-05-17T07:40:59Z</time>
      </trkpt>
      <trkpt lat="41.639269810" lon="2.476584300">
        <ele>437.06</ele>
        <time>2015-05-17T07:41:06Z</time>
      </trkpt>
      <trkpt lat="41.639226390" lon="2.476800140">
        <ele>438.02</ele>
        <time>2015-05-17T07:41:13Z</time>
      </trkpt>
      <trkpt lat="41.639190930" lon="2.477087810">
        <ele>438.02</ele>
        <time>2015-05-17T07:41:21Z</time>
      </trkpt>
      <trkpt lat="41.639115580" lon="2.477355860">
        <ele>438.98</ele>
        <time>2015-05-17T07:41:29Z</time>
      </trkpt>
      <trkpt lat="41.639091690" lon="2.477549650">
        <ele>439.46</ele>
        <time>2015-05-17T07:41:35Z</time>
      </trkpt>
      <trkpt lat="41.639107030" lon="2.477758610">
        <ele>439.46</ele>
        <time>2015-05-17T07:41:41Z</time>
      </trkpt>
      <trkpt lat="41.639151870" lon="2.478049630">
        <ele>439.94</ele>
        <time>2015-05-17T07:41:49Z</time>
      </trkpt>
      <trkpt lat="41.639126390" lon="2.478263620">
        <ele>440.90</ele>
        <time>2015-05-17T07:41:55Z</time>
      </trkpt>
      <trkpt lat="41.639088670" lon="2.478396050">
        <ele>441.38</ele>
        <time>2015-05-17T07:41:59Z</time>
      </trkpt>
      <trkpt lat="41.639069400" lon="2.478576770">
        <ele>442.34</ele>
        <time>2015-05-17T07:42:05Z</time>
      </trkpt>
      <trkpt lat="41.639102420" lon="2.478780780">
        <ele>442.82</ele>
        <time>2015-05-17T07:42:11Z</time>
      </trkpt>
      <trkpt lat="41.639107030" lon="2.478817910">
        <ele>442.82</ele>
        <time>2015-05-17T07:42:12Z</time>
      </trkpt>
      <trkpt lat="41.639116920" lon="2.479049250">
        <ele>444.27</ele>
        <time>2015-05-17T07:42:19Z</time>
      </trkpt>
      <trkpt lat="41.639097390" lon="2.479262160">
        <ele>444.75</ele>
        <time>2015-05-17T07:42:26Z</time>
      </trkpt>
      <trkpt lat="41.639086580" lon="2.479320740">
        <ele>444.75</ele>
        <time>2015-05-17T07:42:28Z</time>
      </trkpt>
      <trkpt lat="41.639106860" lon="2.479360560">
        <ele>445.71</ele>
        <time>2015-05-17T07:42:32Z</time>
      </trkpt>
      <trkpt lat="41.639132510" lon="2.479352010">
        <ele>445.71</ele>
        <time>2015-05-17T07:42:35Z</time>
      </trkpt>
      <trkpt lat="41.639182470" lon="2.479271290">
        <ele>447.15</ele>
        <time>2015-05-17T07:42:41Z</time>
      </trkpt>
      <trkpt lat="41.639296460" lon="2.479075240">
        <ele>449.07</ele>
        <time>2015-05-17T07:42:50Z</time>
      </trkpt>
      <trkpt lat="41.639405760" lon="2.478892600">
        <ele>450.52</ele>
        <time>2015-05-17T07:42:59Z</time>
      </trkpt>
      <trkpt lat="41.639457390" lon="2.478850020">
        <ele>451.00</ele>
        <time>2015-05-17T07:43:02Z</time>
      </trkpt>
      <trkpt lat="41.639544320" lon="2.478931490">
        <ele>451.96</ele>
        <time>2015-05-17T07:43:08Z</time>
      </trkpt>
      <trkpt lat="41.639566020" lon="2.479150170">
        <ele>453.88</ele>
        <time>2015-05-17T07:43:17Z</time>
      </trkpt>
      <trkpt lat="41.639598710" lon="2.479327280">
        <ele>455.32</ele>
        <time>2015-05-17T07:43:25Z</time>
      </trkpt>
      <trkpt lat="41.639618080" lon="2.479503720">
        <ele>456.76</ele>
        <time>2015-05-17T07:43:32Z</time>
      </trkpt>
      <trkpt lat="41.639652020" lon="2.479718720">
        <ele>458.69</ele>
        <time>2015-05-17T07:43:41Z</time>
      </trkpt>
      <trkpt lat="41.639712880" lon="2.479908900">
        <ele>459.65</ele>
        <time>2015-05-17T07:43:49Z</time>
      </trkpt>
      <trkpt lat="41.639762660" lon="2.480131860">
        <ele>462.05</ele>
        <time>2015-05-17T07:43:58Z</time>
      </trkpt>
      <trkpt lat="41.639765680" lon="2.480337720">
        <ele>463.97</ele>
        <time>2015-05-17T07:44:06Z</time>
      </trkpt>
      <trkpt lat="41.639775490" lon="2.480606780">
        <ele>466.38</ele>
        <time>2015-05-17T07:44:16Z</time>
      </trkpt>
      <trkpt lat="41.639783450" lon="2.480673080">
        <ele>466.38</ele>
        <time>2015-05-17T07:44:18Z</time>
      </trkpt>
      <trkpt lat="41.639847740" lon="2.480922270">
        <ele>467.82</ele>
        <time>2015-05-17T07:44:28Z</time>
      </trkpt>
      <trkpt lat="41.639877830" lon="2.481098550">
        <ele>469.26</ele>
        <time>2015-05-17T07:44:36Z</time>
      </trkpt>
      <trkpt lat="41.639934830" lon="2.481194270">
        <ele>469.74</ele>
        <time>2015-05-17T07:44:41Z</time>
      </trkpt>
      <trkpt lat="41.639999120" lon="2.481176330">
        <ele>470.70</ele>
        <time>2015-05-17T07:44:48Z</time>
      </trkpt>
      <trkpt lat="41.640004650" lon="2.481158140">
        <ele>471.66</ele>
        <time>2015-05-17T07:44:49Z</time>
      </trkpt>
      <trkpt lat="41.640029540" lon="2.481117150">
        <ele>472.14</ele>
        <time>2015-05-17T07:44:52Z</time>
      </trkpt>
      <trkpt lat="41.640082520" lon="2.481020590">
        <ele>473.11</ele>
        <time>2015-05-17T07:44:58Z</time>
      </trkpt>
      <trkpt lat="41.640174130" lon="2.480863940">
        <ele>473.59</ele>
        <time>2015-05-17T07:45:06Z</time>
      </trkpt>
      <trkpt lat="41.640270270" lon="2.480661850">
        <ele>474.55</ele>
        <time>2015-05-17T07:45:15Z</time>
      </trkpt>
      <trkpt lat="41.640425000" lon="2.480436960">
        <ele>474.55</ele>
        <time>2015-05-17T07:45:22Z</time>
      </trkpt>
      <trkpt lat="41.640474790" lon="2.480174690">
        <ele>472.14</ele>
        <time>2015-05-17T07:45:26Z</time>
      </trkpt>
      <trkpt lat="41.640493400" lon="2.480022140">
        <ele>471.66</ele>
        <time>2015-05-17T07:45:28Z</time>
      </trkpt>
      <trkpt lat="41.640580400" lon="2.479752500">
        <ele>471.18</ele>
        <time>2015-05-17T07:45:32Z</time>
      </trkpt>
      <trkpt lat="41.640842420" lon="2.479381600">
        <ele>471.18</ele>
        <time>2015-05-17T07:45:41Z</time>
      </trkpt>
      <trkpt lat="41.640941580" lon="2.479170880">
        <ele>471.18</ele>
        <time>2015-05-17T07:45:47Z</time>
      </trkpt>
      <trkpt lat="41.641080380" lon="2.479048670">
        <ele>472.14</ele>
        <time>2015-05-17T07:45:53Z</time>
      </trkpt>
      <trkpt lat="41.641101420" lon="2.479038780">
        <ele>473.11</ele>
        <time>2015-05-17T07:45:54Z</time>
      </trkpt>
      <trkpt lat="41.641231260" lon="2.478880280">
        <ele>475.99</ele>
        <time>2015-05-17T07:46:02Z</time>
      </trkpt>
      <trkpt lat="41.641284230" lon="2.478724540">
        <ele>477.43</ele>
        <time>2015-05-17T07:46:08Z</time>
      </trkpt>
      <trkpt lat="41.641317340" lon="2.478563860">
        <ele>478.87</ele>
        <time>2015-05-17T07:46:14Z</time>
      </trkpt>
      <trkpt lat="41.641352540" lon="2.478415080">
        <ele>478.87</ele>
        <time>2015-05-17T07:46:19Z</time>
      </trkpt>
      <trkpt lat="41.641440800" lon="2.478175190">
        <ele>479.35</ele>
        <time>2015-05-17T07:46:27Z</time>
      </trkpt>
      <trkpt lat="41.641599140" lon="2.478019370">
        <ele>477.43</ele>
        <time>2015-05-17T07:46:33Z</time>
      </trkpt>
      <trkpt lat="41.641707100" lon="2.477947790">
        <ele>475.99</ele>
        <time>2015-05-17T07:46:36Z</time>
      </trkpt>
      <trkpt lat="41.641811620" lon="2.477744780">
        <ele>474.07</ele>
        <time>2015-05-17T07:46:40Z</time>
      </trkpt>
      <trkpt lat="41.641876830" lon="2.477639750">
        <ele>473.11</ele>
        <time>2015-05-17T07:46:42Z</time>
      </trkpt>
      <trkpt lat="41.641964920" lon="2.477588880">
        <ele>471.18</ele>
        <time>2015-05-17T07:46:44Z</time>
      </trkpt>
      <trkpt lat="41.642063330" lon="2.477544450">
        <ele>469.26</ele>
        <time>2015-05-17T07:46:46Z</time>
      </trkpt>
      <trkpt lat="41.642201460" lon="2.477411350">
        <ele>467.82</ele>
        <time>2015-05-17T07:46:49Z</time>
      </trkpt>
      <trkpt lat="41.642248320" lon="2.477353090">
        <ele>466.86</ele>
        <time>2015-05-17T07:46:50Z</time>
      </trkpt>
      <trkpt lat="41.642468590" lon="2.476891590">
        <ele>465.42</ele>
        <time>2015-05-17T07:46:57Z</time>
      </trkpt>
      <trkpt lat="41.642527100" lon="2.476781360">
        <ele>465.42</ele>
        <time>2015-05-17T07:46:59Z</time>
      </trkpt>
      <trkpt lat="41.642651910" lon="2.476502670">
        <ele>462.53</ele>
        <time>2015-05-17T07:47:04Z</time>
      </trkpt>
      <trkpt lat="41.642696080" lon="2.476349110">
        <ele>460.13</ele>
        <time>2015-05-17T07:47:07Z</time>
      </trkpt>
      <trkpt lat="41.642770840" lon="2.476187170">
        <ele>459.17</ele>
        <time>2015-05-17T07:47:10Z</time>
      </trkpt>
      <trkpt lat="41.642858690" lon="2.476027410">
        <ele>457.72</ele>
        <time>2015-05-17T07:47:13Z</time>
      </trkpt>
      <trkpt lat="41.642869500" lon="2.475971920">
        <ele>456.76</ele>
        <time>2015-05-17T07:47:14Z</time>
      </trkpt>
      <trkpt lat="41.642876540" lon="2.475835050">
        <ele>455.80</ele>
        <time>2015-05-17T07:47:16Z</time>
      </trkpt>
      <trkpt lat="41.642880480" lon="2.475765810">
        <ele>455.80</ele>
        <time>2015-05-17T07:47:17Z</time>
      </trkpt>
      <trkpt lat="41.643001430" lon="2.475408830">
        <ele>454.36</ele>
        <time>2015-05-17T07:47:23Z</time>
      </trkpt>
      <trkpt lat="41.643075690" lon="2.475294830">
        <ele>453.88</ele>
        <time>2015-05-17T07:47:25Z</time>
      </trkpt>
      <trkpt lat="41.643246270" lon="2.475047230">
        <ele>451.48</ele>
        <time>2015-05-17T07:47:31Z</time>
      </trkpt>
      <trkpt lat="41.643331510" lon="2.474966090">
        <ele>450.03</ele>
        <time>2015-05-17T07:47:34Z</time>
      </trkpt>
      <trkpt lat="41.643467210" lon="2.474910440">
        <ele>447.15</ele>
        <time>2015-05-17T07:47:39Z</time>
      </trkpt>
      <trkpt lat="41.643498560" lon="2.474895440">
        <ele>445.23</ele>
        <time>2015-05-17T07:47:43Z</time>
      </trkpt>
      <trkpt lat="41.643519680" lon="2.474894930">
        <ele>445.71</ele>
        <time>2015-05-17T07:47:55Z</time>
      </trkpt>
      <trkpt lat="41.643534770" lon="2.474881270">
        <ele>445.23</ele>
        <time>2015-05-17T07:48:01Z</time>
      </trkpt>
      <trkpt lat="41.643675590" lon="2.474975400">
        <ele>440.90</ele>
        <time>2015-05-17T07:48:07Z</time>
      </trkpt>
      <trkpt lat="41.643676260" lon="2.475093830">
        <ele>439.46</ele>
        <time>2015-05-17T07:48:10Z</time>
      </trkpt>
      <trkpt lat="41.643638040" lon="2.475150830">
        <ele>438.50</ele>
        <time>2015-05-17T07:48:12Z</time>
      </trkpt>
      <trkpt lat="41.643492360" lon="2.475464650">
        <ele>438.50</ele>
        <time>2015-05-17T07:48:20Z</time>
      </trkpt>
      <trkpt lat="41.643450700" lon="2.475691630">
        <ele>438.02</ele>
        <time>2015-05-17T07:48:25Z</time>
      </trkpt>
      <trkpt lat="41.643351630" lon="2.475870750">
        <ele>437.06</ele>
        <time>2015-05-17T07:48:29Z</time>
      </trkpt>
      <trkpt lat="41.643364030" lon="2.476054990">
        <ele>436.58</ele>
        <time>2015-05-17T07:48:33Z</time>
      </trkpt>
      <trkpt lat="41.643494870" lon="2.476419180">
        <ele>436.10</ele>
        <time>2015-05-17T07:48:40Z</time>
      </trkpt>
      <trkpt lat="41.643510630" lon="2.476635100">
        <ele>436.10</ele>
        <time>2015-05-17T07:48:45Z</time>
      </trkpt>
      <trkpt lat="41.643423210" lon="2.476881690">
        <ele>436.10</ele>
        <time>2015-05-17T07:48:51Z</time>
      </trkpt>
      <trkpt lat="41.643410970" lon="2.476993510">
        <ele>436.10</ele>
        <time>2015-05-17T07:48:53Z</time>
      </trkpt>
      <trkpt lat="41.643385830" lon="2.477156450">
        <ele>434.65</ele>
        <time>2015-05-17T07:48:56Z</time>
      </trkpt>
      <trkpt lat="41.643428320" lon="2.477384940">
        <ele>432.73</ele>
        <time>2015-05-17T07:49:00Z</time>
      </trkpt>
      <trkpt lat="41.643375600" lon="2.477668590">
        <ele>429.85</ele>
        <time>2015-05-17T07:49:05Z</time>
      </trkpt>
      <trkpt lat="41.643297310" lon="2.477731450">
        <ele>427.44</ele>
        <time>2015-05-17T07:49:07Z</time>
      </trkpt>
      <trkpt lat="41.643190110" lon="2.477794740">
        <ele>425.52</ele>
        <time>2015-05-17T07:49:10Z</time>
      </trkpt>
      <trkpt lat="41.643184910" lon="2.477849390">
        <ele>424.56</ele>
        <time>2015-05-17T07:49:15Z</time>
      </trkpt>
      <trkpt lat="41.643192290" lon="2.477845280">
        <ele>424.56</ele>
        <time>2015-05-17T07:49:16Z</time>
      </trkpt>
      <trkpt lat="41.643230260" lon="2.477855090">
        <ele>424.08</ele>
        <time>2015-05-17T07:49:22Z</time>
      </trkpt>
      <trkpt lat="41.643288340" lon="2.477846450">
        <ele>423.60</ele>
        <time>2015-05-17T07:49:28Z</time>
      </trkpt>
      <trkpt lat="41.643356910" lon="2.477852240">
        <ele>423.12</ele>
        <time>2015-05-17T07:49:30Z</time>
      </trkpt>
      <trkpt lat="41.643448440" lon="2.477879310">
        <ele>422.64</ele>
        <time>2015-05-17T07:49:32Z</time>
      </trkpt>
      <trkpt lat="41.643671980" lon="2.477759700">
        <ele>420.23</ele>
        <time>2015-05-17T07:49:37Z</time>
      </trkpt>
      <trkpt lat="41.643782370" lon="2.477479910">
        <ele>418.31</ele>
        <time>2015-05-17T07:49:41Z</time>
      </trkpt>
      <trkpt lat="41.643861670" lon="2.477165760">
        <ele>415.91</ele>
        <time>2015-05-17T07:49:45Z</time>
      </trkpt>
      <trkpt lat="41.644062830" lon="2.477028210">
        <ele>414.47</ele>
        <time>2015-05-17T07:49:50Z</time>
      </trkpt>
      <trkpt lat="41.644213120" lon="2.476944980">
        <ele>413.02</ele>
        <time>2015-05-17T07:49:54Z</time>
      </trkpt>
      <trkpt lat="41.644218990" lon="2.476879520">
        <ele>412.54</ele>
        <time>2015-05-17T07:49:55Z</time>
      </trkpt>
      <trkpt lat="41.644217560" lon="2.476737690">
        <ele>411.58</ele>
        <time>2015-05-17T07:49:57Z</time>
      </trkpt>
      <trkpt lat="41.644171130" lon="2.476420690">
        <ele>409.66</ele>
        <time>2015-05-17T07:50:02Z</time>
      </trkpt>
      <trkpt lat="41.644050430" lon="2.476220530">
        <ele>407.74</ele>
        <time>2015-05-17T07:50:06Z</time>
      </trkpt>
      <trkpt lat="41.644080940" lon="2.476106280">
        <ele>406.77</ele>
        <time>2015-05-17T07:50:09Z</time>
      </trkpt>
      <trkpt lat="41.644167190" lon="2.475952560">
        <ele>405.33</ele>
        <time>2015-05-17T07:50:14Z</time>
      </trkpt>
      <trkpt lat="41.644220660" lon="2.475803870">
        <ele>403.89</ele>
        <time>2015-05-17T07:50:18Z</time>
      </trkpt>
      <trkpt lat="41.644274060" lon="2.475748130">
        <ele>403.89</ele>
        <time>2015-05-17T07:50:20Z</time>
      </trkpt>
      <trkpt lat="41.644448650" lon="2.475389130">
        <ele>401.97</ele>
        <time>2015-05-17T07:50:26Z</time>
      </trkpt>
      <trkpt lat="41.644481680" lon="2.475232050">
        <ele>401.97</ele>
        <time>2015-05-17T07:50:28Z</time>
      </trkpt>
      <trkpt lat="41.644547220" lon="2.474873060">
        <ele>400.05</ele>
        <time>2015-05-17T07:50:33Z</time>
      </trkpt>
      <trkpt lat="41.644567840" lon="2.474729720">
        <ele>399.08</ele>
        <time>2015-05-17T07:50:35Z</time>
      </trkpt>
      <trkpt lat="41.644612180" lon="2.474623190">
        <ele>398.12</ele>
        <time>2015-05-17T07:50:37Z</time>
      </trkpt>
      <trkpt lat="41.644738330" lon="2.474571730">
        <ele>397.64</ele>
        <time>2015-05-17T07:50:41Z</time>
      </trkpt>
      <trkpt lat="41.644786270" lon="2.474580190">
        <ele>398.12</ele>
        <time>2015-05-17T07:50:43Z</time>
      </trkpt>
      <trkpt lat="41.644889960" lon="2.474619840">
        <ele>399.57</ele>
        <time>2015-05-17T07:50:48Z</time>
      </trkpt>
      <trkpt lat="41.645083160" lon="2.474635760">
        <ele>400.05</ele>
        <time>2015-05-17T07:50:55Z</time>
      </trkpt>
      <trkpt lat="41.645297740" lon="2.474621430">
        <ele>400.05</ele>
        <time>2015-05-17T07:51:02Z</time>
      </trkpt>
      <trkpt lat="41.645411980" lon="2.474467120">
        <ele>400.53</ele>
        <time>2015-05-17T07:51:08Z</time>
      </trkpt>
      <trkpt lat="41.645446260" lon="2.474270310">
        <ele>402.45</ele>
        <time>2015-05-17T07:51:15Z</time>
      </trkpt>
      <trkpt lat="41.645453810" lon="2.474156490">
        <ele>404.85</ele>
        <time>2015-05-17T07:51:22Z</time>
      </trkpt>
      <trkpt lat="41.645466470" lon="2.474044170">
        <ele>407.26</ele>
        <time>2015-05-17T07:51:30Z</time>
      </trkpt>
      <trkpt lat="41.645466050" lon="2.473918520">
        <ele>408.22</ele>
        <time>2015-05-17T07:51:38Z</time>
      </trkpt>
      <trkpt lat="41.645485660" lon="2.473786930">
        <ele>408.70</ele>
        <time>2015-05-17T07:51:46Z</time>
      </trkpt>
      <trkpt lat="41.645535780" lon="2.473686850">
        <ele>408.70</ele>
        <time>2015-05-17T07:51:54Z</time>
      </trkpt>
      <trkpt lat="41.645607620" lon="2.473575960">
        <ele>408.70</ele>
        <time>2015-05-17T07:52:01Z</time>
      </trkpt>
      <trkpt lat="41.645649270" lon="2.473430780">
        <ele>408.70</ele>
        <time>2015-05-17T07:52:09Z</time>
      </trkpt>
      <trkpt lat="41.645691180" lon="2.473286950">
        <ele>408.70</ele>
        <time>2015-05-17T07:52:16Z</time>
      </trkpt>
      <trkpt lat="41.645704430" lon="2.473225840">
        <ele>408.70</ele>
        <time>2015-05-17T07:52:19Z</time>
      </trkpt>
      <trkpt lat="41.645715320" lon="2.473092990">
        <ele>409.66</ele>
        <time>2015-05-17T07:52:26Z</time>
      </trkpt>
      <trkpt lat="41.645723960" lon="2.473038420">
        <ele>410.14</ele>
        <time>2015-05-17T07:52:29Z</time>
      </trkpt>
      <trkpt lat="41.645742480" lon="2.472942950">
        <ele>411.10</ele>
        <time>2015-05-17T07:52:34Z</time>
      </trkpt>
      <trkpt lat="41.645761930" lon="2.472809770">
        <ele>411.58</ele>
        <time>2015-05-17T07:52:41Z</time>
      </trkpt>
      <trkpt lat="41.645850690" lon="2.472509530">
        <ele>407.74</ele>
        <time>2015-05-17T07:52:48Z</time>
      </trkpt>
      <trkpt lat="41.645878270" lon="2.472180290">
        <ele>403.41</ele>
        <time>2015-05-17T07:52:53Z</time>
      </trkpt>
      <trkpt lat="41.645867040" lon="2.471930590">
        <ele>401.49</ele>
        <time>2015-05-17T07:52:58Z</time>
      </trkpt>
      <trkpt lat="41.645834260" lon="2.471793460">
        <ele>399.57</ele>
        <time>2015-05-17T07:53:00Z</time>
      </trkpt>
      <trkpt lat="41.645798810" lon="2.471602600">
        <ele>397.64</ele>
        <time>2015-05-17T07:53:03Z</time>
      </trkpt>
      <trkpt lat="41.645831660" lon="2.471510820">
        <ele>396.68</ele>
        <time>2015-05-17T07:53:05Z</time>
      </trkpt>
      <trkpt lat="41.645974910" lon="2.471227180">
        <ele>399.08</ele>
        <time>2015-05-17T07:53:14Z</time>
      </trkpt>
      <trkpt lat="41.645995030" lon="2.471119300">
        <ele>399.08</ele>
        <time>2015-05-17T07:53:16Z</time>
      </trkpt>
      <trkpt lat="41.646013720" lon="2.470881430">
        <ele>395.72</ele>
        <time>2015-05-17T07:53:20Z</time>
      </trkpt>
      <trkpt lat="41.646064600" lon="2.470694260">
        <ele>394.76</ele>
        <time>2015-05-17T07:53:23Z</time>
      </trkpt>
      <trkpt lat="41.646077000" lon="2.470397450">
        <ele>394.76</ele>
        <time>2015-05-17T07:53:29Z</time>
      </trkpt>
      <trkpt lat="41.646056470" lon="2.470295870">
        <ele>396.20</ele>
        <time>2015-05-17T07:53:32Z</time>
      </trkpt>
      <trkpt lat="41.645993600" lon="2.470025210">
        <ele>397.64</ele>
        <time>2015-05-17T07:53:40Z</time>
      </trkpt>
      <trkpt lat="41.645983210" lon="2.469905690">
        <ele>398.12</ele>
        <time>2015-05-17T07:53:43Z</time>
      </trkpt>
      <trkpt lat="41.646050850" lon="2.469611480">
        <ele>396.20</ele>
        <time>2015-05-17T07:53:48Z</time>
      </trkpt>
      <trkpt lat="41.646154950" lon="2.469319630">
        <ele>395.72</ele>
        <time>2015-05-17T07:53:55Z</time>
      </trkpt>
      <trkpt lat="41.646227120" lon="2.469123320">
        <ele>395.72</ele>
        <time>2015-05-17T07:54:01Z</time>
      </trkpt>
      <trkpt lat="41.646257300" lon="2.469011590">
        <ele>395.24</ele>
        <time>2015-05-17T07:54:07Z</time>
      </trkpt>
      <trkpt lat="41.646354190" lon="2.468774130">
        <ele>395.24</ele>
        <time>2015-05-17T07:54:14Z</time>
      </trkpt>
      <trkpt lat="41.646441950" lon="2.468681180">
        <ele>396.68</ele>
        <time>2015-05-17T07:54:18Z</time>
      </trkpt>
      <trkpt lat="41.646516550" lon="2.468634240">
        <ele>396.68</ele>
        <time>2015-05-17T07:54:21Z</time>
      </trkpt>
      <trkpt lat="41.646726270" lon="2.468725940">
        <ele>397.16</ele>
        <time>2015-05-17T07:54:28Z</time>
      </trkpt>
      <trkpt lat="41.646784940" lon="2.468734990">
        <ele>397.16</ele>
        <time>2015-05-17T07:54:30Z</time>
      </trkpt>
      <trkpt lat="41.646836650" lon="2.468606660">
        <ele>397.64</ele>
        <time>2015-05-17T07:54:35Z</time>
      </trkpt>
      <trkpt lat="41.646836820" lon="2.468567940">
        <ele>398.12</ele>
        <time>2015-05-17T07:54:36Z</time>
      </trkpt>
      <trkpt lat="41.646833640" lon="2.468259900">
        <ele>398.12</ele>
        <time>2015-05-17T07:54:43Z</time>
      </trkpt>
      <trkpt lat="41.646827600" lon="2.468212880">
        <ele>397.16</ele>
        <time>2015-05-17T07:54:44Z</time>
      </trkpt>
      <trkpt lat="41.646839340" lon="2.468047760">
        <ele>395.72</ele>
        <time>2015-05-17T07:54:47Z</time>
      </trkpt>
      <trkpt lat="41.646834980" lon="2.467778950">
        <ele>393.32</ele>
        <time>2015-05-17T07:54:51Z</time>
      </trkpt>
      <trkpt lat="41.646788880" lon="2.467455740">
        <ele>391.39</ele>
        <time>2015-05-17T07:54:56Z</time>
      </trkpt>
      <trkpt lat="41.646797850" lon="2.467389360">
        <ele>391.39</ele>
        <time>2015-05-17T07:54:57Z</time>
      </trkpt>
      <trkpt lat="41.646903790" lon="2.466908650">
        <ele>390.43</ele>
        <time>2015-05-17T07:55:05Z</time>
      </trkpt>
      <trkpt lat="41.646951650" lon="2.466707910">
        <ele>388.51</ele>
        <time>2015-05-17T07:55:10Z</time>
      </trkpt>
      <trkpt lat="41.646969090" lon="2.466703800">
        <ele>388.03</ele>
        <time>2015-05-17T07:55:14Z</time>
      </trkpt>
      <trkpt lat="41.647081320" lon="2.466743030">
        <ele>386.59</ele>
        <time>2015-05-17T07:55:18Z</time>
      </trkpt>
      <trkpt lat="41.647175200" lon="2.466754260">
        <ele>384.18</ele>
        <time>2015-05-17T07:55:20Z</time>
      </trkpt>
      <trkpt lat="41.647444260" lon="2.466803040">
        <ele>382.26</ele>
        <time>2015-05-17T07:55:24Z</time>
      </trkpt>
      <trkpt lat="41.647670320" lon="2.466863310">
        <ele>379.38</ele>
        <time>2015-05-17T07:55:27Z</time>
      </trkpt>
      <trkpt lat="41.647957230" lon="2.467112080">
        <ele>375.05</ele>
        <time>2015-05-17T07:55:32Z</time>
      </trkpt>
      <trkpt lat="41.648204830" lon="2.467288020">
        <ele>371.69</ele>
        <time>2015-05-17T07:55:36Z</time>
      </trkpt>
      <trkpt lat="41.648643630" lon="2.467603770">
        <ele>366.88</ele>
        <time>2015-05-17T07:55:43Z</time>
      </trkpt>
      <trkpt lat="41.648774800" lon="2.467686160">
        <ele>365.92</ele>
        <time>2015-05-17T07:55:45Z</time>
      </trkpt>
      <trkpt lat="41.649009910" lon="2.467858910">
        <ele>363.52</ele>
        <time>2015-05-17T07:55:49Z</time>
      </trkpt>
      <trkpt lat="41.649223570" lon="2.468144150">
        <ele>360.63</ele>
        <time>2015-05-17T07:55:54Z</time>
      </trkpt>
      <trkpt lat="41.649449460" lon="2.468399460">
        <ele>359.67</ele>
        <time>2015-05-17T07:55:59Z</time>
      </trkpt>
      <trkpt lat="41.649647610" lon="2.468536090">
        <ele>358.71</ele>
        <time>2015-05-17T07:56:03Z</time>
      </trkpt>
      <trkpt lat="41.649823970" lon="2.468460560">
        <ele>358.71</ele>
        <time>2015-05-17T07:56:08Z</time>
      </trkpt>
      <trkpt lat="41.649851960" lon="2.468362830">
        <ele>358.71</ele>
        <time>2015-05-17T07:56:11Z</time>
      </trkpt>
      <trkpt lat="41.649833770" lon="2.468182370">
        <ele>358.71</ele>
        <time>2015-05-17T07:56:20Z</time>
      </trkpt>
      <trkpt lat="41.649835360" lon="2.468163590">
        <ele>358.71</ele>
        <time>2015-05-17T07:56:26Z</time>
      </trkpt>
      <trkpt lat="41.649823800" lon="2.468125370">
        <ele>358.71</ele>
        <time>2015-05-17T07:56:40Z</time>
      </trkpt>
      <trkpt lat="41.649780710" lon="2.468015820">
        <ele>360.15</ele>
        <time>2015-05-17T07:56:46Z</time>
      </trkpt>
      <trkpt lat="41.649662110" lon="2.467855140">
        <ele>360.63</ele>
        <time>2015-05-17T07:56:54Z</time>
      </trkpt>
      <trkpt lat="41.649530010" lon="2.467664530">
        <ele>360.63</ele>
        <time>2015-05-17T07:57:01Z</time>
      </trkpt>
      <trkpt lat="41.649407970" lon="2.467514330">
        <ele>360.63</ele>
        <time>2015-05-17T07:57:07Z</time>
      </trkpt>
      <trkpt lat="41.649345270" lon="2.467406880">
        <ele>360.63</ele>
        <time>2015-05-17T07:57:13Z</time>
      </trkpt>
      <trkpt lat="41.649272270" lon="2.467231610">
        <ele>360.63</ele>
        <time>2015-05-17T07:57:19Z</time>
      </trkpt>
      <trkpt lat="41.649263470" lon="2.466974620">
        <ele>359.19</ele>
        <time>2015-05-17T07:57:25Z</time>
      </trkpt>
      <trkpt lat="41.649266480" lon="2.466897340">
        <ele>358.71</ele>
        <time>2015-05-17T07:57:27Z</time>
      </trkpt>
      <trkpt lat="41.649323150" lon="2.466663230">
        <ele>357.27</ele>
        <time>2015-05-17T07:57:32Z</time>
      </trkpt>
      <trkpt lat="41.649443850" lon="2.466492160">
        <ele>356.31</ele>
        <time>2015-05-17T07:57:37Z</time>
      </trkpt>
      <trkpt lat="41.649463540" lon="2.466465170">
        <ele>355.83</ele>
        <time>2015-05-17T07:57:40Z</time>
      </trkpt>
      <trkpt lat="41.649514000" lon="2.466407080">
        <ele>355.34</ele>
        <time>2015-05-17T07:57:44Z</time>
      </trkpt>
      <trkpt lat="41.649705860" lon="2.466315970">
        <ele>352.46</ele>
        <time>2015-05-17T07:57:51Z</time>
      </trkpt>
      <trkpt lat="41.649924460" lon="2.466322340">
        <ele>351.02</ele>
        <time>2015-05-17T07:57:57Z</time>
      </trkpt>
      <trkpt lat="41.650122440" lon="2.466211450">
        <ele>350.06</ele>
        <time>2015-05-17T07:58:03Z</time>
      </trkpt>
      <trkpt lat="41.650251270" lon="2.465991760">
        <ele>348.13</ele>
        <time>2015-05-17T07:58:08Z</time>
      </trkpt>
      <trkpt lat="41.650381030" lon="2.465791010">
        <ele>346.21</ele>
        <time>2015-05-17T07:58:14Z</time>
      </trkpt>
      <trkpt lat="41.650514890" lon="2.465606110">
        <ele>344.29</ele>
        <time>2015-05-17T07:58:20Z</time>
      </trkpt>
      <trkpt lat="41.650560400" lon="2.465536370">
        <ele>343.33</ele>
        <time>2015-05-17T07:58:22Z</time>
      </trkpt>
      <trkpt lat="41.650682520" lon="2.465515080">
        <ele>341.89</ele>
        <time>2015-05-17T07:58:26Z</time>
      </trkpt>
      <trkpt lat="41.650867850" lon="2.465665370">
        <ele>338.04</ele>
        <time>2015-05-17T07:58:33Z</time>
      </trkpt>
      <trkpt lat="41.651090050" lon="2.465839710">
        <ele>334.68</ele>
        <time>2015-05-17T07:58:40Z</time>
      </trkpt>
      <trkpt lat="41.651154760" lon="2.465877600">
        <ele>333.71</ele>
        <time>2015-05-17T07:58:42Z</time>
      </trkpt>
      <trkpt lat="41.651218970" lon="2.465898720">
        <ele>333.23</ele>
        <time>2015-05-17T07:58:44Z</time>
      </trkpt>
      <trkpt lat="41.651419210" lon="2.465867870">
        <ele>328.91</ele>
        <time>2015-05-17T07:58:49Z</time>
      </trkpt>
      <trkpt lat="41.651440250" lon="2.465841720">
        <ele>328.91</ele>
        <time>2015-05-17T07:58:50Z</time>
      </trkpt>
      <trkpt lat="41.651474450" lon="2.465787410">
        <ele>328.43</ele>
        <time>2015-05-17T07:58:52Z</time>
      </trkpt>
      <trkpt lat="41.651520460" lon="2.465719350">
        <ele>327.95</ele>
        <time>2015-05-17T07:58:54Z</time>
      </trkpt>
      <trkpt lat="41.651613420" lon="2.465530920">
        <ele>325.54</ele>
        <time>2015-05-17T07:58:58Z</time>
      </trkpt>
      <trkpt lat="41.651639820" lon="2.465400670">
        <ele>324.10</ele>
        <time>2015-05-17T07:59:01Z</time>
      </trkpt>
      <trkpt lat="41.651672090" lon="2.465172010">
        <ele>322.18</ele>
        <time>2015-05-17T07:59:06Z</time>
      </trkpt>
      <trkpt lat="41.651712410" lon="2.464895570">
        <ele>321.22</ele>
        <time>2015-05-17T07:59:12Z</time>
      </trkpt>
      <trkpt lat="41.651715430" lon="2.464645620">
        <ele>320.26</ele>
        <time>2015-05-17T07:59:17Z</time>
      </trkpt>
      <trkpt lat="41.651768060" lon="2.464331140">
        <ele>319.30</ele>
        <time>2015-05-17T07:59:23Z</time>
      </trkpt>
      <trkpt lat="41.651781390" lon="2.464281510">
        <ele>319.30</ele>
        <time>2015-05-17T07:59:24Z</time>
      </trkpt>
      <trkpt lat="41.651806290" lon="2.464194680">
        <ele>318.81</ele>
        <time>2015-05-17T07:59:26Z</time>
      </trkpt>
      <trkpt lat="41.651947860" lon="2.464014300">
        <ele>316.89</ele>
        <time>2015-05-17T07:59:31Z</time>
      </trkpt>
      <trkpt lat="41.651980290" lon="2.463638870">
        <ele>314.49</ele>
        <time>2015-05-17T07:59:36Z</time>
      </trkpt>
      <trkpt lat="41.651997390" lon="2.463480880">
        <ele>314.49</ele>
        <time>2015-05-17T07:59:38Z</time>
      </trkpt>
      <trkpt lat="41.651994120" lon="2.463220620">
        <ele>314.49</ele>
        <time>2015-05-17T07:59:42Z</time>
      </trkpt>
      <trkpt lat="41.652040060" lon="2.462778640">
        <ele>314.49</ele>
        <time>2015-05-17T07:59:50Z</time>
      </trkpt>
      <trkpt lat="41.652062350" lon="2.462735720">
        <ele>314.49</ele>
        <time>2015-05-17T07:59:51Z</time>
      </trkpt>
      <trkpt lat="41.652170650" lon="2.462477140">
        <ele>313.05</ele>
        <time>2015-05-17T07:59:56Z</time>
      </trkpt>
      <trkpt lat="41.652174500" lon="2.462419140">
        <ele>313.05</ele>
        <time>2015-05-17T07:59:57Z</time>
      </trkpt>
      <trkpt lat="41.652189420" lon="2.462266670">
        <ele>312.09</ele>
        <time>2015-05-17T07:59:59Z</time>
      </trkpt>
      <trkpt lat="41.652182880" lon="2.462019070">
        <ele>311.12</ele>
        <time>2015-05-17T08:00:02Z</time>
      </trkpt>
      <trkpt lat="41.652209120" lon="2.461707100">
        <ele>310.16</ele>
        <time>2015-05-17T08:00:06Z</time>
      </trkpt>
      <trkpt lat="41.652219010" lon="2.461591850">
        <ele>308.72</ele>
        <time>2015-05-17T08:00:08Z</time>
      </trkpt>
      <trkpt lat="41.652192610" lon="2.461338290">
        <ele>307.28</ele>
        <time>2015-05-17T08:00:12Z</time>
      </trkpt>
      <trkpt lat="41.652170230" lon="2.461140980">
        <ele>305.36</ele>
        <time>2015-05-17T08:00:15Z</time>
      </trkpt>
      <trkpt lat="41.652100410" lon="2.460687770">
        <ele>303.43</ele>
        <time>2015-05-17T08:00:21Z</time>
      </trkpt>
      <trkpt lat="41.652095710" lon="2.460437410">
        <ele>301.51</ele>
        <time>2015-05-17T08:00:25Z</time>
      </trkpt>
      <trkpt lat="41.652083810" lon="2.460294830">
        <ele>300.55</ele>
        <time>2015-05-17T08:00:27Z</time>
      </trkpt>
      <trkpt lat="41.652091940" lon="2.460154100">
        <ele>300.07</ele>
        <time>2015-05-17T08:00:29Z</time>
      </trkpt>
      <trkpt lat="41.652044250" lon="2.459965920">
        <ele>298.63</ele>
        <time>2015-05-17T08:00:32Z</time>
      </trkpt>
      <trkpt lat="41.651996470" lon="2.459711450">
        <ele>298.63</ele>
        <time>2015-05-17T08:00:36Z</time>
      </trkpt>
      <trkpt lat="41.652029500" lon="2.459534840">
        <ele>296.70</ele>
        <time>2015-05-17T08:00:41Z</time>
      </trkpt>
      <trkpt lat="41.652044830" lon="2.459530650">
        <ele>297.18</ele>
        <time>2015-05-17T08:00:46Z</time>
      </trkpt>
      <trkpt lat="41.652046850" lon="2.459530400">
        <ele>297.18</ele>
        <time>2015-05-17T08:01:02Z</time>
      </trkpt>
      <trkpt lat="41.652043160" lon="2.459527970">
        <ele>297.18</ele>
        <time>2015-05-17T08:01:19Z</time>
      </trkpt>
      <trkpt lat="41.652042320" lon="2.459532330">
        <ele>297.18</ele>
        <time>2015-05-17T08:01:30Z</time>
      </trkpt>
      <trkpt lat="41.652066630" lon="2.459564260">
        <ele>297.18</ele>
        <time>2015-05-17T08:01:40Z</time>
      </trkpt>
      <trkpt lat="41.652082220" lon="2.459586890">
        <ele>296.22</ele>
        <time>2015-05-17T08:01:46Z</time>
      </trkpt>
      <trkpt lat="41.652156480" lon="2.459745310">
        <ele>295.74</ele>
        <time>2015-05-17T08:01:53Z</time>
      </trkpt>
      <trkpt lat="41.652239550" lon="2.459963240">
        <ele>294.30</ele>
        <time>2015-05-17T08:01:59Z</time>
      </trkpt>
      <trkpt lat="41.652426130" lon="2.460107910">
        <ele>291.42</ele>
        <time>2015-05-17T08:02:05Z</time>
      </trkpt>
      <trkpt lat="41.652640540" lon="2.460278740">
        <ele>289.01</ele>
        <time>2015-05-17T08:02:11Z</time>
      </trkpt>
      <trkpt lat="41.652860980" lon="2.460375380">
        <ele>286.13</ele>
        <time>2015-05-17T08:02:17Z</time>
      </trkpt>
      <trkpt lat="41.652887970" lon="2.460400860">
        <ele>285.65</ele>
        <time>2015-05-17T08:02:21Z</time>
      </trkpt>
      <trkpt lat="41.652833240" lon="2.460440260">
        <ele>285.17</ele>
        <time>2015-05-17T08:02:27Z</time>
      </trkpt>
      <trkpt lat="41.652753270" lon="2.460563390">
        <ele>285.17</ele>
        <time>2015-05-17T08:02:34Z</time>
      </trkpt>
      <trkpt lat="41.652680600" lon="2.460765060">
        <ele>286.61</ele>
        <time>2015-05-17T08:02:41Z</time>
      </trkpt>
      <trkpt lat="41.652664930" lon="2.460819200">
        <ele>286.61</ele>
        <time>2015-05-17T08:02:43Z</time>
      </trkpt>
      <trkpt lat="41.652685040" lon="2.460980720">
        <ele>287.09</ele>
        <time>2015-05-17T08:02:48Z</time>
      </trkpt>
      <trkpt lat="41.652859390" lon="2.461210050">
        <ele>287.57</ele>
        <time>2015-05-17T08:02:56Z</time>
      </trkpt>
      <trkpt lat="41.652895600" lon="2.461437200">
        <ele>287.57</ele>
        <time>2015-05-17T08:03:02Z</time>
      </trkpt>
      <trkpt lat="41.652863160" lon="2.461729390">
        <ele>287.57</ele>
        <time>2015-05-17T08:03:08Z</time>
      </trkpt>
      <trkpt lat="41.652927780" lon="2.461947320">
        <ele>287.57</ele>
        <time>2015-05-17T08:03:14Z</time>
      </trkpt>
      <trkpt lat="41.653092910" lon="2.462127110">
        <ele>288.05</ele>
        <time>2015-05-17T08:03:20Z</time>
      </trkpt>
      <trkpt lat="41.653130790" lon="2.462270530">
        <ele>288.05</ele>
        <time>2015-05-17T08:03:23Z</time>
      </trkpt>
      <trkpt lat="41.653132720" lon="2.462399690">
        <ele>286.61</ele>
        <time>2015-05-17T08:03:25Z</time>
      </trkpt>
      <trkpt lat="41.653052340" lon="2.462741090">
        <ele>284.69</ele>
        <time>2015-05-17T08:03:30Z</time>
      </trkpt>
      <trkpt lat="41.653030290" lon="2.462891380">
        <ele>284.69</ele>
        <time>2015-05-17T08:03:32Z</time>
      </trkpt>
      <trkpt lat="41.653011100" lon="2.463229080">
        <ele>284.21</ele>
        <time>2015-05-17T08:03:37Z</time>
      </trkpt>
      <trkpt lat="41.652975980" lon="2.463562430">
        <ele>283.73</ele>
        <time>2015-05-17T08:03:43Z</time>
      </trkpt>
      <trkpt lat="41.653062060" lon="2.463814060">
        <ele>283.73</ele>
        <time>2015-05-17T08:03:49Z</time>
      </trkpt>
      <trkpt lat="41.653073380" lon="2.463848920">
        <ele>284.69</ele>
        <time>2015-05-17T08:03:50Z</time>
      </trkpt>
      <trkpt lat="41.653040100" lon="2.464067940">
        <ele>285.65</ele>
        <time>2015-05-17T08:03:56Z</time>
      </trkpt>
      <trkpt lat="41.652894840" lon="2.464235830">
        <ele>285.65</ele>
        <time>2015-05-17T08:04:01Z</time>
      </trkpt>
      <trkpt lat="41.652813540" lon="2.464376900">
        <ele>285.65</ele>
        <time>2015-05-17T08:04:04Z</time>
      </trkpt>
      <trkpt lat="41.652768780" lon="2.464588540">
        <ele>284.69</ele>
        <time>2015-05-17T08:04:08Z</time>
      </trkpt>
      <trkpt lat="41.652831310" lon="2.464807560">
        <ele>283.73</ele>
        <time>2015-05-17T08:04:12Z</time>
      </trkpt>
      <trkpt lat="41.652933820" lon="2.464960110">
        <ele>281.80</ele>
        <time>2015-05-17T08:04:15Z</time>
      </trkpt>
      <trkpt lat="41.652966930" lon="2.465011750">
        <ele>281.80</ele>
        <time>2015-05-17T08:04:16Z</time>
      </trkpt>
      <trkpt lat="41.653043370" lon="2.465253560">
        <ele>279.88</ele>
        <time>2015-05-17T08:04:20Z</time>
      </trkpt>
      <trkpt lat="41.653078490" lon="2.465709200">
        <ele>278.92</ele>
        <time>2015-05-17T08:04:28Z</time>
      </trkpt>
      <trkpt lat="41.653008330" lon="2.465934680">
        <ele>278.92</ele>
        <time>2015-05-17T08:04:33Z</time>
      </trkpt>
      <trkpt lat="41.652870200" lon="2.466180850">
        <ele>278.92</ele>
        <time>2015-05-17T08:04:40Z</time>
      </trkpt>
      <trkpt lat="41.652718490" lon="2.466457710">
        <ele>280.36</ele>
        <time>2015-05-17T08:04:47Z</time>
      </trkpt>
      <trkpt lat="41.652541290" lon="2.466719640">
        <ele>281.32</ele>
        <time>2015-05-17T08:04:55Z</time>
      </trkpt>
      <trkpt lat="41.652352450" lon="2.466839670">
        <ele>283.25</ele>
        <time>2015-05-17T08:05:02Z</time>
      </trkpt>
      <trkpt lat="41.652187080" lon="2.466961460">
        <ele>283.25</ele>
        <time>2015-05-17T08:05:08Z</time>
      </trkpt>
      <trkpt lat="41.652219850" lon="2.467157350">
        <ele>283.25</ele>
        <time>2015-05-17T08:05:13Z</time>
      </trkpt>
      <trkpt lat="41.652402660" lon="2.467300760">
        <ele>282.28</ele>
        <time>2015-05-17T08:05:18Z</time>
      </trkpt>
      <trkpt lat="41.652427050" lon="2.467352980">
        <ele>281.32</ele>
        <time>2015-05-17T08:05:19Z</time>
      </trkpt>
      <trkpt lat="41.652506590" lon="2.467531680">
        <ele>280.84</ele>
        <time>2015-05-17T08:05:22Z</time>
      </trkpt>
      <trkpt lat="41.652685380" lon="2.467727320">
        <ele>279.88</ele>
        <time>2015-05-17T08:05:27Z</time>
      </trkpt>
      <trkpt lat="41.652741960" lon="2.467807280">
        <ele>279.88</ele>
        <time>2015-05-17T08:05:30Z</time>
      </trkpt>
      <trkpt lat="41.652829210" lon="2.467902080">
        <ele>279.40</ele>
        <time>2015-05-17T08:05:33Z</time>
      </trkpt>
      <trkpt lat="41.652930050" lon="2.468031580">
        <ele>278.92</ele>
        <time>2015-05-17T08:05:36Z</time>
      </trkpt>
      <trkpt lat="41.652997270" lon="2.468140960">
        <ele>278.44</ele>
        <time>2015-05-17T08:05:38Z</time>
      </trkpt>
      <trkpt lat="41.653050330" lon="2.468265010">
        <ele>277.96</ele>
        <time>2015-05-17T08:05:40Z</time>
      </trkpt>
      <trkpt lat="41.653126180" lon="2.468538430">
        <ele>277.48</ele>
        <time>2015-05-17T08:05:44Z</time>
      </trkpt>
      <trkpt lat="41.653188380" lon="2.468783180">
        <ele>276.04</ele>
        <time>2015-05-17T08:05:47Z</time>
      </trkpt>
      <trkpt lat="41.653250650" lon="2.468926850">
        <ele>275.56</ele>
        <time>2015-05-17T08:05:49Z</time>
      </trkpt>
      <trkpt lat="41.653315530" lon="2.469041180">
        <ele>275.56</ele>
        <time>2015-05-17T08:05:51Z</time>
      </trkpt>
      <trkpt lat="41.653427260" lon="2.469274610">
        <ele>276.52</ele>
        <time>2015-05-17T08:05:57Z</time>
      </trkpt>
      <trkpt lat="41.653408740" lon="2.469447620">
        <ele>278.92</ele>
        <time>2015-05-17T08:06:03Z</time>
      </trkpt>
      <trkpt lat="41.653305640" lon="2.469657920">
        <ele>280.36</ele>
        <time>2015-05-17T08:06:10Z</time>
      </trkpt>
      <trkpt lat="41.653218300" lon="2.469752970">
        <ele>278.44</ele>
        <time>2015-05-17T08:06:13Z</time>
      </trkpt>
      <trkpt lat="41.653191810" lon="2.469792780">
        <ele>278.44</ele>
        <time>2015-05-17T08:06:14Z</time>
      </trkpt>
      <trkpt lat="41.653098360" lon="2.470188910">
        <ele>276.52</ele>
        <time>2015-05-17T08:06:19Z</time>
      </trkpt>
      <trkpt lat="41.653088630" lon="2.470477670">
        <ele>275.07</ele>
        <time>2015-05-17T08:06:22Z</time>
      </trkpt>
      <trkpt lat="41.653042870" lon="2.470741450">
        <ele>274.59</ele>
        <time>2015-05-17T08:06:26Z</time>
      </trkpt>
      <trkpt lat="41.652920910" lon="2.470887880">
        <ele>276.04</ele>
        <time>2015-05-17T08:06:31Z</time>
      </trkpt>
      <trkpt lat="41.652833820" lon="2.471029200">
        <ele>277.00</ele>
        <time>2015-05-17T08:06:36Z</time>
      </trkpt>
      <trkpt lat="41.652774560" lon="2.471252740">
        <ele>278.92</ele>
        <time>2015-05-17T08:06:43Z</time>
      </trkpt>
      <trkpt lat="41.652783780" lon="2.471497240">
        <ele>279.40</ele>
        <time>2015-05-17T08:06:51Z</time>
      </trkpt>
      <trkpt lat="41.652818990" lon="2.471623310">
        <ele>279.40</ele>
        <time>2015-05-17T08:06:54Z</time>
      </trkpt>
      <trkpt lat="41.652808760" lon="2.471697240">
        <ele>277.96</ele>
        <time>2015-05-17T08:06:56Z</time>
      </trkpt>
      <trkpt lat="41.652763160" lon="2.471752050">
        <ele>277.00</ele>
        <time>2015-05-17T08:06:58Z</time>
      </trkpt>
      <trkpt lat="41.652643800" lon="2.471807710">
        <ele>275.56</ele>
        <time>2015-05-17T08:07:01Z</time>
      </trkpt>
      <trkpt lat="41.652496120" lon="2.471733280">
        <ele>274.11</ele>
        <time>2015-05-17T08:07:05Z</time>
      </trkpt>
      <trkpt lat="41.652433080" lon="2.471634790">
        <ele>273.63</ele>
        <time>2015-05-17T08:07:07Z</time>
      </trkpt>
      <trkpt lat="41.652280950" lon="2.471310240">
        <ele>275.07</ele>
        <time>2015-05-17T08:07:15Z</time>
      </trkpt>
      <trkpt lat="41.652189920" lon="2.471106560">
        <ele>277.48</ele>
        <time>2015-05-17T08:07:22Z</time>
      </trkpt>
      <trkpt lat="41.652093530" lon="2.470907410">
        <ele>279.40</ele>
        <time>2015-05-17T08:07:29Z</time>
      </trkpt>
      <trkpt lat="41.652008210" lon="2.470730970">
        <ele>280.36</ele>
        <time>2015-05-17T08:07:35Z</time>
      </trkpt>
      <trkpt lat="41.651911730" lon="2.470518660">
        <ele>281.80</ele>
        <time>2015-05-17T08:07:42Z</time>
      </trkpt>
      <trkpt lat="41.651812570" lon="2.470382450">
        <ele>282.28</ele>
        <time>2015-05-17T08:07:48Z</time>
      </trkpt>
      <trkpt lat="41.651655830" lon="2.470313800">
        <ele>283.73</ele>
        <time>2015-05-17T08:07:55Z</time>
      </trkpt>
      <trkpt lat="41.651568240" lon="2.470358900">
        <ele>283.25</ele>
        <time>2015-05-17T08:07:58Z</time>
      </trkpt>
      <trkpt lat="41.651485260" lon="2.470541460">
        <ele>283.25</ele>
        <time>2015-05-17T08:08:03Z</time>
      </trkpt>
      <trkpt lat="41.651325160" lon="2.470875220">
        <ele>283.73</ele>
        <time>2015-05-17T08:08:12Z</time>
      </trkpt>
      <trkpt lat="41.651273280" lon="2.471088460">
        <ele>284.69</ele>
        <time>2015-05-17T08:08:17Z</time>
      </trkpt>
      <trkpt lat="41.651261710" lon="2.471255760">
        <ele>285.17</ele>
        <time>2015-05-17T08:08:21Z</time>
      </trkpt>
      <trkpt lat="41.651303870" lon="2.471447460">
        <ele>283.25</ele>
        <time>2015-05-17T08:08:24Z</time>
      </trkpt>
      <trkpt lat="41.651307390" lon="2.471627670">
        <ele>282.28</ele>
        <time>2015-05-17T08:08:26Z</time>
      </trkpt>
      <trkpt lat="41.651284850" lon="2.471807710">
        <ele>281.80</ele>
        <time>2015-05-17T08:08:28Z</time>
      </trkpt>
      <trkpt lat="41.651183260" lon="2.472011220">
        <ele>280.84</ele>
        <time>2015-05-17T08:08:31Z</time>
      </trkpt>
      <trkpt lat="41.651095000" lon="2.472094290">
        <ele>280.84</ele>
        <time>2015-05-17T08:08:33Z</time>
      </trkpt>
      <trkpt lat="41.650922830" lon="2.472155810">
        <ele>279.88</ele>
        <time>2015-05-17T08:08:39Z</time>
      </trkpt>
      <trkpt lat="41.650855020" lon="2.472113570">
        <ele>281.32</ele>
        <time>2015-05-17T08:08:42Z</time>
      </trkpt>
      <trkpt lat="41.650776820" lon="2.471999150">
        <ele>283.25</ele>
        <time>2015-05-17T08:08:48Z</time>
      </trkpt>
      <trkpt lat="41.650639940" lon="2.471830930">
        <ele>283.73</ele>
        <time>2015-05-17T08:08:56Z</time>
      </trkpt>
      <trkpt lat="41.650498370" lon="2.471726660">
        <ele>283.73</ele>
        <time>2015-05-17T08:09:02Z</time>
      </trkpt>
      <trkpt lat="41.650367700" lon="2.471677620">
        <ele>282.77</ele>
        <time>2015-05-17T08:09:05Z</time>
      </trkpt>
      <trkpt lat="41.650140970" lon="2.471658600">
        <ele>279.88</ele>
        <time>2015-05-17T08:09:10Z</time>
      </trkpt>
      <trkpt lat="41.650128060" lon="2.471809640">
        <ele>278.92</ele>
        <time>2015-05-17T08:09:14Z</time>
      </trkpt>
      <trkpt lat="41.650131750" lon="2.471842830">
        <ele>278.92</ele>
        <time>2015-05-17T08:09:15Z</time>
      </trkpt>
      <trkpt lat="41.650183720" lon="2.472170980">
        <ele>280.84</ele>
        <time>2015-05-17T08:09:24Z</time>
      </trkpt>
      <trkpt lat="41.650171400" lon="2.472400390">
        <ele>281.32</ele>
        <time>2015-05-17T08:09:30Z</time>
      </trkpt>
      <trkpt lat="41.650103330" lon="2.472787130">
        <ele>282.28</ele>
        <time>2015-05-17T08:09:39Z</time>
      </trkpt>
      <trkpt lat="41.650010710" lon="2.472881430">
        <ele>282.77</ele>
        <time>2015-05-17T08:09:42Z</time>
      </trkpt>
      <trkpt lat="41.649938040" lon="2.472909590">
        <ele>282.77</ele>
        <time>2015-05-17T08:09:44Z</time>
      </trkpt>
      <trkpt lat="41.649855980" lon="2.472930880">
        <ele>282.77</ele>
        <time>2015-05-17T08:09:46Z</time>
      </trkpt>
      <trkpt lat="41.649761600" lon="2.472966930">
        <ele>282.77</ele>
        <time>2015-05-17T08:09:48Z</time>
      </trkpt>
      <trkpt lat="41.649653980" lon="2.473031720">
        <ele>280.84</ele>
        <time>2015-05-17T08:09:50Z</time>
      </trkpt>
      <trkpt lat="41.649501760" lon="2.473168260">
        <ele>279.40</ele>
        <time>2015-05-17T08:09:53Z</time>
      </trkpt>
      <trkpt lat="41.649343350" lon="2.473295670">
        <ele>277.00</ele>
        <time>2015-05-17T08:09:56Z</time>
      </trkpt>
      <trkpt lat="41.649262290" lon="2.473507980">
        <ele>274.11</ele>
        <time>2015-05-17T08:10:00Z</time>
      </trkpt>
      <trkpt lat="41.649315020" lon="2.473618870">
        <ele>274.11</ele>
        <time>2015-05-17T08:10:03Z</time>
      </trkpt>
      <trkpt lat="41.649372600" lon="2.473825900">
        <ele>276.04</ele>
        <time>2015-05-17T08:10:10Z</time>
      </trkpt>
      <trkpt lat="41.649428000" lon="2.474110720">
        <ele>276.52</ele>
        <time>2015-05-17T08:10:17Z</time>
      </trkpt>
      <trkpt lat="41.649447530" lon="2.474201580">
        <ele>276.52</ele>
        <time>2015-05-17T08:10:19Z</time>
      </trkpt>
      <trkpt lat="41.649442920" lon="2.474491260">
        <ele>276.52</ele>
        <time>2015-05-17T08:10:24Z</time>
      </trkpt>
      <trkpt lat="41.649435720" lon="2.474616900">
        <ele>275.07</ele>
        <time>2015-05-17T08:10:26Z</time>
      </trkpt>
      <trkpt lat="41.649514510" lon="2.474950340">
        <ele>274.59</ele>
        <time>2015-05-17T08:10:32Z</time>
      </trkpt>
      <trkpt lat="41.649526910" lon="2.475000710">
        <ele>274.59</ele>
        <time>2015-05-17T08:10:33Z</time>
      </trkpt>
      <trkpt lat="41.649555830" lon="2.475281090">
        <ele>274.59</ele>
        <time>2015-05-17T08:10:38Z</time>
      </trkpt>
      <trkpt lat="41.649607380" lon="2.475734210">
        <ele>274.59</ele>
        <time>2015-05-17T08:10:47Z</time>
      </trkpt>
      <trkpt lat="41.649616350" lon="2.475824570">
        <ele>276.04</ele>
        <time>2015-05-17T08:10:49Z</time>
      </trkpt>
      <trkpt lat="41.649706700" lon="2.476055910">
        <ele>276.52</ele>
        <time>2015-05-17T08:10:56Z</time>
      </trkpt>
      <trkpt lat="41.649724640" lon="2.476083230">
        <ele>276.52</ele>
        <time>2015-05-17T08:10:57Z</time>
      </trkpt>
      <trkpt lat="41.649852720" lon="2.476130170">
        <ele>277.00</ele>
        <time>2015-05-17T08:11:03Z</time>
      </trkpt>
      <trkpt lat="41.650037200" lon="2.476125810">
        <ele>277.48</ele>
        <time>2015-05-17T08:11:10Z</time>
      </trkpt>
      <trkpt lat="41.650301730" lon="2.476021120">
        <ele>277.48</ele>
        <time>2015-05-17T08:11:19Z</time>
      </trkpt>
      <trkpt lat="41.650403830" lon="2.475936890">
        <ele>274.59</ele>
        <time>2015-05-17T08:11:22Z</time>
      </trkpt>
      <trkpt lat="41.650509020" lon="2.475843090">
        <ele>272.67</ele>
        <time>2015-05-17T08:11:25Z</time>
      </trkpt>
      <trkpt lat="41.650589230" lon="2.475806380">
        <ele>271.71</ele>
        <time>2015-05-17T08:11:27Z</time>
      </trkpt>
      <trkpt lat="41.650803810" lon="2.475733790">
        <ele>268.35</ele>
        <time>2015-05-17T08:11:33Z</time>
      </trkpt>
      <trkpt lat="41.650951920" lon="2.475662710">
        <ele>265.94</ele>
        <time>2015-05-17T08:11:37Z</time>
      </trkpt>
      <trkpt lat="41.651155260" lon="2.475778470">
        <ele>261.62</ele>
        <time>2015-05-17T08:11:43Z</time>
      </trkpt>
      <trkpt lat="41.651275790" lon="2.475882990">
        <ele>259.69</ele>
        <time>2015-05-17T08:11:47Z</time>
      </trkpt>
      <trkpt lat="41.651436060" lon="2.475948870">
        <ele>257.77</ele>
        <time>2015-05-17T08:11:52Z</time>
      </trkpt>
      <trkpt lat="41.651599000" lon="2.475878460">
        <ele>255.37</ele>
        <time>2015-05-17T08:11:58Z</time>
      </trkpt>
      <trkpt lat="41.651802680" lon="2.475848460">
        <ele>251.04</ele>
        <time>2015-05-17T08:12:04Z</time>
      </trkpt>
      <trkpt lat="41.651843580" lon="2.475836050">
        <ele>251.04</ele>
        <time>2015-05-17T08:12:05Z</time>
      </trkpt>
      <trkpt lat="41.651912150" lon="2.475785090">
        <ele>249.12</ele>
        <time>2015-05-17T08:12:07Z</time>
      </trkpt>
      <trkpt lat="41.652105350" lon="2.475632040">
        <ele>246.23</ele>
        <time>2015-05-17T08:12:12Z</time>
      </trkpt>
      <trkpt lat="41.652351530" lon="2.475487450">
        <ele>243.35</ele>
        <time>2015-05-17T08:12:17Z</time>
      </trkpt>
      <trkpt lat="41.652399980" lon="2.475463480">
        <ele>242.87</ele>
        <time>2015-05-17T08:12:18Z</time>
      </trkpt>
      <trkpt lat="41.652549170" lon="2.475358200">
        <ele>241.43</ele>
        <time>2015-05-17T08:12:21Z</time>
      </trkpt>
      <trkpt lat="41.652669290" lon="2.475285700">
        <ele>240.47</ele>
        <time>2015-05-17T08:12:23Z</time>
      </trkpt>
      <trkpt lat="41.652896180" lon="2.475096770">
        <ele>239.02</ele>
        <time>2015-05-17T08:12:27Z</time>
      </trkpt>
      <trkpt lat="41.653015710" lon="2.474861400">
        <ele>236.62</ele>
        <time>2015-05-17T08:12:31Z</time>
      </trkpt>
      <trkpt lat="41.653065830" lon="2.474754030">
        <ele>236.14</ele>
        <time>2015-05-17T08:12:33Z</time>
      </trkpt>
      <trkpt lat="41.653282840" lon="2.474592510">
        <ele>231.33</ele>
        <time>2015-05-17T08:12:38Z</time>
      </trkpt>
      <trkpt lat="41.653319890" lon="2.474593520">
        <ele>231.33</ele>
        <time>2015-05-17T08:12:39Z</time>
      </trkpt>
      <trkpt lat="41.653450730" lon="2.474623690">
        <ele>229.41</ele>
        <time>2015-05-17T08:12:42Z</time>
      </trkpt>
      <trkpt lat="41.653677380" lon="2.474503750">
        <ele>224.61</ele>
        <time>2015-05-17T08:12:47Z</time>
      </trkpt>
      <trkpt lat="41.653770000" lon="2.474418250">
        <ele>221.72</ele>
        <time>2015-05-17T08:12:50Z</time>
      </trkpt>
      <trkpt lat="41.653727420" lon="2.474255310">
        <ele>220.28</ele>
        <time>2015-05-17T08:12:56Z</time>
      </trkpt>
      <trkpt lat="41.653626670" lon="2.474132770">
        <ele>218.84</ele>
        <time>2015-05-17T08:13:00Z</time>
      </trkpt>
      <trkpt lat="41.653704370" lon="2.473954060">
        <ele>218.36</ele>
        <time>2015-05-17T08:13:06Z</time>
      </trkpt>
      <trkpt lat="41.653856580" lon="2.473781400">
        <ele>218.36</ele>
        <time>2015-05-17T08:13:13Z</time>
      </trkpt>
      <trkpt lat="41.653874770" lon="2.473726750">
        <ele>217.88</ele>
        <time>2015-05-17T08:13:14Z</time>
      </trkpt>
      <trkpt lat="41.653907380" lon="2.473603620">
        <ele>217.40</ele>
        <time>2015-05-17T08:13:16Z</time>
      </trkpt>
      <trkpt lat="41.654011400" lon="2.473438910">
        <ele>216.43</ele>
        <time>2015-05-17T08:13:20Z</time>
      </trkpt>
      <trkpt lat="41.654132180" lon="2.473350650">
        <ele>214.99</ele>
        <time>2015-05-17T08:13:23Z</time>
      </trkpt>
      <trkpt lat="41.654378860" lon="2.473077900">
        <ele>212.11</ele>
        <time>2015-05-17T08:13:30Z</time>
      </trkpt>
      <trkpt lat="41.654518170" lon="2.473148560">
        <ele>212.11</ele>
        <time>2015-05-17T08:13:35Z</time>
      </trkpt>
      <trkpt lat="41.654641550" lon="2.473318460">
        <ele>213.55</ele>
        <time>2015-05-17T08:13:42Z</time>
      </trkpt>
      <trkpt lat="41.654674150" lon="2.473515020">
        <ele>215.95</ele>
        <time>2015-05-17T08:13:49Z</time>
      </trkpt>
      <trkpt lat="41.654679350" lon="2.473536900">
        <ele>216.43</ele>
        <time>2015-05-17T08:13:50Z</time>
      </trkpt>
      <trkpt lat="41.654709940" lon="2.473755750">
        <ele>217.88</ele>
        <time>2015-05-17T08:13:58Z</time>
      </trkpt>
      <trkpt lat="41.654726880" lon="2.473948360">
        <ele>218.36</ele>
        <time>2015-05-17T08:14:04Z</time>
      </trkpt>
      <trkpt lat="41.654751770" lon="2.474147770">
        <ele>221.24</ele>
        <time>2015-05-17T08:14:11Z</time>
      </trkpt>
      <trkpt lat="41.654833240" lon="2.474312730">
        <ele>221.72</ele>
        <time>2015-05-17T08:14:19Z</time>
      </trkpt>
      <trkpt lat="41.654874900" lon="2.474552620">
        <ele>223.16</ele>
        <time>2015-05-17T08:14:28Z</time>
      </trkpt>
      <trkpt lat="41.654879340" lon="2.474734590">
        <ele>223.64</ele>
        <time>2015-05-17T08:14:35Z</time>
      </trkpt>
      <trkpt lat="41.654865600" lon="2.475000290">
        <ele>224.12</ele>
        <time>2015-05-17T08:14:44Z</time>
      </trkpt>
      <trkpt lat="41.654934330" lon="2.475263740">
        <ele>225.09</ele>
        <time>2015-05-17T08:14:53Z</time>
      </trkpt>
      <trkpt lat="41.655039270" lon="2.475489380">
        <ele>226.53</ele>
        <time>2015-05-17T08:15:02Z</time>
      </trkpt>
      <trkpt lat="41.655035830" lon="2.475685350">
        <ele>227.49</ele>
        <time>2015-05-17T08:15:09Z</time>
      </trkpt>
      <trkpt lat="41.655020830" lon="2.475928420">
        <ele>228.45</ele>
        <time>2015-05-17T08:15:17Z</time>
      </trkpt>
      <trkpt lat="41.655051000" lon="2.476166630">
        <ele>229.89</ele>
        <time>2015-05-17T08:15:25Z</time>
      </trkpt>
      <trkpt lat="41.655099120" lon="2.476380290">
        <ele>230.37</ele>
        <time>2015-05-17T08:15:32Z</time>
      </trkpt>
      <trkpt lat="41.655138340" lon="2.476592270">
        <ele>231.33</ele>
        <time>2015-05-17T08:15:38Z</time>
      </trkpt>
      <trkpt lat="41.655226190" lon="2.476824280">
        <ele>231.81</ele>
        <time>2015-05-17T08:15:45Z</time>
      </trkpt>
      <trkpt lat="41.655228700" lon="2.477021590">
        <ele>232.30</ele>
        <time>2015-05-17T08:15:51Z</time>
      </trkpt>
      <trkpt lat="41.655172460" lon="2.477217470">
        <ele>233.26</ele>
        <time>2015-05-17T08:15:58Z</time>
      </trkpt>
      <trkpt lat="41.655241020" lon="2.477464740">
        <ele>234.22</ele>
        <time>2015-05-17T08:16:08Z</time>
      </trkpt>
      <trkpt lat="41.655244790" lon="2.477550740">
        <ele>235.18</ele>
        <time>2015-05-17T08:16:11Z</time>
      </trkpt>
      <trkpt lat="41.655229040" lon="2.477756680">
        <ele>237.10</ele>
        <time>2015-05-17T08:16:19Z</time>
      </trkpt>
      <trkpt lat="41.655223420" lon="2.477808570">
        <ele>237.58</ele>
        <time>2015-05-17T08:16:21Z</time>
      </trkpt>
      <trkpt lat="41.655189390" lon="2.478072600">
        <ele>239.51</ele>
        <time>2015-05-17T08:16:30Z</time>
      </trkpt>
      <trkpt lat="41.655122840" lon="2.478341740">
        <ele>239.99</ele>
        <time>2015-05-17T08:16:38Z</time>
      </trkpt>
      <trkpt lat="41.655158800" lon="2.478629660">
        <ele>240.47</ele>
        <time>2015-05-17T08:16:46Z</time>
      </trkpt>
      <trkpt lat="41.655247810" lon="2.478844740">
        <ele>242.39</ele>
        <time>2015-05-17T08:16:53Z</time>
      </trkpt>
      <trkpt lat="41.655234230" lon="2.479107260">
        <ele>241.91</ele>
        <time>2015-05-17T08:17:01Z</time>
      </trkpt>
      <trkpt lat="41.655111940" lon="2.479299290">
        <ele>243.35</ele>
        <time>2015-05-17T08:17:09Z</time>
      </trkpt>
      <trkpt lat="41.655005990" lon="2.479552170">
        <ele>245.27</ele>
        <time>2015-05-17T08:17:18Z</time>
      </trkpt>
      <trkpt lat="41.654988390" lon="2.479801030">
        <ele>246.23</ele>
        <time>2015-05-17T08:17:26Z</time>
      </trkpt>
      <trkpt lat="41.655019320" lon="2.479934640">
        <ele>248.16</ele>
        <time>2015-05-17T08:17:31Z</time>
      </trkpt>
      <trkpt lat="41.655041530" lon="2.480074610">
        <ele>248.16</ele>
        <time>2015-05-17T08:17:35Z</time>
      </trkpt>
      <trkpt lat="41.654922260" lon="2.480258090">
        <ele>249.60</ele>
        <time>2015-05-17T08:17:44Z</time>
      </trkpt>
      <trkpt lat="41.654828630" lon="2.480390360">
        <ele>251.52</ele>
        <time>2015-05-17T08:17:51Z</time>
      </trkpt>
      <trkpt lat="41.654728300" lon="2.480577530">
        <ele>252.96</ele>
        <time>2015-05-17T08:17:59Z</time>
      </trkpt>
      <trkpt lat="41.654689830" lon="2.480843230">
        <ele>254.89</ele>
        <time>2015-05-17T08:18:09Z</time>
      </trkpt>
      <trkpt lat="41.654661410" lon="2.481117320">
        <ele>256.33</ele>
        <time>2015-05-17T08:18:18Z</time>
      </trkpt>
      <trkpt lat="41.654644650" lon="2.481317480">
        <ele>257.77</ele>
        <time>2015-05-17T08:18:25Z</time>
      </trkpt>
      <trkpt lat="41.654538450" lon="2.481545470">
        <ele>259.69</ele>
        <time>2015-05-17T08:18:35Z</time>
      </trkpt>
      <trkpt lat="41.654509370" lon="2.481742190">
        <ele>261.62</ele>
        <time>2015-05-17T08:18:42Z</time>
      </trkpt>
      <trkpt lat="41.654500150" lon="2.481929190">
        <ele>263.54</ele>
        <time>2015-05-17T08:18:49Z</time>
      </trkpt>
      <trkpt lat="41.654492520" lon="2.482166570">
        <ele>264.50</ele>
        <time>2015-05-17T08:18:57Z</time>
      </trkpt>
      <trkpt lat="41.654460670" lon="2.482384580">
        <ele>265.94</ele>
        <time>2015-05-17T08:19:05Z</time>
      </trkpt>
      <trkpt lat="41.654396540" lon="2.482601840">
        <ele>265.94</ele>
        <time>2015-05-17T08:19:12Z</time>
      </trkpt>
      <trkpt lat="41.654335860" lon="2.482806360">
        <ele>266.42</ele>
        <time>2015-05-17T08:19:19Z</time>
      </trkpt>
      <trkpt lat="41.654259670" lon="2.482989170">
        <ele>266.90</ele>
        <time>2015-05-17T08:19:26Z</time>
      </trkpt>
      <trkpt lat="41.654139470" lon="2.483195950">
        <ele>268.35</ele>
        <time>2015-05-17T08:19:35Z</time>
      </trkpt>
      <trkpt lat="41.654035450" lon="2.483435760">
        <ele>268.83</ele>
        <time>2015-05-17T08:19:44Z</time>
      </trkpt>
      <trkpt lat="41.653939310" lon="2.483648570">
        <ele>270.27</ele>
        <time>2015-05-17T08:19:53Z</time>
      </trkpt>
      <trkpt lat="41.653851800" lon="2.483871700">
        <ele>272.19</ele>
        <time>2015-05-17T08:20:02Z</time>
      </trkpt>
      <trkpt lat="41.653752060" lon="2.483990470">
        <ele>273.15</ele>
        <time>2015-05-17T08:20:09Z</time>
      </trkpt>
      <trkpt lat="41.653652060" lon="2.484144190">
        <ele>273.15</ele>
        <time>2015-05-17T08:20:15Z</time>
      </trkpt>
      <trkpt lat="41.653564390" lon="2.484366230">
        <ele>274.59</ele>
        <time>2015-05-17T08:20:24Z</time>
      </trkpt>
      <trkpt lat="41.653459530" lon="2.484494310">
        <ele>276.52</ele>
        <time>2015-05-17T08:20:31Z</time>
      </trkpt>
      <trkpt lat="41.653333050" lon="2.484726070">
        <ele>278.92</ele>
        <time>2015-05-17T08:20:41Z</time>
      </trkpt>
      <trkpt lat="41.653308740" lon="2.484950030">
        <ele>280.36</ele>
        <time>2015-05-17T08:20:48Z</time>
      </trkpt>
      <trkpt lat="41.653218720" lon="2.485179110">
        <ele>281.80</ele>
        <time>2015-05-17T08:20:56Z</time>
      </trkpt>
      <trkpt lat="41.653083600" lon="2.485400220">
        <ele>282.77</ele>
        <time>2015-05-17T08:21:05Z</time>
      </trkpt>
      <trkpt lat="41.652958630" lon="2.485499880">
        <ele>284.21</ele>
        <time>2015-05-17T08:21:12Z</time>
      </trkpt>
      <trkpt lat="41.652800380" lon="2.485419080">
        <ele>285.17</ele>
        <time>2015-05-17T08:21:19Z</time>
      </trkpt>
      <trkpt lat="41.652689570" lon="2.485324620">
        <ele>286.61</ele>
        <time>2015-05-17T08:21:25Z</time>
      </trkpt>
      <trkpt lat="41.652506260" lon="2.485345320">
        <ele>287.57</ele>
        <time>2015-05-17T08:21:33Z</time>
      </trkpt>
      <trkpt lat="41.652324290" lon="2.485443720">
        <ele>288.05</ele>
        <time>2015-05-17T08:21:40Z</time>
      </trkpt>
      <trkpt lat="41.652098310" lon="2.485534920">
        <ele>288.05</ele>
        <time>2015-05-17T08:21:48Z</time>
      </trkpt>
      <trkpt lat="41.651909380" lon="2.485814460">
        <ele>287.57</ele>
        <time>2015-05-17T08:21:54Z</time>
      </trkpt>
      <trkpt lat="41.651693880" lon="2.485958960">
        <ele>287.57</ele>
        <time>2015-05-17T08:22:00Z</time>
      </trkpt>
      <trkpt lat="41.651662370" lon="2.485963740">
        <ele>287.57</ele>
        <time>2015-05-17T08:22:01Z</time>
      </trkpt>
      <trkpt lat="41.651423650" lon="2.486000120">
        <ele>288.53</ele>
        <time>2015-05-17T08:22:10Z</time>
      </trkpt>
      <trkpt lat="41.651232800" lon="2.486061890">
        <ele>288.53</ele>
        <time>2015-05-17T08:22:17Z</time>
      </trkpt>
      <trkpt lat="41.651170850" lon="2.486080000">
        <ele>288.53</ele>
        <time>2015-05-17T08:22:20Z</time>
      </trkpt>
      <trkpt lat="41.650964830" lon="2.486019390">
        <ele>288.53</ele>
        <time>2015-05-17T08:22:29Z</time>
      </trkpt>
      <trkpt lat="41.650789730" lon="2.485975980">
        <ele>289.49</ele>
        <time>2015-05-17T08:22:36Z</time>
      </trkpt>
      <trkpt lat="41.650613960" lon="2.486049490">
        <ele>289.97</ele>
        <time>2015-05-17T08:22:43Z</time>
      </trkpt>
      <trkpt lat="41.650520500" lon="2.486187950">
        <ele>289.97</ele>
        <time>2015-05-17T08:22:48Z</time>
      </trkpt>
      <trkpt lat="41.650365600" lon="2.486445870">
        <ele>291.42</ele>
        <time>2015-05-17T08:22:57Z</time>
      </trkpt>
      <trkpt lat="41.650291760" lon="2.486684830">
        <ele>293.82</ele>
        <time>2015-05-17T08:23:05Z</time>
      </trkpt>
      <trkpt lat="41.650287150" lon="2.486903180">
        <ele>295.74</ele>
        <time>2015-05-17T08:23:12Z</time>
      </trkpt>
      <trkpt lat="41.650313550" lon="2.487078620">
        <ele>298.63</ele>
        <time>2015-05-17T08:23:20Z</time>
      </trkpt>
      <trkpt lat="41.650252360" lon="2.487199570">
        <ele>301.03</ele>
        <time>2015-05-17T08:23:27Z</time>
      </trkpt>
      <trkpt lat="41.650164770" lon="2.487282300">
        <ele>302.95</ele>
        <time>2015-05-17T08:23:34Z</time>
      </trkpt>
      <trkpt lat="41.650074580" lon="2.487381870">
        <ele>303.91</ele>
        <time>2015-05-17T08:23:41Z</time>
      </trkpt>
      <trkpt lat="41.649986830" lon="2.487550940">
        <ele>307.28</ele>
        <time>2015-05-17T08:23:51Z</time>
      </trkpt>
      <trkpt lat="41.649975760" lon="2.487593680">
        <ele>307.28</ele>
        <time>2015-05-17T08:23:53Z</time>
      </trkpt>
      <trkpt lat="41.649933600" lon="2.487770370">
        <ele>307.28</ele>
        <time>2015-05-17T08:24:02Z</time>
      </trkpt>
      <trkpt lat="41.649911390" lon="2.487777080">
        <ele>307.28</ele>
        <time>2015-05-17T08:24:03Z</time>
      </trkpt>
      <trkpt lat="41.649746770" lon="2.487722760">
        <ele>307.28</ele>
        <time>2015-05-17T08:24:09Z</time>
      </trkpt>
      <trkpt lat="41.649691200" lon="2.487662500">
        <ele>305.84</ele>
        <time>2015-05-17T08:24:11Z</time>
      </trkpt>
      <trkpt lat="41.649599250" lon="2.487543980">
        <ele>305.36</ele>
        <time>2015-05-17T08:24:14Z</time>
      </trkpt>
      <trkpt lat="41.649445940" lon="2.487514140">
        <ele>303.91</ele>
        <time>2015-05-17T08:24:18Z</time>
      </trkpt>
      <trkpt lat="41.649394060" lon="2.487639780">
        <ele>303.43</ele>
        <time>2015-05-17T08:24:20Z</time>
      </trkpt>
      <trkpt lat="41.649327250" lon="2.487850090">
        <ele>302.47</ele>
        <time>2015-05-17T08:24:23Z</time>
      </trkpt>
      <trkpt lat="41.649253070" lon="2.487975230">
        <ele>301.51</ele>
        <time>2015-05-17T08:24:25Z</time>
      </trkpt>
      <trkpt lat="41.649155680" lon="2.488064240">
        <ele>301.03</ele>
        <time>2015-05-17T08:24:27Z</time>
      </trkpt>
      <trkpt lat="41.648896590" lon="2.488328190">
        <ele>298.15</ele>
        <time>2015-05-17T08:24:33Z</time>
      </trkpt>
      <trkpt lat="41.648826520" lon="2.488629850">
        <ele>294.30</ele>
        <time>2015-05-17T08:24:38Z</time>
      </trkpt>
      <trkpt lat="41.648782680" lon="2.488739490">
        <ele>293.82</ele>
        <time>2015-05-17T08:24:40Z</time>
      </trkpt>
      <trkpt lat="41.648726190" lon="2.488814260">
        <ele>292.86</ele>
        <time>2015-05-17T08:24:42Z</time>
      </trkpt>
      <trkpt lat="41.648633400" lon="2.488970240">
        <ele>294.30</ele>
        <time>2015-05-17T08:24:49Z</time>
      </trkpt>
      <trkpt lat="41.648589730" lon="2.489084150">
        <ele>295.74</ele>
        <time>2015-05-17T08:24:55Z</time>
      </trkpt>
      <trkpt lat="41.648509770" lon="2.489221030">
        <ele>296.22</ele>
        <time>2015-05-17T08:25:02Z</time>
      </trkpt>
      <trkpt lat="41.648393430" lon="2.489381540">
        <ele>296.22</ele>
        <time>2015-05-17T08:25:07Z</time>
      </trkpt>
      <trkpt lat="41.648306000" lon="2.489521690">
        <ele>295.26</ele>
        <time>2015-05-17T08:25:10Z</time>
      </trkpt>
      <trkpt lat="41.648188820" lon="2.489748000">
        <ele>293.34</ele>
        <time>2015-05-17T08:25:14Z</time>
      </trkpt>
      <trkpt lat="41.648171470" lon="2.490100540">
        <ele>292.38</ele>
        <time>2015-05-17T08:25:19Z</time>
      </trkpt>
      <trkpt lat="41.648027220" lon="2.490349070">
        <ele>289.97</ele>
        <time>2015-05-17T08:25:23Z</time>
      </trkpt>
      <trkpt lat="41.647936110" lon="2.490503710">
        <ele>286.61</ele>
        <time>2015-05-17T08:25:27Z</time>
      </trkpt>
      <trkpt lat="41.647949770" lon="2.490704040">
        <ele>285.17</ele>
        <time>2015-05-17T08:25:31Z</time>
      </trkpt>
      <trkpt lat="41.647987570" lon="2.491062700">
        <ele>282.77</ele>
        <time>2015-05-17T08:25:36Z</time>
      </trkpt>
      <trkpt lat="41.648049350" lon="2.491270070">
        <ele>282.77</ele>
        <time>2015-05-17T08:25:39Z</time>
      </trkpt>
      <trkpt lat="41.648064600" lon="2.491401250">
        <ele>281.80</ele>
        <time>2015-05-17T08:25:41Z</time>
      </trkpt>
      <trkpt lat="41.647981040" lon="2.491637110">
        <ele>278.44</ele>
        <time>2015-05-17T08:25:45Z</time>
      </trkpt>
      <trkpt lat="41.647935860" lon="2.491696790">
        <ele>277.48</ele>
        <time>2015-05-17T08:25:46Z</time>
      </trkpt>
      <trkpt lat="41.647738300" lon="2.492065090">
        <ele>276.04</ele>
        <time>2015-05-17T08:25:51Z</time>
      </trkpt>
      <trkpt lat="41.647623720" lon="2.492254860">
        <ele>276.04</ele>
        <time>2015-05-17T08:25:56Z</time>
      </trkpt>
      <trkpt lat="41.647464120" lon="2.492383100">
        <ele>276.04</ele>
        <time>2015-05-17T08:26:02Z</time>
      </trkpt>
      <trkpt lat="41.647140410" lon="2.492310100">
        <ele>273.63</ele>
        <time>2015-05-17T08:26:08Z</time>
      </trkpt>
      <trkpt lat="41.647070340" lon="2.492285450">
        <ele>273.63</ele>
        <time>2015-05-17T08:26:09Z</time>
      </trkpt>
      <trkpt lat="41.646812430" lon="2.492361060">
        <ele>272.19</ele>
        <time>2015-05-17T08:26:14Z</time>
      </trkpt>
      <trkpt lat="41.646762470" lon="2.492529200">
        <ele>272.67</ele>
        <time>2015-05-17T08:26:18Z</time>
      </trkpt>
      <trkpt lat="41.646763900" lon="2.492590970">
        <ele>272.67</ele>
        <time>2015-05-17T08:26:20Z</time>
      </trkpt>
      <trkpt lat="41.646753090" lon="2.492729780">
        <ele>273.63</ele>
        <time>2015-05-17T08:26:24Z</time>
      </trkpt>
      <trkpt lat="41.646731960" lon="2.493073690">
        <ele>276.04</ele>
        <time>2015-05-17T08:26:34Z</time>
      </trkpt>
      <trkpt lat="41.646809670" lon="2.493335620">
        <ele>274.59</ele>
        <time>2015-05-17T08:26:41Z</time>
      </trkpt>
      <trkpt lat="41.646815280" lon="2.493367560">
        <ele>274.59</ele>
        <time>2015-05-17T08:26:42Z</time>
      </trkpt>
      <trkpt lat="41.646904380" lon="2.493569640">
        <ele>271.71</ele>
        <time>2015-05-17T08:26:47Z</time>
      </trkpt>
      <trkpt lat="41.646926590" lon="2.493604930">
        <ele>271.71</ele>
        <time>2015-05-17T08:26:48Z</time>
      </trkpt>
      <trkpt lat="41.646945370" lon="2.493640640">
        <ele>270.75</ele>
        <time>2015-05-17T08:26:49Z</time>
      </trkpt>
      <trkpt lat="41.646951820" lon="2.493737530">
        <ele>269.79</ele>
        <time>2015-05-17T08:26:55Z</time>
      </trkpt>
      <trkpt lat="41.646940000" lon="2.493759580">
        <ele>269.31</ele>
        <time>2015-05-17T08:27:10Z</time>
      </trkpt>
      <trkpt lat="41.646928270" lon="2.493770560">
        <ele>269.31</ele>
        <time>2015-05-17T08:27:25Z</time>
      </trkpt>
      <trkpt lat="41.646913600" lon="2.493762430">
        <ele>269.31</ele>
        <time>2015-05-17T08:27:33Z</time>
      </trkpt>
      <trkpt lat="41.646901530" lon="2.493745160">
        <ele>269.31</ele>
        <time>2015-05-17T08:27:39Z</time>
      </trkpt>
      <trkpt lat="41.646801200" lon="2.493743400">
        <ele>269.31</ele>
        <time>2015-05-17T08:27:47Z</time>
      </trkpt>
      <trkpt lat="41.646682760" lon="2.493721020">
        <ele>269.31</ele>
        <time>2015-05-17T08:27:55Z</time>
      </trkpt>
      <trkpt lat="41.646537420" lon="2.493700230">
        <ele>269.31</ele>
        <time>2015-05-17T08:28:02Z</time>
      </trkpt>
      <trkpt lat="41.646322090" lon="2.493630580">
        <ele>269.31</ele>
        <time>2015-05-17T08:28:08Z</time>
      </trkpt>
      <trkpt lat="41.646285130" lon="2.493605350">
        <ele>269.31</ele>
        <time>2015-05-17T08:28:09Z</time>
      </trkpt>
      <trkpt lat="41.646024360" lon="2.493409470">
        <ele>266.42</ele>
        <time>2015-05-17T08:28:15Z</time>
      </trkpt>
      <trkpt lat="41.645769810" lon="2.493421200">
        <ele>264.98</ele>
        <time>2015-05-17T08:28:20Z</time>
      </trkpt>
      <trkpt lat="41.645668300" lon="2.493403930">
        <ele>264.98</ele>
        <time>2015-05-17T08:28:24Z</time>
      </trkpt>
      <trkpt lat="41.645673580" lon="2.493456320">
        <ele>263.54</ele>
        <time>2015-05-17T08:28:27Z</time>
      </trkpt>
      <trkpt lat="41.645689090" lon="2.493495460">
        <ele>262.58</ele>
        <time>2015-05-17T08:28:29Z</time>
      </trkpt>
      <trkpt lat="41.645715490" lon="2.493648020">
        <ele>259.69</ele>
        <time>2015-05-17T08:28:33Z</time>
      </trkpt>
      <trkpt lat="41.645670900" lon="2.493995860">
        <ele>255.85</ele>
        <time>2015-05-17T08:28:39Z</time>
      </trkpt>
      <trkpt lat="41.645762010" lon="2.494138780">
        <ele>252.48</ele>
        <time>2015-05-17T08:28:43Z</time>
      </trkpt>
      <trkpt lat="41.645841220" lon="2.494147160">
        <ele>250.08</ele>
        <time>2015-05-17T08:28:45Z</time>
      </trkpt>
      <trkpt lat="41.645981110" lon="2.494141710">
        <ele>248.16</ele>
        <time>2015-05-17T08:28:48Z</time>
      </trkpt>
      <trkpt lat="41.646076500" lon="2.494171300">
        <ele>247.20</ele>
        <time>2015-05-17T08:28:50Z</time>
      </trkpt>
      <trkpt lat="41.646215640" lon="2.494392750">
        <ele>243.35</ele>
        <time>2015-05-17T08:28:55Z</time>
      </trkpt>
      <trkpt lat="41.646340780" lon="2.494656530">
        <ele>239.99</ele>
        <time>2015-05-17T08:28:59Z</time>
      </trkpt>
      <trkpt lat="41.646374140" lon="2.494739340">
        <ele>239.02</ele>
        <time>2015-05-17T08:29:00Z</time>
      </trkpt>
      <trkpt lat="41.646458800" lon="2.494918800">
        <ele>238.06</ele>
        <time>2015-05-17T08:29:02Z</time>
      </trkpt>
      <trkpt lat="41.646505150" lon="2.495006890">
        <ele>237.10</ele>
        <time>2015-05-17T08:29:03Z</time>
      </trkpt>
      <trkpt lat="41.646637330" lon="2.495218950">
        <ele>233.74</ele>
        <time>2015-05-17T08:29:06Z</time>
      </trkpt>
      <trkpt lat="41.646826760" lon="2.495458930">
        <ele>229.89</ele>
        <time>2015-05-17T08:29:10Z</time>
      </trkpt>
      <trkpt lat="41.646908070" lon="2.495732010">
        <ele>226.53</ele>
        <time>2015-05-17T08:29:15Z</time>
      </trkpt>
      <trkpt lat="41.646965740" lon="2.496012970">
        <ele>224.12</ele>
        <time>2015-05-17T08:29:19Z</time>
      </trkpt>
      <trkpt lat="41.647032460" lon="2.496143810">
        <ele>223.16</ele>
        <time>2015-05-17T08:29:21Z</time>
      </trkpt>
      <trkpt lat="41.647197660" lon="2.496538350">
        <ele>220.76</ele>
        <time>2015-05-17T08:29:26Z</time>
      </trkpt>
      <trkpt lat="41.647398750" lon="2.496751500">
        <ele>218.36</ele>
        <time>2015-05-17T08:29:31Z</time>
      </trkpt>
      <trkpt lat="41.647442410" lon="2.496793580">
        <ele>217.88</ele>
        <time>2015-05-17T08:29:32Z</time>
      </trkpt>
      <trkpt lat="41.647537720" lon="2.496890970">
        <ele>216.91</ele>
        <time>2015-05-17T08:29:34Z</time>
      </trkpt>
      <trkpt lat="41.647653300" lon="2.496979150">
        <ele>215.95</ele>
        <time>2015-05-17T08:29:36Z</time>
      </trkpt>
      <trkpt lat="41.647782380" lon="2.497068590">
        <ele>214.51</ele>
        <time>2015-05-17T08:29:38Z</time>
      </trkpt>
      <trkpt lat="41.647921270" lon="2.497184760">
        <ele>213.55</ele>
        <time>2015-05-17T08:29:40Z</time>
      </trkpt>
      <trkpt lat="41.648076670" lon="2.497386260">
        <ele>212.59</ele>
        <time>2015-05-17T08:29:43Z</time>
      </trkpt>
      <trkpt lat="41.648368360" lon="2.497605200">
        <ele>210.19</ele>
        <time>2015-05-17T08:29:48Z</time>
      </trkpt>
      <trkpt lat="41.648430050" lon="2.497611820">
        <ele>209.70</ele>
        <time>2015-05-17T08:29:49Z</time>
      </trkpt>
      <trkpt lat="41.648555200" lon="2.497624470">
        <ele>208.74</ele>
        <time>2015-05-17T08:29:51Z</time>
      </trkpt>
      <trkpt lat="41.648690310" lon="2.497654230">
        <ele>206.82</ele>
        <time>2015-05-17T08:29:54Z</time>
      </trkpt>
      <trkpt lat="41.648717640" lon="2.497708540">
        <ele>206.34</ele>
        <time>2015-05-17T08:29:56Z</time>
      </trkpt>
      <trkpt lat="41.648681680" lon="2.497844500">
        <ele>205.86</ele>
        <time>2015-05-17T08:30:01Z</time>
      </trkpt>
      <trkpt lat="41.648590400" lon="2.498065610">
        <ele>204.90</ele>
        <time>2015-05-17T08:30:08Z</time>
      </trkpt>
      <trkpt lat="41.648569700" lon="2.498085980">
        <ele>204.90</ele>
        <time>2015-05-17T08:30:09Z</time>
      </trkpt>
      <trkpt lat="41.648510190" lon="2.498098810">
        <ele>205.38</ele>
        <time>2015-05-17T08:30:13Z</time>
      </trkpt>
      <trkpt lat="41.648395100" lon="2.498107610">
        <ele>205.38</ele>
        <time>2015-05-17T08:30:20Z</time>
      </trkpt>
      <trkpt lat="41.648344890" lon="2.498146500">
        <ele>205.38</ele>
        <time>2015-05-17T08:30:24Z</time>
      </trkpt>
      <trkpt lat="41.648233580" lon="2.498262170">
        <ele>206.34</ele>
        <time>2015-05-17T08:30:32Z</time>
      </trkpt>
      <trkpt lat="41.648193100" lon="2.498304830">
        <ele>206.34</ele>
        <time>2015-05-17T08:30:36Z</time>
      </trkpt>
      <trkpt lat="41.648090840" lon="2.498401640">
        <ele>206.34</ele>
        <time>2015-05-17T08:30:43Z</time>
      </trkpt>
      <trkpt lat="41.647949100" lon="2.498598450">
        <ele>206.34</ele>
        <time>2015-05-17T08:30:50Z</time>
      </trkpt>
      <trkpt lat="41.647763110" lon="2.498820820">
        <ele>206.82</ele>
        <time>2015-05-17T08:30:58Z</time>
      </trkpt>
      <trkpt lat="41.647597140" lon="2.498963060">
        <ele>207.30</ele>
        <time>2015-05-17T08:31:04Z</time>
      </trkpt>
      <trkpt lat="41.647453560" lon="2.499106390">
        <ele>208.26</ele>
        <time>2015-05-17T08:31:11Z</time>
      </trkpt>
      <trkpt lat="41.647362790" lon="2.499307810">
        <ele>208.26</ele>
        <time>2015-05-17T08:31:17Z</time>
      </trkpt>
      <trkpt lat="41.647270420" lon="2.499731430">
        <ele>208.26</ele>
        <time>2015-05-17T08:31:24Z</time>
      </trkpt>
      <trkpt lat="41.647242090" lon="2.500041560">
        <ele>208.26</ele>
        <time>2015-05-17T08:31:31Z</time>
      </trkpt>
      <trkpt lat="41.647264550" lon="2.500262850">
        <ele>208.26</ele>
        <time>2015-05-17T08:31:37Z</time>
      </trkpt>
      <trkpt lat="41.647318610" lon="2.500474410">
        <ele>208.26</ele>
        <time>2015-05-17T08:31:42Z</time>
      </trkpt>
      <trkpt lat="41.647386090" lon="2.500870110">
        <ele>208.74</ele>
        <time>2015-05-17T08:31:49Z</time>
      </trkpt>
      <trkpt lat="41.647490950" lon="2.501296080">
        <ele>209.22</ele>
        <time>2015-05-17T08:31:58Z</time>
      </trkpt>
      <trkpt lat="41.647547270" lon="2.501688780">
        <ele>209.70</ele>
        <time>2015-05-17T08:32:07Z</time>
      </trkpt>
      <trkpt lat="41.647601840" lon="2.501953220">
        <ele>210.67</ele>
        <time>2015-05-17T08:32:13Z</time>
      </trkpt>
      <trkpt lat="41.647741650" lon="2.502275010">
        <ele>210.67</ele>
        <time>2015-05-17T08:32:21Z</time>
      </trkpt>
      <trkpt lat="41.647868720" lon="2.502460580">
        <ele>211.15</ele>
        <time>2015-05-17T08:32:27Z</time>
      </trkpt>
      <trkpt lat="41.648062840" lon="2.502653030">
        <ele>211.15</ele>
        <time>2015-05-17T08:32:35Z</time>
      </trkpt>
      <trkpt lat="41.648213050" lon="2.502815640">
        <ele>211.15</ele>
        <time>2015-05-17T08:32:42Z</time>
      </trkpt>
      <trkpt lat="41.648352690" lon="2.502979170">
        <ele>211.15</ele>
        <time>2015-05-17T08:32:48Z</time>
      </trkpt>
      <trkpt lat="41.648548240" lon="2.503217550">
        <ele>211.63</ele>
        <time>2015-05-17T08:32:56Z</time>
      </trkpt>
      <trkpt lat="41.648712360" lon="2.503425920">
        <ele>212.11</ele>
        <time>2015-05-17T08:33:03Z</time>
      </trkpt>
      <trkpt lat="41.648880000" lon="2.503606050">
        <ele>212.59</ele>
        <time>2015-05-17T08:33:09Z</time>
      </trkpt>
      <trkpt lat="41.648987790" lon="2.503739160">
        <ele>212.59</ele>
        <time>2015-05-17T08:33:14Z</time>
      </trkpt>
      <trkpt lat="41.649152830" lon="2.503970330">
        <ele>213.07</ele>
        <time>2015-05-17T08:33:22Z</time>
      </trkpt>
      <trkpt lat="41.649290370" lon="2.504267970">
        <ele>213.55</ele>
        <time>2015-05-17T08:33:29Z</time>
      </trkpt>
      <trkpt lat="41.649353820" lon="2.504558320">
        <ele>213.55</ele>
        <time>2015-05-17T08:33:36Z</time>
      </trkpt>
      <trkpt lat="41.649350890" lon="2.504808940">
        <ele>214.51</ele>
        <time>2015-05-17T08:33:42Z</time>
      </trkpt>
      <trkpt lat="41.649346780" lon="2.505113790">
        <ele>214.03</ele>
        <time>2015-05-17T08:33:49Z</time>
      </trkpt>
      <trkpt lat="41.649310570" lon="2.505338760">
        <ele>214.51</ele>
        <time>2015-05-17T08:33:55Z</time>
      </trkpt>
      <trkpt lat="41.649241840" lon="2.505556860">
        <ele>214.51</ele>
        <time>2015-05-17T08:34:01Z</time>
      </trkpt>
      <trkpt lat="41.649128690" lon="2.505853320">
        <ele>214.99</ele>
        <time>2015-05-17T08:34:09Z</time>
      </trkpt>
      <trkpt lat="41.649056600" lon="2.506103860">
        <ele>215.95</ele>
        <time>2015-05-17T08:34:15Z</time>
      </trkpt>
      <trkpt lat="41.648918380" lon="2.506347350">
        <ele>216.43</ele>
        <time>2015-05-17T08:34:22Z</time>
      </trkpt>
      <trkpt lat="41.648745380" lon="2.506478030">
        <ele>216.91</ele>
        <time>2015-05-17T08:34:29Z</time>
      </trkpt>
      <trkpt lat="41.648688720" lon="2.506603920">
        <ele>216.91</ele>
        <time>2015-05-17T08:34:34Z</time>
      </trkpt>
      <trkpt lat="41.648663240" lon="2.506747920">
        <ele>216.91</ele>
        <time>2015-05-17T08:34:41Z</time>
      </trkpt>
      <trkpt lat="41.648661900" lon="2.506779110">
        <ele>216.91</ele>
        <time>2015-05-17T08:34:52Z</time>
      </trkpt>
      <trkpt lat="41.648746640" lon="2.506735180">
        <ele>216.91</ele>
        <time>2015-05-17T08:34:59Z</time>
      </trkpt>
      <trkpt lat="41.648806990" lon="2.506719930">
        <ele>216.91</ele>
        <time>2015-05-17T08:35:02Z</time>
      </trkpt>
      <trkpt lat="41.648996340" lon="2.506664520">
        <ele>217.40</ele>
        <time>2015-05-17T08:35:11Z</time>
      </trkpt>
      <trkpt lat="41.649166490" lon="2.506735690">
        <ele>217.88</ele>
        <time>2015-05-17T08:35:17Z</time>
      </trkpt>
      <trkpt lat="41.649292470" lon="2.506895950">
        <ele>217.88</ele>
        <time>2015-05-17T08:35:24Z</time>
      </trkpt>
      <trkpt lat="41.649295820" lon="2.506895780">
        <ele>217.88</ele>
        <time>2015-05-17T08:35:30Z</time>
      </trkpt>
      <trkpt lat="41.649296660" lon="2.506856300">
        <ele>217.40</ele>
        <time>2015-05-17T08:35:49Z</time>
      </trkpt>
      <trkpt lat="41.649292050" lon="2.506830990">
        <ele>217.40</ele>
        <time>2015-05-17T08:36:05Z</time>
      </trkpt>
      <trkpt lat="41.649290370" lon="2.506827640">
        <ele>217.40</ele>
        <time>2015-05-17T08:36:22Z</time>
      </trkpt>
      <trkpt lat="41.649292470" lon="2.506826210">
        <ele>217.40</ele>
        <time>2015-05-17T08:36:37Z</time>
      </trkpt>
      <trkpt lat="41.649289790" lon="2.506841970">
        <ele>217.40</ele>
        <time>2015-05-17T08:36:51Z</time>
      </trkpt>
      <trkpt lat="41.649292890" lon="2.506863340">
        <ele>217.40</ele>
        <time>2015-05-17T08:37:04Z</time>
      </trkpt>
      <trkpt lat="41.649284510" lon="2.506874410">
        <ele>217.40</ele>
        <time>2015-05-17T08:37:20Z</time>
      </trkpt>
      <trkpt lat="41.649277130" lon="2.506866280">
        <ele>217.40</ele>
        <time>2015-05-17T08:37:35Z</time>
      </trkpt>
      <trkpt lat="41.649285760" lon="2.506896620">
        <ele>216.91</ele>
        <time>2015-05-17T08:37:47Z</time>
      </trkpt>
      <trkpt lat="41.649259700" lon="2.506879600">
        <ele>216.91</ele>
        <time>2015-05-17T08:38:05Z</time>
      </trkpt>
      <trkpt lat="41.649269000" lon="2.506884380">
        <ele>216.91</ele>
        <time>2015-05-17T08:38:23Z</time>
      </trkpt>
      <trkpt lat="41.649274450" lon="2.506849010">
        <ele>216.91</ele>
        <time>2015-05-17T08:38:27Z</time>
      </trkpt>
      <trkpt lat="41.649200940" lon="2.506738960">
        <ele>216.91</ele>
        <time>2015-05-17T08:38:34Z</time>
      </trkpt>
      <trkpt lat="41.649185350" lon="2.506721770">
        <ele>216.91</ele>
        <time>2015-05-17T08:38:35Z</time>
      </trkpt>
      <trkpt lat="41.649008740" lon="2.506615570">
        <ele>216.91</ele>
        <time>2015-05-17T08:38:44Z</time>
      </trkpt>
      <trkpt lat="41.648780170" lon="2.506674000">
        <ele>216.91</ele>
        <time>2015-05-17T08:38:53Z</time>
      </trkpt>
      <trkpt lat="41.648581350" lon="2.506807180">
        <ele>216.91</ele>
        <time>2015-05-17T08:39:00Z</time>
      </trkpt>
      <trkpt lat="41.648444390" lon="2.507056130">
        <ele>216.91</ele>
        <time>2015-05-17T08:39:08Z</time>
      </trkpt>
      <trkpt lat="41.648314470" lon="2.507176240">
        <ele>216.91</ele>
        <time>2015-05-17T08:39:15Z</time>
      </trkpt>
      <trkpt lat="41.648254370" lon="2.507326190">
        <ele>216.91</ele>
        <time>2015-05-17T08:39:20Z</time>
      </trkpt>
      <trkpt lat="41.648205170" lon="2.507621490">
        <ele>217.40</ele>
        <time>2015-05-17T08:39:28Z</time>
      </trkpt>
      <trkpt lat="41.648104670" lon="2.507917870">
        <ele>217.40</ele>
        <time>2015-05-17T08:39:36Z</time>
      </trkpt>
      <trkpt lat="41.647991090" lon="2.508232690">
        <ele>217.88</ele>
        <time>2015-05-17T08:39:45Z</time>
      </trkpt>
      <trkpt lat="41.647885570" lon="2.508496720">
        <ele>217.88</ele>
        <time>2015-05-17T08:39:53Z</time>
      </trkpt>
      <trkpt lat="41.647770400" lon="2.508758830">
        <ele>218.84</ele>
        <time>2015-05-17T08:40:01Z</time>
      </trkpt>
      <trkpt lat="41.647707030" lon="2.508971220">
        <ele>219.80</ele>
        <time>2015-05-17T08:40:08Z</time>
      </trkpt>
      <trkpt lat="41.647541570" lon="2.509305410">
        <ele>220.28</ele>
        <time>2015-05-17T08:40:19Z</time>
      </trkpt>
      <trkpt lat="41.647450880" lon="2.509498450">
        <ele>221.24</ele>
        <time>2015-05-17T08:40:26Z</time>
      </trkpt>
      <trkpt lat="41.647378290" lon="2.509618470">
        <ele>221.24</ele>
        <time>2015-05-17T08:40:31Z</time>
      </trkpt>
      <trkpt lat="41.647238150" lon="2.509606990">
        <ele>221.72</ele>
        <time>2015-05-17T08:40:37Z</time>
      </trkpt>
      <trkpt lat="41.646934050" lon="2.509420750">
        <ele>222.20</ele>
        <time>2015-05-17T08:40:48Z</time>
      </trkpt>
      <trkpt lat="41.646759790" lon="2.509298960">
        <ele>222.68</ele>
        <time>2015-05-17T08:40:54Z</time>
      </trkpt>
      <trkpt lat="41.646572880" lon="2.509172640">
        <ele>223.16</ele>
        <time>2015-05-17T08:41:01Z</time>
      </trkpt>
      <trkpt lat="41.646330810" lon="2.508990420">
        <ele>224.61</ele>
        <time>2015-05-17T08:41:10Z</time>
      </trkpt>
      <trkpt lat="41.646105840" lon="2.508846750">
        <ele>226.05</ele>
        <time>2015-05-17T08:41:18Z</time>
      </trkpt>
      <trkpt lat="41.645872650" lon="2.508651540">
        <ele>226.53</ele>
        <time>2015-05-17T08:41:26Z</time>
      </trkpt>
      <trkpt lat="41.645715580" lon="2.508537210">
        <ele>226.53</ele>
        <time>2015-05-17T08:41:30Z</time>
      </trkpt>
      <trkpt lat="41.645477700" lon="2.508332440">
        <ele>225.09</ele>
        <time>2015-05-17T08:41:36Z</time>
      </trkpt>
      <trkpt lat="41.645175610" lon="2.508100090">
        <ele>224.61</ele>
        <time>2015-05-17T08:41:43Z</time>
      </trkpt>
      <trkpt lat="41.644733720" lon="2.507824160">
        <ele>224.12</ele>
        <time>2015-05-17T08:41:53Z</time>
      </trkpt>
      <trkpt lat="41.644642360" lon="2.507782170">
        <ele>224.12</ele>
        <time>2015-05-17T08:41:55Z</time>
      </trkpt>
      <trkpt lat="41.644251170" lon="2.507557030">
        <ele>224.12</ele>
        <time>2015-05-17T08:42:05Z</time>
      </trkpt>
      <trkpt lat="41.644036430" lon="2.507372880">
        <ele>226.05</ele>
        <time>2015-05-17T08:42:13Z</time>
      </trkpt>
      <trkpt lat="41.643874150" lon="2.507260560">
        <ele>227.97</ele>
        <time>2015-05-17T08:42:20Z</time>
      </trkpt>
      <trkpt lat="41.643702580" lon="2.507232900">
        <ele>230.37</ele>
        <time>2015-05-17T08:42:27Z</time>
      </trkpt>
      <trkpt lat="41.643527980" lon="2.507268360">
        <ele>231.33</ele>
        <time>2015-05-17T08:42:34Z</time>
      </trkpt>
      <trkpt lat="41.643365120" lon="2.507295680">
        <ele>232.30</ele>
        <time>2015-05-17T08:42:41Z</time>
      </trkpt>
      <trkpt lat="41.643186840" lon="2.507311520">
        <ele>232.78</ele>
        <time>2015-05-17T08:42:48Z</time>
      </trkpt>
      <trkpt lat="41.642967480" lon="2.507328120">
        <ele>233.74</ele>
        <time>2015-05-17T08:42:56Z</time>
      </trkpt>
      <trkpt lat="41.642779390" lon="2.507356700">
        <ele>234.70</ele>
        <time>2015-05-17T08:43:03Z</time>
      </trkpt>
      <trkpt lat="41.642564730" lon="2.507342620">
        <ele>235.18</ele>
        <time>2015-05-17T08:43:11Z</time>
      </trkpt>
      <trkpt lat="41.642328950" lon="2.507312280">
        <ele>236.62</ele>
        <time>2015-05-17T08:43:20Z</time>
      </trkpt>
      <trkpt lat="41.642085290" lon="2.507309430">
        <ele>238.06</ele>
        <time>2015-05-17T08:43:29Z</time>
      </trkpt>
      <trkpt lat="41.641814050" lon="2.507226870">
        <ele>238.06</ele>
        <time>2015-05-17T08:43:39Z</time>
      </trkpt>
      <trkpt lat="41.641549180" lon="2.507171380">
        <ele>237.58</ele>
        <time>2015-05-17T08:43:46Z</time>
      </trkpt>
      <trkpt lat="41.641466120" lon="2.507167020">
        <ele>236.62</ele>
        <time>2015-05-17T08:43:48Z</time>
      </trkpt>
      <trkpt lat="41.641186160" lon="2.507227700">
        <ele>238.06</ele>
        <time>2015-05-17T08:43:56Z</time>
      </trkpt>
      <trkpt lat="41.640947530" lon="2.507336750">
        <ele>238.06</ele>
        <time>2015-05-17T08:44:04Z</time>
      </trkpt>
      <trkpt lat="41.640755080" lon="2.507365340">
        <ele>238.54</ele>
        <time>2015-05-17T08:44:10Z</time>
      </trkpt>
      <trkpt lat="41.640489710" lon="2.507363070">
        <ele>238.54</ele>
        <time>2015-05-17T08:44:17Z</time>
      </trkpt>
      <trkpt lat="41.640237160" lon="2.507446390">
        <ele>238.54</ele>
        <time>2015-05-17T08:44:25Z</time>
      </trkpt>
      <trkpt lat="41.640003140" lon="2.507492240">
        <ele>239.51</ele>
        <time>2015-05-17T08:44:33Z</time>
      </trkpt>
      <trkpt lat="41.639739450" lon="2.507542950">
        <ele>239.99</ele>
        <time>2015-05-17T08:44:41Z</time>
      </trkpt>
      <trkpt lat="41.639477340" lon="2.507587960">
        <ele>240.95</ele>
        <time>2015-05-17T08:44:49Z</time>
      </trkpt>
      <trkpt lat="41.639232340" lon="2.507630370">
        <ele>241.43</ele>
        <time>2015-05-17T08:44:57Z</time>
      </trkpt>
      <trkpt lat="41.638989100" lon="2.507624760">
        <ele>241.91</ele>
        <time>2015-05-17T08:45:05Z</time>
      </trkpt>
      <trkpt lat="41.638723730" lon="2.507639170">
        <ele>242.87</ele>
        <time>2015-05-17T08:45:14Z</time>
      </trkpt>
      <trkpt lat="41.638467830" lon="2.507651830">
        <ele>243.35</ele>
        <time>2015-05-17T08:45:22Z</time>
      </trkpt>
      <trkpt lat="41.638222490" lon="2.507603970">
        <ele>243.83</ele>
        <time>2015-05-17T08:45:30Z</time>
      </trkpt>
      <trkpt lat="41.637993500" lon="2.507540430">
        <ele>243.35</ele>
        <time>2015-05-17T08:45:37Z</time>
      </trkpt>
      <trkpt lat="41.637967430" lon="2.507530460">
        <ele>243.35</ele>
        <time>2015-05-17T08:45:38Z</time>
      </trkpt>
      <trkpt lat="41.637900040" lon="2.507607990">
        <ele>243.35</ele>
        <time>2015-05-17T08:45:43Z</time>
      </trkpt>
      <trkpt lat="41.637892490" lon="2.507779650">
        <ele>245.75</ele>
        <time>2015-05-17T08:45:51Z</time>
      </trkpt>
      <trkpt lat="41.637805490" lon="2.507864900">
        <ele>246.72</ele>
        <time>2015-05-17T08:45:57Z</time>
      </trkpt>
      <trkpt lat="41.637662490" lon="2.507982910">
        <ele>247.68</ele>
        <time>2015-05-17T08:46:05Z</time>
      </trkpt>
      <trkpt lat="41.637531570" lon="2.508114850">
        <ele>249.12</ele>
        <time>2015-05-17T08:46:14Z</time>
      </trkpt>
      <trkpt lat="41.637431660" lon="2.508258180">
        <ele>250.08</ele>
        <time>2015-05-17T08:46:21Z</time>
      </trkpt>
      <trkpt lat="41.637273990" lon="2.508317270">
        <ele>251.52</ele>
        <time>2015-05-17T08:46:29Z</time>
      </trkpt>
      <trkpt lat="41.637105100" lon="2.508334120">
        <ele>252.48</ele>
        <time>2015-05-17T08:46:37Z</time>
      </trkpt>
      <trkpt lat="41.636989590" lon="2.508392370">
        <ele>253.44</ele>
        <time>2015-05-17T08:46:44Z</time>
      </trkpt>
      <trkpt lat="41.636830930" lon="2.508469320">
        <ele>254.41</ele>
        <time>2015-05-17T08:46:52Z</time>
      </trkpt>
      <trkpt lat="41.636787510" lon="2.508473000">
        <ele>254.41</ele>
        <time>2015-05-17T08:46:54Z</time>
      </trkpt>
      <trkpt lat="41.636617610" lon="2.508552380">
        <ele>254.89</ele>
        <time>2015-05-17T08:47:02Z</time>
      </trkpt>
      <trkpt lat="41.636470420" lon="2.508669640">
        <ele>256.81</ele>
        <time>2015-05-17T08:47:10Z</time>
      </trkpt>
      <trkpt lat="41.636284760" lon="2.508713650">
        <ele>257.77</ele>
        <time>2015-05-17T08:47:19Z</time>
      </trkpt>
      <trkpt lat="41.636135650" lon="2.508684650">
        <ele>259.69</ele>
        <time>2015-05-17T08:47:27Z</time>
      </trkpt>
      <trkpt lat="41.636020400" lon="2.508656060">
        <ele>260.65</ele>
        <time>2015-05-17T08:47:33Z</time>
      </trkpt>
      <trkpt lat="41.635869190" lon="2.508620860">
        <ele>260.65</ele>
        <time>2015-05-17T08:47:40Z</time>
      </trkpt>
      <trkpt lat="41.635687470" lon="2.508594290">
        <ele>262.10</ele>
        <time>2015-05-17T08:47:49Z</time>
      </trkpt>
      <trkpt lat="41.635521920" lon="2.508601250">
        <ele>262.10</ele>
        <time>2015-05-17T08:47:54Z</time>
      </trkpt>
      <trkpt lat="41.635351520" lon="2.508744240">
        <ele>261.14</ele>
        <time>2015-05-17T08:47:59Z</time>
      </trkpt>
      <trkpt lat="41.635221850" lon="2.508892850">
        <ele>260.65</ele>
        <time>2015-05-17T08:48:05Z</time>
      </trkpt>
      <trkpt lat="41.635007110" lon="2.509105920">
        <ele>262.10</ele>
        <time>2015-05-17T08:48:14Z</time>
      </trkpt>
      <trkpt lat="41.634762770" lon="2.509316220">
        <ele>262.10</ele>
        <time>2015-05-17T08:48:23Z</time>
      </trkpt>
      <trkpt lat="41.634587010" lon="2.509458050">
        <ele>262.58</ele>
        <time>2015-05-17T08:48:30Z</time>
      </trkpt>
      <trkpt lat="41.634392460" lon="2.509473550">
        <ele>264.02</ele>
        <time>2015-05-17T08:48:39Z</time>
      </trkpt>
      <trkpt lat="41.634251390" lon="2.509423340">
        <ele>264.02</ele>
        <time>2015-05-17T08:48:45Z</time>
      </trkpt>
      <trkpt lat="41.634068670" lon="2.509393590">
        <ele>264.02</ele>
        <time>2015-05-17T08:48:53Z</time>
      </trkpt>
      <trkpt lat="41.633893320" lon="2.509410520">
        <ele>264.98</ele>
        <time>2015-05-17T08:49:01Z</time>
      </trkpt>
      <trkpt lat="41.633718140" lon="2.509403140">
        <ele>266.90</ele>
        <time>2015-05-17T08:49:09Z</time>
      </trkpt>
      <trkpt lat="41.633595260" lon="2.509414710">
        <ele>268.35</ele>
        <time>2015-05-17T08:49:16Z</time>
      </trkpt>
      <trkpt lat="41.633573630" lon="2.509418730">
        <ele>268.35</ele>
        <time>2015-05-17T08:49:17Z</time>
      </trkpt>
      <trkpt lat="41.633453610" lon="2.509476230">
        <ele>269.79</ele>
        <time>2015-05-17T08:49:25Z</time>
      </trkpt>
      <trkpt lat="41.633437010" lon="2.509485030">
        <ele>269.79</ele>
        <time>2015-05-17T08:49:26Z</time>
      </trkpt>
      <trkpt lat="41.633250760" lon="2.509553520">
        <ele>272.67</ele>
        <time>2015-05-17T08:49:36Z</time>
      </trkpt>
      <trkpt lat="41.633204410" lon="2.509559130">
        <ele>273.63</ele>
        <time>2015-05-17T08:49:39Z</time>
      </trkpt>
      <trkpt lat="41.633081280" lon="2.509557790">
        <ele>274.59</ele>
        <time>2015-05-17T08:49:47Z</time>
      </trkpt>
      <trkpt lat="41.632917580" lon="2.509566670">
        <ele>276.04</ele>
        <time>2015-05-17T08:49:57Z</time>
      </trkpt>
      <trkpt lat="41.632768550" lon="2.509576980">
        <ele>277.48</ele>
        <time>2015-05-17T08:50:06Z</time>
      </trkpt>
      <trkpt lat="41.632634440" lon="2.509528450">
        <ele>277.96</ele>
        <time>2015-05-17T08:50:13Z</time>
      </trkpt>
      <trkpt lat="41.632435040" lon="2.509527360">
        <ele>277.96</ele>
        <time>2015-05-17T08:50:21Z</time>
      </trkpt>
      <trkpt lat="41.632244680" lon="2.509560640">
        <ele>278.92</ele>
        <time>2015-05-17T08:50:29Z</time>
      </trkpt>
      <trkpt lat="41.632109400" lon="2.509583860">
        <ele>280.36</ele>
        <time>2015-05-17T08:50:36Z</time>
      </trkpt>
      <trkpt lat="41.631968250" lon="2.509587130">
        <ele>281.32</ele>
        <time>2015-05-17T08:50:43Z</time>
      </trkpt>
      <trkpt lat="41.631770350" lon="2.509527280">
        <ele>282.28</ele>
        <time>2015-05-17T08:50:52Z</time>
      </trkpt>
      <trkpt lat="41.631627440" lon="2.509465840">
        <ele>283.73</ele>
        <time>2015-05-17T08:51:00Z</time>
      </trkpt>
      <trkpt lat="41.631498020" lon="2.509411270">
        <ele>284.69</ele>
        <time>2015-05-17T08:51:07Z</time>
      </trkpt>
      <trkpt lat="41.631344720" lon="2.509362070">
        <ele>286.61</ele>
        <time>2015-05-17T08:51:15Z</time>
      </trkpt>
      <trkpt lat="41.631166350" lon="2.509293510">
        <ele>288.05</ele>
        <time>2015-05-17T08:51:24Z</time>
      </trkpt>
      <trkpt lat="41.631101220" lon="2.509254620">
        <ele>289.49</ele>
        <time>2015-05-17T08:51:29Z</time>
      </trkpt>
      <trkpt lat="41.630979020" lon="2.509128300">
        <ele>291.90</ele>
        <time>2015-05-17T08:51:39Z</time>
      </trkpt>
      <trkpt lat="41.630888240" lon="2.509034260">
        <ele>293.34</ele>
        <time>2015-05-17T08:51:47Z</time>
      </trkpt>
      <trkpt lat="41.630865360" lon="2.509013300">
        <ele>293.82</ele>
        <time>2015-05-17T08:51:49Z</time>
      </trkpt>
      <trkpt lat="41.630737950" lon="2.508882120">
        <ele>294.78</ele>
        <time>2015-05-17T08:51:58Z</time>
      </trkpt>
      <trkpt lat="41.630676850" lon="2.508763350">
        <ele>295.74</ele>
        <time>2015-05-17T08:52:04Z</time>
      </trkpt>
      <trkpt lat="41.630642650" lon="2.508588340">
        <ele>296.22</ele>
        <time>2015-05-17T08:52:11Z</time>
      </trkpt>
      <trkpt lat="41.630584820" lon="2.508406870">
        <ele>297.67</ele>
        <time>2015-05-17T08:52:20Z</time>
      </trkpt>
      <trkpt lat="41.630576430" lon="2.508385830">
        <ele>298.15</ele>
        <time>2015-05-17T08:52:21Z</time>
      </trkpt>
      <trkpt lat="41.630533600" lon="2.508310230">
        <ele>299.11</ele>
        <time>2015-05-17T08:52:27Z</time>
      </trkpt>
      <trkpt lat="41.630497140" lon="2.508191540">
        <ele>301.03</ele>
        <time>2015-05-17T08:52:35Z</time>
      </trkpt>
      <trkpt lat="41.630381890" lon="2.508055330">
        <ele>302.47</ele>
        <time>2015-05-17T08:52:44Z</time>
      </trkpt>
      <trkpt lat="41.630287590" lon="2.507971510">
        <ele>304.39</ele>
        <time>2015-05-17T08:52:53Z</time>
      </trkpt>
      <trkpt lat="41.630228000" lon="2.507911580">
        <ele>306.32</ele>
        <time>2015-05-17T08:53:00Z</time>
      </trkpt>
      <trkpt lat="41.630161280" lon="2.507843860">
        <ele>306.80</ele>
        <time>2015-05-17T08:53:05Z</time>
      </trkpt>
      <trkpt lat="41.630135380" lon="2.507805800">
        <ele>307.28</ele>
        <time>2015-05-17T08:53:08Z</time>
      </trkpt>
      <trkpt lat="41.630002440" lon="2.507677810">
        <ele>309.68</ele>
        <time>2015-05-17T08:53:18Z</time>
      </trkpt>
      <trkpt lat="41.629921720" lon="2.507623410">
        <ele>311.12</ele>
        <time>2015-05-17T08:53:26Z</time>
      </trkpt>
      <trkpt lat="41.629787440" lon="2.507504640">
        <ele>312.09</ele>
        <time>2015-05-17T08:53:34Z</time>
      </trkpt>
      <trkpt lat="41.629713100" lon="2.507446890">
        <ele>313.53</ele>
        <time>2015-05-17T08:53:41Z</time>
      </trkpt>
      <trkpt lat="41.629643440" lon="2.507387130">
        <ele>315.45</ele>
        <time>2015-05-17T08:53:50Z</time>
      </trkpt>
      <trkpt lat="41.629549990" lon="2.507304150">
        <ele>315.93</ele>
        <time>2015-05-17T08:53:57Z</time>
      </trkpt>
      <trkpt lat="41.629435910" lon="2.507173730">
        <ele>316.41</ele>
        <time>2015-05-17T08:54:04Z</time>
      </trkpt>
      <trkpt lat="41.629335660" lon="2.507088560">
        <ele>316.89</ele>
        <time>2015-05-17T08:54:11Z</time>
      </trkpt>
      <trkpt lat="41.629200460" lon="2.506983870">
        <ele>317.85</ele>
        <time>2015-05-17T08:54:20Z</time>
      </trkpt>
      <trkpt lat="41.629149330" lon="2.506919250">
        <ele>318.81</ele>
        <time>2015-05-17T08:54:25Z</time>
      </trkpt>
      <trkpt lat="41.629051850" lon="2.506781280">
        <ele>320.26</ele>
        <time>2015-05-17T08:54:35Z</time>
      </trkpt>
      <trkpt lat="41.629035500" lon="2.506771480">
        <ele>321.22</ele>
        <time>2015-05-17T08:54:37Z</time>
      </trkpt>
      <trkpt lat="41.628921260" lon="2.506783720">
        <ele>321.70</ele>
        <time>2015-05-17T08:54:44Z</time>
      </trkpt>
      <trkpt lat="41.628913300" lon="2.506860740">
        <ele>322.66</ele>
        <time>2015-05-17T08:54:48Z</time>
      </trkpt>
      <trkpt lat="41.628964840" lon="2.506998710">
        <ele>323.62</ele>
        <time>2015-05-17T08:54:57Z</time>
      </trkpt>
      <trkpt lat="41.628984290" lon="2.507036260">
        <ele>323.62</ele>
        <time>2015-05-17T08:55:00Z</time>
      </trkpt>
      <trkpt lat="41.629055030" lon="2.507161150">
        <ele>325.06</ele>
        <time>2015-05-17T08:55:08Z</time>
      </trkpt>
      <trkpt lat="41.629125190" lon="2.507272460">
        <ele>326.99</ele>
        <time>2015-05-17T08:55:15Z</time>
      </trkpt>
      <trkpt lat="41.629153270" lon="2.507376820">
        <ele>327.47</ele>
        <time>2015-05-17T08:55:21Z</time>
      </trkpt>
      <trkpt lat="41.629068950" lon="2.507413110">
        <ele>329.39</ele>
        <time>2015-05-17T08:55:28Z</time>
      </trkpt>
      <trkpt lat="41.628979680" lon="2.507369020">
        <ele>331.31</ele>
        <time>2015-05-17T08:55:36Z</time>
      </trkpt>
      <trkpt lat="41.628927210" lon="2.507328710">
        <ele>333.23</ele>
        <time>2015-05-17T08:55:42Z</time>
      </trkpt>
      <trkpt lat="41.628854450" lon="2.507261320">
        <ele>335.64</ele>
        <time>2015-05-17T08:55:49Z</time>
      </trkpt>
      <trkpt lat="41.628711710" lon="2.507205580">
        <ele>337.08</ele>
        <time>2015-05-17T08:55:58Z</time>
      </trkpt>
      <trkpt lat="41.628696290" lon="2.507193340">
        <ele>337.56</ele>
        <time>2015-05-17T08:56:00Z</time>
      </trkpt>
      <trkpt lat="41.628638200" lon="2.507058640">
        <ele>339.00</ele>
        <time>2015-05-17T08:56:08Z</time>
      </trkpt>
      <trkpt lat="41.628595370" lon="2.506953450">
        <ele>340.44</ele>
        <time>2015-05-17T08:56:15Z</time>
      </trkpt>
      <trkpt lat="41.628545250" lon="2.506875920">
        <ele>342.37</ele>
        <time>2015-05-17T08:56:21Z</time>
      </trkpt>
      <trkpt lat="41.628471150" lon="2.506734760">
        <ele>344.29</ele>
        <time>2015-05-17T08:56:31Z</time>
      </trkpt>
      <trkpt lat="41.628433260" lon="2.506695290">
        <ele>345.25</ele>
        <time>2015-05-17T08:56:35Z</time>
      </trkpt>
      <trkpt lat="41.628326060" lon="2.506636450">
        <ele>346.21</ele>
        <time>2015-05-17T08:56:44Z</time>
      </trkpt>
      <trkpt lat="41.628192960" lon="2.506547010">
        <ele>349.58</ele>
        <time>2015-05-17T08:56:54Z</time>
      </trkpt>
      <trkpt lat="41.628106540" lon="2.506520190">
        <ele>350.54</ele>
        <time>2015-05-17T08:57:00Z</time>
      </trkpt>
      <trkpt lat="41.628079970" lon="2.506508790">
        <ele>351.02</ele>
        <time>2015-05-17T08:57:02Z</time>
      </trkpt>
      <trkpt lat="41.627969580" lon="2.506457160">
        <ele>352.46</ele>
        <time>2015-05-17T08:57:12Z</time>
      </trkpt>
      <trkpt lat="41.627944520" lon="2.506437370">
        <ele>352.94</ele>
        <time>2015-05-17T08:57:15Z</time>
      </trkpt>
      <trkpt lat="41.627929430" lon="2.506416760">
        <ele>353.90</ele>
        <time>2015-05-17T08:57:17Z</time>
      </trkpt>
      <trkpt lat="41.627832030" lon="2.506323720">
        <ele>355.34</ele>
        <time>2015-05-17T08:57:26Z</time>
      </trkpt>
      <trkpt lat="41.627802360" lon="2.506286500">
        <ele>355.83</ele>
        <time>2015-05-17T08:57:30Z</time>
      </trkpt>
      <trkpt lat="41.627665730" lon="2.506225230">
        <ele>356.79</ele>
        <time>2015-05-17T08:57:39Z</time>
      </trkpt>
      <trkpt lat="41.627509830" lon="2.506216430">
        <ele>357.75</ele>
        <time>2015-05-17T08:57:48Z</time>
      </trkpt>
      <trkpt lat="41.627391650" lon="2.506209890">
        <ele>359.19</ele>
        <time>2015-05-17T08:57:56Z</time>
      </trkpt>
      <trkpt lat="41.627235990" lon="2.506205360">
        <ele>360.63</ele>
        <time>2015-05-17T08:58:06Z</time>
      </trkpt>
      <trkpt lat="41.627137170" lon="2.506219780">
        <ele>361.11</ele>
        <time>2015-05-17T08:58:11Z</time>
      </trkpt>
      <trkpt lat="41.627084700" lon="2.506244510">
        <ele>362.07</ele>
        <time>2015-05-17T08:58:15Z</time>
      </trkpt>
      <trkpt lat="41.627040860" lon="2.506272250">
        <ele>363.52</ele>
        <time>2015-05-17T08:58:19Z</time>
      </trkpt>
      <trkpt lat="41.626967100" lon="2.506381380">
        <ele>364.96</ele>
        <time>2015-05-17T08:58:28Z</time>
      </trkpt>
      <trkpt lat="41.626883120" lon="2.506454220">
        <ele>366.88</ele>
        <time>2015-05-17T08:58:36Z</time>
      </trkpt>
      <trkpt lat="41.626749930" lon="2.506460340">
        <ele>368.32</ele>
        <time>2015-05-17T08:58:44Z</time>
      </trkpt>
      <trkpt lat="41.626681360" lon="2.506401170">
        <ele>368.80</ele>
        <time>2015-05-17T08:58:50Z</time>
      </trkpt>
      <trkpt lat="41.626659400" lon="2.506306700">
        <ele>370.24</ele>
        <time>2015-05-17T08:58:57Z</time>
      </trkpt>
      <trkpt lat="41.626673650" lon="2.506169320">
        <ele>371.69</ele>
        <time>2015-05-17T08:59:05Z</time>
      </trkpt>
      <trkpt lat="41.626587070" lon="2.506049290">
        <ele>371.69</ele>
        <time>2015-05-17T08:59:13Z</time>
      </trkpt>
      <trkpt lat="41.626460160" lon="2.505910320">
        <ele>372.65</ele>
        <time>2015-05-17T08:59:20Z</time>
      </trkpt>
      <trkpt lat="41.626336950" lon="2.505747210">
        <ele>373.61</ele>
        <time>2015-05-17T08:59:28Z</time>
      </trkpt>
      <trkpt lat="41.626315740" lon="2.505653420">
        <ele>374.09</ele>
        <time>2015-05-17T08:59:33Z</time>
      </trkpt>
      <trkpt lat="41.626347930" lon="2.505521570">
        <ele>375.53</ele>
        <time>2015-05-17T08:59:41Z</time>
      </trkpt>
      <trkpt lat="41.626411300" lon="2.505383180">
        <ele>376.49</ele>
        <time>2015-05-17T08:59:49Z</time>
      </trkpt>
      <trkpt lat="41.626439380" lon="2.505263660">
        <ele>376.97</ele>
        <time>2015-05-17T08:59:54Z</time>
      </trkpt>
      <trkpt lat="41.626367290" lon="2.505219150">
        <ele>378.42</ele>
        <time>2015-05-17T09:00:00Z</time>
      </trkpt>
      <trkpt lat="41.626350450" lon="2.505241360">
        <ele>378.42</ele>
        <time>2015-05-17T09:00:02Z</time>
      </trkpt>
      <trkpt lat="41.626295380" lon="2.505316630">
        <ele>380.34</ele>
        <time>2015-05-17T09:00:09Z</time>
      </trkpt>
      <trkpt lat="41.626250700" lon="2.505326610">
        <ele>381.78</ele>
        <time>2015-05-17T09:00:13Z</time>
      </trkpt>
      <trkpt lat="41.626210970" lon="2.505330290">
        <ele>382.26</ele>
        <time>2015-05-17T09:00:16Z</time>
      </trkpt>
      <trkpt lat="41.626093710" lon="2.505362400">
        <ele>383.22</ele>
        <time>2015-05-17T09:00:24Z</time>
      </trkpt>
      <trkpt lat="41.626041320" lon="2.505388720">
        <ele>383.70</ele>
        <time>2015-05-17T09:00:28Z</time>
      </trkpt>
      <trkpt lat="41.626018020" lon="2.505537160">
        <ele>384.18</ele>
        <time>2015-05-17T09:00:35Z</time>
      </trkpt>
      <trkpt lat="41.626061940" lon="2.505706640">
        <ele>386.11</ele>
        <time>2015-05-17T09:00:44Z</time>
      </trkpt>
      <trkpt lat="41.626113660" lon="2.505862880">
        <ele>388.51</ele>
        <time>2015-05-17T09:00:52Z</time>
      </trkpt>
      <trkpt lat="41.626122710" lon="2.505998160">
        <ele>389.47</ele>
        <time>2015-05-17T09:00:59Z</time>
      </trkpt>
      <trkpt lat="41.626105860" lon="2.506061200">
        <ele>389.95</ele>
        <time>2015-05-17T09:01:03Z</time>
      </trkpt>
      <trkpt lat="41.626046850" lon="2.506223550">
        <ele>391.39</ele>
        <time>2015-05-17T09:01:11Z</time>
      </trkpt>
      <trkpt lat="41.625973260" lon="2.506397480">
        <ele>391.87</ele>
        <time>2015-05-17T09:01:19Z</time>
      </trkpt>
      <trkpt lat="41.625954900" lon="2.506595460">
        <ele>392.84</ele>
        <time>2015-05-17T09:01:27Z</time>
      </trkpt>
      <trkpt lat="41.625950130" lon="2.506754210">
        <ele>394.28</ele>
        <time>2015-05-17T09:01:35Z</time>
      </trkpt>
      <trkpt lat="41.625941580" lon="2.506817830">
        <ele>395.72</ele>
        <time>2015-05-17T09:01:39Z</time>
      </trkpt>
      <trkpt lat="41.625858760" lon="2.506989570">
        <ele>396.68</ele>
        <time>2015-05-17T09:01:47Z</time>
      </trkpt>
      <trkpt lat="41.625798160" lon="2.507106750">
        <ele>398.12</ele>
        <time>2015-05-17T09:01:55Z</time>
      </trkpt>
      <trkpt lat="41.625752730" lon="2.507253940">
        <ele>399.57</ele>
        <time>2015-05-17T09:02:02Z</time>
      </trkpt>
      <trkpt lat="41.625693390" lon="2.507421830">
        <ele>400.05</ele>
        <time>2015-05-17T09:02:09Z</time>
      </trkpt>
      <trkpt lat="41.625609990" lon="2.507612520">
        <ele>401.01</ele>
        <time>2015-05-17T09:02:17Z</time>
      </trkpt>
      <trkpt lat="41.625490460" lon="2.507773120">
        <ele>403.89</ele>
        <time>2015-05-17T09:02:27Z</time>
      </trkpt>
      <trkpt lat="41.625445700" lon="2.507732800">
        <ele>404.85</ele>
        <time>2015-05-17T09:02:34Z</time>
      </trkpt>
      <trkpt lat="41.625446710" lon="2.507727690">
        <ele>404.37</ele>
        <time>2015-05-17T09:02:40Z</time>
      </trkpt>
      <trkpt lat="41.625449060" lon="2.507726930">
        <ele>404.37</ele>
        <time>2015-05-17T09:02:55Z</time>
      </trkpt>
      <trkpt lat="41.625464730" lon="2.507724500">
        <ele>404.37</ele>
        <time>2015-05-17T09:03:10Z</time>
      </trkpt>
      <trkpt lat="41.625470010" lon="2.507716540">
        <ele>404.37</ele>
        <time>2015-05-17T09:03:22Z</time>
      </trkpt>
      <trkpt lat="41.625450230" lon="2.507598350">
        <ele>404.85</ele>
        <time>2015-05-17T09:03:29Z</time>
      </trkpt>
      <trkpt lat="41.625441010" lon="2.507531300">
        <ele>404.85</ele>
        <time>2015-05-17T09:03:32Z</time>
      </trkpt>
      <trkpt lat="41.625406640" lon="2.507346810">
        <ele>405.33</ele>
        <time>2015-05-17T09:03:40Z</time>
      </trkpt>
      <trkpt lat="41.625358870" lon="2.507161990">
        <ele>406.29</ele>
        <time>2015-05-17T09:03:48Z</time>
      </trkpt>
      <trkpt lat="41.625318210" lon="2.507015890">
        <ele>406.77</ele>
        <time>2015-05-17T09:03:55Z</time>
      </trkpt>
      <trkpt lat="41.625284850" lon="2.506854040">
        <ele>407.74</ele>
        <time>2015-05-17T09:04:02Z</time>
      </trkpt>
      <trkpt lat="41.625235480" lon="2.506636450">
        <ele>408.22</ele>
        <time>2015-05-17T09:04:12Z</time>
      </trkpt>
      <trkpt lat="41.625214780" lon="2.506583810">
        <ele>409.18</ele>
        <time>2015-05-17T09:04:15Z</time>
      </trkpt>
      <trkpt lat="41.625115870" lon="2.506431260">
        <ele>411.10</ele>
        <time>2015-05-17T09:04:24Z</time>
      </trkpt>
      <trkpt lat="41.625045130" lon="2.506270990">
        <ele>411.58</ele>
        <time>2015-05-17T09:04:32Z</time>
      </trkpt>
      <trkpt lat="41.624934830" lon="2.506137720">
        <ele>413.50</ele>
        <time>2015-05-17T09:04:40Z</time>
      </trkpt>
      <trkpt lat="41.624813790" lon="2.506134200">
        <ele>415.43</ele>
        <time>2015-05-17T09:04:48Z</time>
      </trkpt>
      <trkpt lat="41.624713790" lon="2.506209970">
        <ele>416.87</ele>
        <time>2015-05-17T09:04:56Z</time>
      </trkpt>
      <trkpt lat="41.624601390" lon="2.506256580">
        <ele>418.79</ele>
        <time>2015-05-17T09:05:04Z</time>
      </trkpt>
      <trkpt lat="41.624481450" lon="2.506280130">
        <ele>420.71</ele>
        <time>2015-05-17T09:05:12Z</time>
      </trkpt>
      <trkpt lat="41.624355300" lon="2.506303430">
        <ele>422.16</ele>
        <time>2015-05-17T09:05:21Z</time>
      </trkpt>
      <trkpt lat="41.624278770" lon="2.506308960">
        <ele>423.60</ele>
        <time>2015-05-17T09:05:27Z</time>
      </trkpt>
      <trkpt lat="41.624166710" lon="2.506304100">
        <ele>425.04</ele>
        <time>2015-05-17T09:05:34Z</time>
      </trkpt>
      <trkpt lat="41.624004430" lon="2.506252220">
        <ele>425.52</ele>
        <time>2015-05-17T09:05:44Z</time>
      </trkpt>
      <trkpt lat="41.623828670" lon="2.506144930">
        <ele>426.96</ele>
        <time>2015-05-17T09:05:55Z</time>
      </trkpt>
      <trkpt lat="41.623720120" lon="2.506068650">
        <ele>428.40</ele>
        <time>2015-05-17T09:06:02Z</time>
      </trkpt>
      <trkpt lat="41.623620880" lon="2.505971590">
        <ele>430.33</ele>
        <time>2015-05-17T09:06:11Z</time>
      </trkpt>
      <trkpt lat="41.623586930" lon="2.505793980">
        <ele>430.81</ele>
        <time>2015-05-17T09:06:19Z</time>
      </trkpt>
      <trkpt lat="41.623670000" lon="2.505623660">
        <ele>431.77</ele>
        <time>2015-05-17T09:06:28Z</time>
      </trkpt>
      <trkpt lat="41.623741070" lon="2.505478990">
        <ele>433.21</ele>
        <time>2015-05-17T09:06:36Z</time>
      </trkpt>
      <trkpt lat="41.623835790" lon="2.505329540">
        <ele>434.65</ele>
        <time>2015-05-17T09:06:45Z</time>
      </trkpt>
      <trkpt lat="41.623938720" lon="2.505162570">
        <ele>436.10</ele>
        <time>2015-05-17T09:06:54Z</time>
      </trkpt>
      <trkpt lat="41.624058410" lon="2.505045980">
        <ele>438.50</ele>
        <time>2015-05-17T09:07:03Z</time>
      </trkpt>
      <trkpt lat="41.624196130" lon="2.504878340">
        <ele>439.46</ele>
        <time>2015-05-17T09:07:12Z</time>
      </trkpt>
      <trkpt lat="41.624288750" lon="2.504672650">
        <ele>439.46</ele>
        <time>2015-05-17T09:07:19Z</time>
      </trkpt>
      <trkpt lat="41.624337200" lon="2.504458660">
        <ele>440.42</ele>
        <time>2015-05-17T09:07:27Z</time>
      </trkpt>
      <trkpt lat="41.624340050" lon="2.504434020">
        <ele>440.42</ele>
        <time>2015-05-17T09:07:28Z</time>
      </trkpt>
      <trkpt lat="41.624318250" lon="2.504333350">
        <ele>441.38</ele>
        <time>2015-05-17T09:07:33Z</time>
      </trkpt>
      <trkpt lat="41.624183890" lon="2.504254480">
        <ele>442.34</ele>
        <time>2015-05-17T09:07:40Z</time>
      </trkpt>
      <trkpt lat="41.624146000" lon="2.504259590">
        <ele>442.34</ele>
        <time>2015-05-17T09:07:42Z</time>
      </trkpt>
      <trkpt lat="41.624019350" lon="2.504251880">
        <ele>442.34</ele>
        <time>2015-05-17T09:07:46Z</time>
      </trkpt>
      <trkpt lat="41.623934780" lon="2.504214580">
        <ele>441.38</ele>
        <time>2015-05-17T09:07:48Z</time>
      </trkpt>
      <trkpt lat="41.623697070" lon="2.504007130">
        <ele>439.46</ele>
        <time>2015-05-17T09:07:54Z</time>
      </trkpt>
      <trkpt lat="41.623612330" lon="2.504084570">
        <ele>438.98</ele>
        <time>2015-05-17T09:07:57Z</time>
      </trkpt>
      <trkpt lat="41.623510320" lon="2.504258250">
        <ele>437.06</ele>
        <time>2015-05-17T09:08:01Z</time>
      </trkpt>
      <trkpt lat="41.623323400" lon="2.504259590">
        <ele>434.17</ele>
        <time>2015-05-17T09:08:05Z</time>
      </trkpt>
      <trkpt lat="41.623172280" lon="2.504240480">
        <ele>432.25</ele>
        <time>2015-05-17T09:08:08Z</time>
      </trkpt>
      <trkpt lat="41.622999860" lon="2.504239980">
        <ele>430.33</ele>
        <time>2015-05-17T09:08:12Z</time>
      </trkpt>
      <trkpt lat="41.622802220" lon="2.504069910">
        <ele>427.44</ele>
        <time>2015-05-17T09:08:17Z</time>
      </trkpt>
      <trkpt lat="41.622777240" lon="2.503762790">
        <ele>425.52</ele>
        <time>2015-05-17T09:08:21Z</time>
      </trkpt>
      <trkpt lat="41.622789060" lon="2.503630110">
        <ele>425.04</ele>
        <time>2015-05-17T09:08:23Z</time>
      </trkpt>
      <trkpt lat="41.622825020" lon="2.503416620">
        <ele>425.04</ele>
        <time>2015-05-17T09:08:27Z</time>
      </trkpt>
      <trkpt lat="41.622755610" lon="2.503132220">
        <ele>425.52</ele>
        <time>2015-05-17T09:08:32Z</time>
      </trkpt>
      <trkpt lat="41.622559980" lon="2.503039180">
        <ele>424.56</ele>
        <time>2015-05-17T09:08:36Z</time>
      </trkpt>
      <trkpt lat="41.622389330" lon="2.503092320">
        <ele>423.12</ele>
        <time>2015-05-17T09:08:40Z</time>
      </trkpt>
      <trkpt lat="41.622278010" lon="2.503056200">
        <ele>422.16</ele>
        <time>2015-05-17T09:08:42Z</time>
      </trkpt>
      <trkpt lat="41.622047600" lon="2.502965930">
        <ele>419.27</ele>
        <time>2015-05-17T09:08:46Z</time>
      </trkpt>
      <trkpt lat="41.621794210" lon="2.502745980">
        <ele>415.43</ele>
        <time>2015-05-17T09:08:51Z</time>
      </trkpt>
      <trkpt lat="41.621764870" lon="2.502644560">
        <ele>413.98</ele>
        <time>2015-05-17T09:08:52Z</time>
      </trkpt>
      <trkpt lat="41.621718860" lon="2.502323870">
        <ele>412.06</ele>
        <time>2015-05-17T09:08:55Z</time>
      </trkpt>
      <trkpt lat="41.621770490" lon="2.501892540">
        <ele>407.74</ele>
        <time>2015-05-17T09:08:59Z</time>
      </trkpt>
      <trkpt lat="41.621759430" lon="2.501645020">
        <ele>405.33</ele>
        <time>2015-05-17T09:09:03Z</time>
      </trkpt>
      <trkpt lat="41.621676530" lon="2.501597410">
        <ele>405.33</ele>
        <time>2015-05-17T09:09:05Z</time>
      </trkpt>
      <trkpt lat="41.621543090" lon="2.501541170">
        <ele>404.85</ele>
        <time>2015-05-17T09:09:08Z</time>
      </trkpt>
      <trkpt lat="41.621353320" lon="2.501348050">
        <ele>405.33</ele>
        <time>2015-05-17T09:09:15Z</time>
      </trkpt>
      <trkpt lat="41.621260370" lon="2.501183930">
        <ele>406.29</ele>
        <time>2015-05-17T09:09:21Z</time>
      </trkpt>
      <trkpt lat="41.621191220" lon="2.501041860">
        <ele>406.29</ele>
        <time>2015-05-17T09:09:26Z</time>
      </trkpt>
      <trkpt lat="41.621072610" lon="2.500919650">
        <ele>404.37</ele>
        <time>2015-05-17T09:09:31Z</time>
      </trkpt>
      <trkpt lat="41.621046710" lon="2.500903980">
        <ele>404.37</ele>
        <time>2015-05-17T09:09:32Z</time>
      </trkpt>
      <trkpt lat="41.620884690" lon="2.500950660">
        <ele>401.01</ele>
        <time>2015-05-17T09:09:39Z</time>
      </trkpt>
      <trkpt lat="41.620819390" lon="2.501006490">
        <ele>400.53</ele>
        <time>2015-05-17T09:09:41Z</time>
      </trkpt>
      <trkpt lat="41.620713700" lon="2.501140260">
        <ele>399.08</ele>
        <time>2015-05-17T09:09:44Z</time>
      </trkpt>
      <trkpt lat="41.620683190" lon="2.501190220">
        <ele>398.60</ele>
        <time>2015-05-17T09:09:45Z</time>
      </trkpt>
      <trkpt lat="41.620565840" lon="2.501338910">
        <ele>397.64</ele>
        <time>2015-05-17T09:09:48Z</time>
      </trkpt>
      <trkpt lat="41.620369960" lon="2.501469670">
        <ele>397.16</ele>
        <time>2015-05-17T09:09:52Z</time>
      </trkpt>
      <trkpt lat="41.620143230" lon="2.501446960">
        <ele>394.76</ele>
        <time>2015-05-17T09:09:56Z</time>
      </trkpt>
      <trkpt lat="41.619967120" lon="2.501200860">
        <ele>393.32</ele>
        <time>2015-05-17T09:10:00Z</time>
      </trkpt>
      <trkpt lat="41.619821280" lon="2.501000450">
        <ele>390.43</ele>
        <time>2015-05-17T09:10:04Z</time>
      </trkpt>
      <trkpt lat="41.619656410" lon="2.500767860">
        <ele>386.59</ele>
        <time>2015-05-17T09:10:09Z</time>
      </trkpt>
      <trkpt lat="41.619536290" lon="2.500644470">
        <ele>383.70</ele>
        <time>2015-05-17T09:10:13Z</time>
      </trkpt>
      <trkpt lat="41.619381310" lon="2.500677080">
        <ele>380.82</ele>
        <time>2015-05-17T09:10:18Z</time>
      </trkpt>
      <trkpt lat="41.619369330" lon="2.500800710">
        <ele>379.38</ele>
        <time>2015-05-17T09:10:22Z</time>
      </trkpt>
      <trkpt lat="41.619465970" lon="2.500977240">
        <ele>376.49</ele>
        <time>2015-05-17T09:10:26Z</time>
      </trkpt>
      <trkpt lat="41.619491200" lon="2.501019980">
        <ele>376.01</ele>
        <time>2015-05-17T09:10:27Z</time>
      </trkpt>
      <trkpt lat="41.619569990" lon="2.501187710">
        <ele>372.17</ele>
        <time>2015-05-17T09:10:30Z</time>
      </trkpt>
      <trkpt lat="41.619622790" lon="2.501433040">
        <ele>367.84</ele>
        <time>2015-05-17T09:10:34Z</time>
      </trkpt>
      <trkpt lat="41.619579710" lon="2.501602360">
        <ele>364.48</ele>
        <time>2015-05-17T09:10:37Z</time>
      </trkpt>
      <trkpt lat="41.619557830" lon="2.501705540">
        <ele>364.00</ele>
        <time>2015-05-17T09:10:39Z</time>
      </trkpt>
      <trkpt lat="41.619545680" lon="2.501865130">
        <ele>360.63</ele>
        <time>2015-05-17T09:10:42Z</time>
      </trkpt>
      <trkpt lat="41.619571920" lon="2.502017680">
        <ele>358.23</ele>
        <time>2015-05-17T09:10:46Z</time>
      </trkpt>
      <trkpt lat="41.619583150" lon="2.502197640">
        <ele>354.86</ele>
        <time>2015-05-17T09:10:51Z</time>
      </trkpt>
      <trkpt lat="41.619588430" lon="2.502231080">
        <ele>354.38</ele>
        <time>2015-05-17T09:10:52Z</time>
      </trkpt>
      <trkpt lat="41.619616170" lon="2.502499720">
        <ele>350.06</ele>
        <time>2015-05-17T09:10:57Z</time>
      </trkpt>
      <trkpt lat="41.619604270" lon="2.502613890">
        <ele>349.10</ele>
        <time>2015-05-17T09:10:59Z</time>
      </trkpt>
      <trkpt lat="41.619566130" lon="2.502941280">
        <ele>344.77</ele>
        <time>2015-05-17T09:11:03Z</time>
      </trkpt>
      <trkpt lat="41.619546020" lon="2.503119060">
        <ele>341.41</ele>
        <time>2015-05-17T09:11:06Z</time>
      </trkpt>
      <trkpt lat="41.619470750" lon="2.503068350">
        <ele>339.00</ele>
        <time>2015-05-17T09:11:10Z</time>
      </trkpt>
      <trkpt lat="41.619465550" lon="2.502871210">
        <ele>338.04</ele>
        <time>2015-05-17T09:11:14Z</time>
      </trkpt>
      <trkpt lat="41.619459100" lon="2.502744980">
        <ele>337.08</ele>
        <time>2015-05-17T09:11:16Z</time>
      </trkpt>
      <trkpt lat="41.619425400" lon="2.502695610">
        <ele>336.12</ele>
        <time>2015-05-17T09:11:18Z</time>
      </trkpt>
      <trkpt lat="41.619357340" lon="2.502802560">
        <ele>334.20</ele>
        <time>2015-05-17T09:11:21Z</time>
      </trkpt>
      <trkpt lat="41.619351300" lon="2.502883620">
        <ele>333.71</ele>
        <time>2015-05-17T09:11:22Z</time>
      </trkpt>
      <trkpt lat="41.619300260" lon="2.503163240">
        <ele>330.35</ele>
        <time>2015-05-17T09:11:26Z</time>
      </trkpt>
      <trkpt lat="41.619143520" lon="2.503542430">
        <ele>326.99</ele>
        <time>2015-05-17T09:11:32Z</time>
      </trkpt>
      <trkpt lat="41.619066490" lon="2.503780650">
        <ele>323.14</ele>
        <time>2015-05-17T09:11:36Z</time>
      </trkpt>
      <trkpt lat="41.619000940" lon="2.503999160">
        <ele>319.78</ele>
        <time>2015-05-17T09:11:41Z</time>
      </trkpt>
      <trkpt lat="41.618928940" lon="2.503977450">
        <ele>318.81</ele>
        <time>2015-05-17T09:11:44Z</time>
      </trkpt>
      <trkpt lat="41.618919130" lon="2.503926410">
        <ele>317.85</ele>
        <time>2015-05-17T09:11:45Z</time>
      </trkpt>
      <trkpt lat="41.618892060" lon="2.503630190">
        <ele>314.01</ele>
        <time>2015-05-17T09:11:49Z</time>
      </trkpt>
      <trkpt lat="41.618926850" lon="2.503281500">
        <ele>310.16</ele>
        <time>2015-05-17T09:11:55Z</time>
      </trkpt>
      <trkpt lat="41.618930370" lon="2.503233220">
        <ele>309.68</ele>
        <time>2015-05-17T09:11:56Z</time>
      </trkpt>
      <trkpt lat="41.618842270" lon="2.503110930">
        <ele>306.32</ele>
        <time>2015-05-17T09:12:00Z</time>
      </trkpt>
      <trkpt lat="41.618805560" lon="2.503121410">
        <ele>305.84</ele>
        <time>2015-05-17T09:12:01Z</time>
      </trkpt>
      <trkpt lat="41.618702460" lon="2.503165830">
        <ele>304.88</ele>
        <time>2015-05-17T09:12:03Z</time>
      </trkpt>
      <trkpt lat="41.618577990" lon="2.503213190">
        <ele>302.95</ele>
        <time>2015-05-17T09:12:05Z</time>
      </trkpt>
      <trkpt lat="41.618418900" lon="2.503360380">
        <ele>300.07</ele>
        <time>2015-05-17T09:12:09Z</time>
      </trkpt>
      <trkpt lat="41.618243550" lon="2.503664810">
        <ele>297.67</ele>
        <time>2015-05-17T09:12:14Z</time>
      </trkpt>
      <trkpt lat="41.618154620" lon="2.504004530">
        <ele>293.34</ele>
        <time>2015-05-17T09:12:18Z</time>
      </trkpt>
      <trkpt lat="41.618127130" lon="2.504100000">
        <ele>292.38</ele>
        <time>2015-05-17T09:12:19Z</time>
      </trkpt>
      <trkpt lat="41.617972570" lon="2.504447760">
        <ele>287.57</ele>
        <time>2015-05-17T09:12:23Z</time>
      </trkpt>
      <trkpt lat="41.617833010" lon="2.504749680">
        <ele>284.69</ele>
        <time>2015-05-17T09:12:27Z</time>
      </trkpt>
      <trkpt lat="41.617794450" lon="2.504826540">
        <ele>283.25</ele>
        <time>2015-05-17T09:12:28Z</time>
      </trkpt>
      <trkpt lat="41.617733010" lon="2.504979340">
        <ele>281.80</ele>
        <time>2015-05-17T09:12:30Z</time>
      </trkpt>
      <trkpt lat="41.617678190" lon="2.505121000">
        <ele>279.40</ele>
        <time>2015-05-17T09:12:32Z</time>
      </trkpt>
      <trkpt lat="41.617642650" lon="2.505284190">
        <ele>276.52</ele>
        <time>2015-05-17T09:12:35Z</time>
      </trkpt>
      <trkpt lat="41.617599150" lon="2.505584260">
        <ele>271.23</ele>
        <time>2015-05-17T09:12:39Z</time>
      </trkpt>
      <trkpt lat="41.617533770" lon="2.505829270">
        <ele>268.35</ele>
        <time>2015-05-17T09:12:42Z</time>
      </trkpt>
      <trkpt lat="41.617524380" lon="2.506047360">
        <ele>266.42</ele>
        <time>2015-05-17T09:12:45Z</time>
      </trkpt>
      <trkpt lat="41.617545590" lon="2.506192370">
        <ele>264.50</ele>
        <time>2015-05-17T09:12:47Z</time>
      </trkpt>
      <trkpt lat="41.617534440" lon="2.506623540">
        <ele>258.73</ele>
        <time>2015-05-17T09:12:52Z</time>
      </trkpt>
      <trkpt lat="41.617505530" lon="2.506781280">
        <ele>256.81</ele>
        <time>2015-05-17T09:12:54Z</time>
      </trkpt>
      <trkpt lat="41.617501000" lon="2.507134580">
        <ele>254.41</ele>
        <time>2015-05-17T09:12:58Z</time>
      </trkpt>
      <trkpt lat="41.617478120" lon="2.507414960">
        <ele>252.00</ele>
        <time>2015-05-17T09:13:02Z</time>
      </trkpt>
      <trkpt lat="41.617443160" lon="2.507712680">
        <ele>247.68</ele>
        <time>2015-05-17T09:13:07Z</time>
      </trkpt>
      <trkpt lat="41.617432600" lon="2.507816450">
        <ele>246.72</ele>
        <time>2015-05-17T09:13:11Z</time>
      </trkpt>
      <trkpt lat="41.617428750" lon="2.507877800">
        <ele>246.72</ele>
        <time>2015-05-17T09:13:19Z</time>
      </trkpt>
      <trkpt lat="41.617429080" lon="2.507931870">
        <ele>246.23</ele>
        <time>2015-05-17T09:13:29Z</time>
      </trkpt>
      <trkpt lat="41.617421040" lon="2.507965900">
        <ele>246.23</ele>
        <time>2015-05-17T09:13:43Z</time>
      </trkpt>
      <trkpt lat="41.617422880" lon="2.507984090">
        <ele>246.23</ele>
        <time>2015-05-17T09:13:54Z</time>
      </trkpt>
      <trkpt lat="41.617434450" lon="2.508049550">
        <ele>245.75</ele>
        <time>2015-05-17T09:14:03Z</time>
      </trkpt>
      <trkpt lat="41.617434780" lon="2.508091290">
        <ele>245.75</ele>
        <time>2015-05-17T09:14:04Z</time>
      </trkpt>
      <trkpt lat="41.617372340" lon="2.508295220">
        <ele>244.31</ele>
        <time>2015-05-17T09:14:08Z</time>
      </trkpt>
      <trkpt lat="41.617210990" lon="2.508727390">
        <ele>241.91</ele>
        <time>2015-05-17T09:14:14Z</time>
      </trkpt>
      <trkpt lat="41.617122640" lon="2.509018080">
        <ele>240.47</ele>
        <time>2015-05-17T09:14:17Z</time>
      </trkpt>
      <trkpt lat="41.617087940" lon="2.509124280">
        <ele>239.51</ele>
        <time>2015-05-17T09:14:18Z</time>
      </trkpt>
      <trkpt lat="41.616985340" lon="2.509392670">
        <ele>238.06</ele>
        <time>2015-05-17T09:14:21Z</time>
      </trkpt>
      <trkpt lat="41.616844280" lon="2.509710420">
        <ele>236.62</ele>
        <time>2015-05-17T09:14:25Z</time>
      </trkpt>
      <trkpt lat="41.616774540" lon="2.510063640">
        <ele>235.18</ele>
        <time>2015-05-17T09:14:29Z</time>
      </trkpt>
      <trkpt lat="41.616645710" lon="2.510532350">
        <ele>229.89</ele>
        <time>2015-05-17T09:14:35Z</time>
      </trkpt>
      <trkpt lat="41.616542280" lon="2.510678620">
        <ele>227.49</ele>
        <time>2015-05-17T09:14:37Z</time>
      </trkpt>
      <trkpt lat="41.616401630" lon="2.510988660">
        <ele>224.61</ele>
        <time>2015-05-17T09:14:41Z</time>
      </trkpt>
      <trkpt lat="41.616362740" lon="2.511175250">
        <ele>223.64</ele>
        <time>2015-05-17T09:14:43Z</time>
      </trkpt>
      <trkpt lat="41.616383520" lon="2.511694000">
        <ele>221.72</ele>
        <time>2015-05-17T09:14:49Z</time>
      </trkpt>
      <trkpt lat="41.616417550" lon="2.511779250">
        <ele>221.72</ele>
        <time>2015-05-17T09:14:50Z</time>
      </trkpt>
      <trkpt lat="41.616670440" lon="2.512280820">
        <ele>220.28</ele>
        <time>2015-05-17T09:14:56Z</time>
      </trkpt>
      <trkpt lat="41.616768670" lon="2.512549120">
        <ele>219.32</ele>
        <time>2015-05-17T09:14:59Z</time>
      </trkpt>
      <trkpt lat="41.616846880" lon="2.512936280">
        <ele>218.36</ele>
        <time>2015-05-17T09:15:03Z</time>
      </trkpt>
      <trkpt lat="41.616856510" lon="2.513419330">
        <ele>217.40</ele>
        <time>2015-05-17T09:15:08Z</time>
      </trkpt>
      <trkpt lat="41.616844780" lon="2.514310160">
        <ele>214.03</ele>
        <time>2015-05-17T09:15:17Z</time>
      </trkpt>
      <trkpt lat="41.616875880" lon="2.514600510">
        <ele>213.07</ele>
        <time>2015-05-17T09:15:20Z</time>
      </trkpt>
      <trkpt lat="41.616870260" lon="2.515188580">
        <ele>211.63</ele>
        <time>2015-05-17T09:15:26Z</time>
      </trkpt>
      <trkpt lat="41.616848470" lon="2.516087710">
        <ele>208.74</ele>
        <time>2015-05-17T09:15:35Z</time>
      </trkpt>
      <trkpt lat="41.616801190" lon="2.516749970">
        <ele>206.34</ele>
        <time>2015-05-17T09:15:42Z</time>
      </trkpt>
      <trkpt lat="41.616747470" lon="2.517321020">
        <ele>204.90</ele>
        <time>2015-05-17T09:15:48Z</time>
      </trkpt>
      <trkpt lat="41.616725170" lon="2.517928040">
        <ele>202.49</ele>
        <time>2015-05-17T09:15:54Z</time>
      </trkpt>
      <trkpt lat="41.616720390" lon="2.518233060">
        <ele>202.01</ele>
        <time>2015-05-17T09:15:57Z</time>
      </trkpt>
      <trkpt lat="41.616676810" lon="2.518508240">
        <ele>201.05</ele>
        <time>2015-05-17T09:16:00Z</time>
      </trkpt>
      <trkpt lat="41.616603970" lon="2.518704710">
        <ele>200.57</ele>
        <time>2015-05-17T09:16:03Z</time>
      </trkpt>
      <trkpt lat="41.616532390" lon="2.519017860">
        <ele>200.57</ele>
        <time>2015-05-17T09:16:08Z</time>
      </trkpt>
      <trkpt lat="41.616447810" lon="2.519492020">
        <ele>199.13</ele>
        <time>2015-05-17T09:16:15Z</time>
      </trkpt>
      <trkpt lat="41.616409170" lon="2.519659070">
        <ele>198.65</ele>
        <time>2015-05-17T09:16:17Z</time>
      </trkpt>
      <trkpt lat="41.616257540" lon="2.520106250">
        <ele>197.21</ele>
        <time>2015-05-17T09:16:23Z</time>
      </trkpt>
      <trkpt lat="41.616114720" lon="2.520494250">
        <ele>195.77</ele>
        <time>2015-05-17T09:16:28Z</time>
      </trkpt>
      <trkpt lat="41.616016730" lon="2.520919710">
        <ele>194.80</ele>
        <time>2015-05-17T09:16:33Z</time>
      </trkpt>
      <trkpt lat="41.615971050" lon="2.521298910">
        <ele>193.84</ele>
        <time>2015-05-17T09:16:37Z</time>
      </trkpt>
      <trkpt lat="41.615921850" lon="2.521575180">
        <ele>193.36</ele>
        <time>2015-05-17T09:16:40Z</time>
      </trkpt>
      <trkpt lat="41.615886480" lon="2.521826050">
        <ele>193.36</ele>
        <time>2015-05-17T09:16:43Z</time>
      </trkpt>
      <trkpt lat="41.615816740" lon="2.522510930">
        <ele>190.96</ele>
        <time>2015-05-17T09:16:50Z</time>
      </trkpt>
      <trkpt lat="41.615699900" lon="2.523227580">
        <ele>189.52</ele>
        <time>2015-05-17T09:16:57Z</time>
      </trkpt>
      <trkpt lat="41.615653210" lon="2.523605940">
        <ele>188.08</ele>
        <time>2015-05-17T09:17:01Z</time>
      </trkpt>
      <trkpt lat="41.615622780" lon="2.524002070">
        <ele>186.63</ele>
        <time>2015-05-17T09:17:05Z</time>
      </trkpt>
      <trkpt lat="41.615560340" lon="2.524669100">
        <ele>183.27</ele>
        <time>2015-05-17T09:17:11Z</time>
      </trkpt>
      <trkpt lat="41.615522370" lon="2.525127090">
        <ele>181.83</ele>
        <time>2015-05-17T09:17:15Z</time>
      </trkpt>
      <trkpt lat="41.615515490" lon="2.525769650">
        <ele>179.90</ele>
        <time>2015-05-17T09:17:21Z</time>
      </trkpt>
      <trkpt lat="41.615569890" lon="2.526491330">
        <ele>177.98</ele>
        <time>2015-05-17T09:17:28Z</time>
      </trkpt>
      <trkpt lat="41.615579620" lon="2.526591160">
        <ele>177.98</ele>
        <time>2015-05-17T09:17:29Z</time>
      </trkpt>
      <trkpt lat="41.615516920" lon="2.527230700">
        <ele>175.58</ele>
        <time>2015-05-17T09:17:35Z</time>
      </trkpt>
      <trkpt lat="41.615393450" lon="2.527869060">
        <ele>172.21</ele>
        <time>2015-05-17T09:17:41Z</time>
      </trkpt>
      <trkpt lat="41.615373340" lon="2.527970570">
        <ele>172.21</ele>
        <time>2015-05-17T09:17:42Z</time>
      </trkpt>
      <trkpt lat="41.615220950" lon="2.528757630">
        <ele>170.29</ele>
        <time>2015-05-17T09:17:50Z</time>
      </trkpt>
      <trkpt lat="41.615179630" lon="2.529046220">
        <ele>169.81</ele>
        <time>2015-05-17T09:17:53Z</time>
      </trkpt>
      <trkpt lat="41.615161190" lon="2.529791960">
        <ele>167.89</ele>
        <time>2015-05-17T09:18:01Z</time>
      </trkpt>
      <trkpt lat="41.615145270" lon="2.530429400">
        <ele>165.48</ele>
        <time>2015-05-17T09:18:08Z</time>
      </trkpt>
      <trkpt lat="41.615096990" lon="2.531135910">
        <ele>163.56</ele>
        <time>2015-05-17T09:18:16Z</time>
      </trkpt>
      <trkpt lat="41.615092210" lon="2.531304220">
        <ele>162.60</ele>
        <time>2015-05-17T09:18:18Z</time>
      </trkpt>
      <trkpt lat="41.615086930" lon="2.531648380">
        <ele>161.64</ele>
        <time>2015-05-17T09:18:22Z</time>
      </trkpt>
      <trkpt lat="41.615025570" lon="2.532145340">
        <ele>160.20</ele>
        <time>2015-05-17T09:18:28Z</time>
      </trkpt>
      <trkpt lat="41.614915520" lon="2.532552870">
        <ele>159.24</ele>
        <time>2015-05-17T09:18:33Z</time>
      </trkpt>
      <trkpt lat="41.614886850" lon="2.532718660">
        <ele>158.27</ele>
        <time>2015-05-17T09:18:35Z</time>
      </trkpt>
      <trkpt lat="41.614815940" lon="2.532939360">
        <ele>157.31</ele>
        <time>2015-05-17T09:18:38Z</time>
      </trkpt>
      <trkpt lat="41.614625420" lon="2.533606220">
        <ele>156.35</ele>
        <time>2015-05-17T09:18:47Z</time>
      </trkpt>
      <trkpt lat="41.614460300" lon="2.534114840">
        <ele>153.95</ele>
        <time>2015-05-17T09:18:54Z</time>
      </trkpt>
      <trkpt lat="41.614338260" lon="2.534592190">
        <ele>152.51</ele>
        <time>2015-05-17T09:19:00Z</time>
      </trkpt>
      <trkpt lat="41.614251340" lon="2.534813470">
        <ele>151.06</ele>
        <time>2015-05-17T09:19:04Z</time>
      </trkpt>
      <trkpt lat="41.614203890" lon="2.534979930">
        <ele>150.58</ele>
        <time>2015-05-17T09:19:07Z</time>
      </trkpt>
      <trkpt lat="41.614235580" lon="2.535170370">
        <ele>150.58</ele>
        <time>2015-05-17T09:19:10Z</time>
      </trkpt>
      <trkpt lat="41.614229120" lon="2.535397770">
        <ele>149.14</ele>
        <time>2015-05-17T09:19:13Z</time>
      </trkpt>
      <trkpt lat="41.614167270" lon="2.535541100">
        <ele>148.18</ele>
        <time>2015-05-17T09:19:15Z</time>
      </trkpt>
      <trkpt lat="41.614102140" lon="2.535674120">
        <ele>148.18</ele>
        <time>2015-05-17T09:19:17Z</time>
      </trkpt>
      <trkpt lat="41.613961070" lon="2.536143010">
        <ele>147.70</ele>
        <time>2015-05-17T09:19:23Z</time>
      </trkpt>
      <trkpt lat="41.613827970" lon="2.536467550">
        <ele>145.30</ele>
        <time>2015-05-17T09:19:28Z</time>
      </trkpt>
      <trkpt lat="41.613741130" lon="2.536619180">
        <ele>144.34</ele>
        <time>2015-05-17T09:19:34Z</time>
      </trkpt>
      <trkpt lat="41.613736940" lon="2.536629240">
        <ele>144.34</ele>
        <time>2015-05-17T09:19:36Z</time>
      </trkpt>
      <trkpt lat="41.613700140" lon="2.536799560">
        <ele>144.34</ele>
        <time>2015-05-17T09:19:42Z</time>
      </trkpt>
      <trkpt lat="41.613513310" lon="2.537052280">
        <ele>143.85</ele>
        <time>2015-05-17T09:19:49Z</time>
      </trkpt>
      <trkpt lat="41.613380120" lon="2.537224360">
        <ele>143.37</ele>
        <time>2015-05-17T09:19:53Z</time>
      </trkpt>
      <trkpt lat="41.613065720" lon="2.537584950">
        <ele>141.93</ele>
        <time>2015-05-17T09:20:01Z</time>
      </trkpt>
      <trkpt lat="41.612888270" lon="2.537794490">
        <ele>140.97</ele>
        <time>2015-05-17T09:20:05Z</time>
      </trkpt>
      <trkpt lat="41.612520050" lon="2.538205370">
        <ele>139.05</ele>
        <time>2015-05-17T09:20:13Z</time>
      </trkpt>
      <trkpt lat="41.612282930" lon="2.538506120">
        <ele>137.61</ele>
        <time>2015-05-17T09:20:19Z</time>
      </trkpt>
      <trkpt lat="41.612179160" lon="2.538698310">
        <ele>137.13</ele>
        <time>2015-05-17T09:20:23Z</time>
      </trkpt>
      <trkpt lat="41.612168940" lon="2.538759590">
        <ele>136.64</ele>
        <time>2015-05-17T09:20:29Z</time>
      </trkpt>
      <trkpt lat="41.612170280" lon="2.538780460">
        <ele>136.16</ele>
        <time>2015-05-17T09:20:43Z</time>
      </trkpt>
      <trkpt lat="41.612161060" lon="2.538803670">
        <ele>136.16</ele>
        <time>2015-05-17T09:20:57Z</time>
      </trkpt>
      <trkpt lat="41.612158960" lon="2.538821610">
        <ele>136.16</ele>
        <time>2015-05-17T09:21:10Z</time>
      </trkpt>
      <trkpt lat="41.612155610" lon="2.538870560">
        <ele>136.16</ele>
        <time>2015-05-17T09:21:25Z</time>
      </trkpt>
      <trkpt lat="41.612166590" lon="2.538897300">
        <ele>136.16</ele>
        <time>2015-05-17T09:21:35Z</time>
      </trkpt>
      <trkpt lat="41.612080090" lon="2.538997460">
        <ele>136.16</ele>
        <time>2015-05-17T09:21:41Z</time>
      </trkpt>
      <trkpt lat="41.611973050" lon="2.539078940">
        <ele>135.68</ele>
        <time>2015-05-17T09:21:49Z</time>
      </trkpt>
      <trkpt lat="41.611961900" lon="2.539066950">
        <ele>135.68</ele>
        <time>2015-05-17T09:21:51Z</time>
      </trkpt>
      <trkpt lat="41.611871290" lon="2.538861090">
        <ele>137.13</ele>
        <time>2015-05-17T09:22:00Z</time>
      </trkpt>
      <trkpt lat="41.611834160" lon="2.538809290">
        <ele>137.61</ele>
        <time>2015-05-17T09:22:02Z</time>
      </trkpt>
      <trkpt lat="41.611662420" lon="2.538752550">
        <ele>139.05</ele>
        <time>2015-05-17T09:22:09Z</time>
      </trkpt>
      <trkpt lat="41.611536600" lon="2.538789010">
        <ele>137.61</ele>
        <time>2015-05-17T09:22:13Z</time>
      </trkpt>
      <trkpt lat="41.611477600" lon="2.538796470">
        <ele>137.61</ele>
        <time>2015-05-17T09:22:14Z</time>
      </trkpt>
      <trkpt lat="41.611136030" lon="2.538834520">
        <ele>136.64</ele>
        <time>2015-05-17T09:22:20Z</time>
      </trkpt>
      <trkpt lat="41.610908720" lon="2.538938880">
        <ele>135.20</ele>
        <time>2015-05-17T09:22:24Z</time>
      </trkpt>
      <trkpt lat="41.610761030" lon="2.538985480">
        <ele>134.24</ele>
        <time>2015-05-17T09:22:27Z</time>
      </trkpt>
      <trkpt lat="41.610587350" lon="2.539051780">
        <ele>132.80</ele>
        <time>2015-05-17T09:22:32Z</time>
      </trkpt>
      <trkpt lat="41.610452150" lon="2.539144650">
        <ele>131.84</ele>
        <time>2015-05-17T09:22:38Z</time>
      </trkpt>
      <trkpt lat="41.610279150" lon="2.539258900">
        <ele>131.36</ele>
        <time>2015-05-17T09:22:43Z</time>
      </trkpt>
      <trkpt lat="41.610161130" lon="2.539327120">
        <ele>130.40</ele>
        <time>2015-05-17T09:22:46Z</time>
      </trkpt>
      <trkpt lat="41.609755870" lon="2.539576820">
        <ele>128.95</ele>
        <time>2015-05-17T09:22:55Z</time>
      </trkpt>
      <trkpt lat="41.609478600" lon="2.539755940">
        <ele>127.99</ele>
        <time>2015-05-17T09:23:02Z</time>
      </trkpt>
      <trkpt lat="41.609256560" lon="2.539879160">
        <ele>127.03</ele>
        <time>2015-05-17T09:23:08Z</time>
      </trkpt>
      <trkpt lat="41.609190170" lon="2.540073450">
        <ele>125.59</ele>
        <time>2015-05-17T09:23:14Z</time>
      </trkpt>
      <trkpt lat="41.609091860" lon="2.540224990">
        <ele>124.63</ele>
        <time>2015-05-17T09:23:21Z</time>
      </trkpt>
      <trkpt lat="41.608966630" lon="2.540381320">
        <ele>124.63</ele>
        <time>2015-05-17T09:23:28Z</time>
      </trkpt>
      <trkpt lat="41.608915750" lon="2.540429600">
        <ele>124.63</ele>
        <time>2015-05-17T09:23:33Z</time>
      </trkpt>
      <trkpt lat="41.608889010" lon="2.540476120">
        <ele>124.63</ele>
        <time>2015-05-17T09:23:36Z</time>
      </trkpt>
      <trkpt lat="41.608815420" lon="2.540312840">
        <ele>123.19</ele>
        <time>2015-05-17T09:23:42Z</time>
      </trkpt>
      <trkpt lat="41.608732940" lon="2.540316270">
        <ele>122.71</ele>
        <time>2015-05-17T09:23:46Z</time>
      </trkpt>
      <trkpt lat="41.608454750" lon="2.540360530">
        <ele>122.22</ele>
        <time>2015-05-17T09:23:54Z</time>
      </trkpt>
      <trkpt lat="41.608147050" lon="2.540412250">
        <ele>122.22</ele>
        <time>2015-05-17T09:24:02Z</time>
      </trkpt>
      <trkpt lat="41.607798860" lon="2.540442000">
        <ele>121.26</ele>
        <time>2015-05-17T09:24:10Z</time>
      </trkpt>
      <trkpt lat="41.607715130" lon="2.540463790">
        <ele>121.26</ele>
        <time>2015-05-17T09:24:13Z</time>
      </trkpt>
      <trkpt lat="41.607633490" lon="2.540569070">
        <ele>120.78</ele>
        <time>2015-05-17T09:24:17Z</time>
      </trkpt>
      <trkpt lat="41.607538860" lon="2.540762610">
        <ele>120.78</ele>
        <time>2015-05-17T09:24:25Z</time>
      </trkpt>
      <trkpt lat="41.607507680" lon="2.540798400">
        <ele>120.78</ele>
        <time>2015-05-17T09:24:27Z</time>
      </trkpt>
      <trkpt lat="41.607331820" lon="2.540815750">
        <ele>120.30</ele>
        <time>2015-05-17T09:24:33Z</time>
      </trkpt>
      <trkpt lat="41.607304250" lon="2.540808710">
        <ele>119.82</ele>
        <time>2015-05-17T09:24:34Z</time>
      </trkpt>
      <trkpt lat="41.607040800" lon="2.540737040">
        <ele>119.34</ele>
        <time>2015-05-17T09:24:43Z</time>
      </trkpt>
      <trkpt lat="41.606809710" lon="2.540671830">
        <ele>117.90</ele>
        <time>2015-05-17T09:24:50Z</time>
      </trkpt>
      <trkpt lat="41.606484750" lon="2.540518610">
        <ele>117.90</ele>
        <time>2015-05-17T09:24:59Z</time>
      </trkpt>
      <trkpt lat="41.606255170" lon="2.540371090">
        <ele>116.94</ele>
        <time>2015-05-17T09:25:06Z</time>
      </trkpt>
      <trkpt lat="41.606173950" lon="2.540319370">
        <ele>116.46</ele>
        <time>2015-05-17T09:25:12Z</time>
      </trkpt>
      <trkpt lat="41.606166070" lon="2.540299340">
        <ele>115.98</ele>
        <time>2015-05-17T09:25:23Z</time>
      </trkpt>
      <trkpt lat="41.606174200" lon="2.540304960">
        <ele>115.98</ele>
        <time>2015-05-17T09:25:37Z</time>
      </trkpt>
      <trkpt lat="41.606166240" lon="2.540296580">
        <ele>115.98</ele>
        <time>2015-05-17T09:25:54Z</time>
      </trkpt>
      <trkpt lat="41.606181160" lon="2.540305460">
        <ele>115.98</ele>
        <time>2015-05-17T09:26:12Z</time>
      </trkpt>
      <trkpt lat="41.606179230" lon="2.540310240">
        <ele>115.98</ele>
        <time>2015-05-17T09:26:28Z</time>
      </trkpt>
      <trkpt lat="41.606163050" lon="2.540292550">
        <ele>115.98</ele>
        <time>2015-05-17T09:26:39Z</time>
      </trkpt>
      <trkpt lat="41.606150810" lon="2.540304540">
        <ele>115.98</ele>
        <time>2015-05-17T09:26:52Z</time>
      </trkpt>
      <trkpt lat="41.606050730" lon="2.540292470">
        <ele>115.98</ele>
        <time>2015-05-17T09:26:59Z</time>
      </trkpt>
      <trkpt lat="41.606015530" lon="2.540326420">
        <ele>115.98</ele>
        <time>2015-05-17T09:27:02Z</time>
      </trkpt>
      <trkpt lat="41.605919470" lon="2.540369670">
        <ele>117.42</ele>
        <time>2015-05-17T09:27:09Z</time>
      </trkpt>
      <trkpt lat="41.605915370" lon="2.540420800">
        <ele>117.42</ele>
        <time>2015-05-17T09:27:12Z</time>
      </trkpt>
      <trkpt lat="41.605924080" lon="2.540487350">
        <ele>117.42</ele>
        <time>2015-05-17T09:27:14Z</time>
      </trkpt>
      <trkpt lat="41.606009490" lon="2.540597490">
        <ele>116.94</ele>
        <time>2015-05-17T09:27:19Z</time>
      </trkpt>
      <trkpt lat="41.606221220" lon="2.540683320">
        <ele>117.90</ele>
        <time>2015-05-17T09:27:28Z</time>
      </trkpt>
      <trkpt lat="41.606411570" lon="2.540747100">
        <ele>118.86</ele>
        <time>2015-05-17T09:27:37Z</time>
      </trkpt>
      <trkpt lat="41.606519030" lon="2.540838300">
        <ele>119.34</ele>
        <time>2015-05-17T09:27:43Z</time>
      </trkpt>
      <trkpt lat="41.606587090" lon="2.540984560">
        <ele>120.30</ele>
        <time>2015-05-17T09:27:49Z</time>
      </trkpt>
      <trkpt lat="41.606605700" lon="2.541064190">
        <ele>120.78</ele>
        <time>2015-05-17T09:27:52Z</time>
      </trkpt>
      <trkpt lat="41.606671160" lon="2.541353280">
        <ele>122.22</ele>
        <time>2015-05-17T09:28:02Z</time>
      </trkpt>
      <trkpt lat="41.606736210" lon="2.541615470">
        <ele>124.15</ele>
        <time>2015-05-17T09:28:11Z</time>
      </trkpt>
      <trkpt lat="41.606749530" lon="2.541642210">
        <ele>124.15</ele>
        <time>2015-05-17T09:28:12Z</time>
      </trkpt>
      <trkpt lat="41.606847940" lon="2.541877400">
        <ele>124.63</ele>
        <time>2015-05-17T09:28:20Z</time>
      </trkpt>
      <trkpt lat="41.606966460" lon="2.542157110">
        <ele>126.55</ele>
        <time>2015-05-17T09:28:30Z</time>
      </trkpt>
      <trkpt lat="41.607053880" lon="2.542346450">
        <ele>127.99</ele>
        <time>2015-05-17T09:28:39Z</time>
      </trkpt>
      <trkpt lat="41.607071230" lon="2.542386180">
        <ele>128.47</ele>
        <time>2015-05-17T09:28:46Z</time>
      </trkpt>
      <trkpt lat="41.607081540" lon="2.542373190">
        <ele>128.95</ele>
        <time>2015-05-17T09:28:53Z</time>
      </trkpt>
      <trkpt lat="41.607064690" lon="2.542373110">
        <ele>128.95</ele>
        <time>2015-05-17T09:29:07Z</time>
      </trkpt>
      <trkpt lat="41.607045920" lon="2.542370590">
        <ele>128.95</ele>
        <time>2015-05-17T09:29:20Z</time>
      </trkpt>
      <trkpt lat="41.607014900" lon="2.542453410">
        <ele>129.43</ele>
        <time>2015-05-17T09:29:36Z</time>
      </trkpt>
      <trkpt lat="41.607009120" lon="2.542514090">
        <ele>129.43</ele>
        <time>2015-05-17T09:29:49Z</time>
      </trkpt>
      <trkpt lat="41.607010710" lon="2.542514340">
        <ele>129.43</ele>
        <time>2015-05-17T09:30:05Z</time>
      </trkpt>
      <trkpt lat="41.607012720" lon="2.542506210">
        <ele>129.43</ele>
        <time>2015-05-17T09:30:17Z</time>
      </trkpt>
    </trkseg>
  </trk>
</gpx>
